<?xml version='1.0' encoding='UTF-8'?><gpx version="1.1" creator="JPX - https://github.com/jenetics/jpx" xmlns="http://www.topografix.com/GPX/1/1"><trk><trkseg><trkpt lat="49.2928146449575" lon="0.9729287617730694"><ele>117.0</ele><time>2026-03-30T16:38:21Z</time></trkpt><trkpt lat="49.29288385079869" lon="0.9729254898316457"><ele>116.99999999999999</ele><time>2026-03-30T16:38:46Z</time></trkpt><trkpt lat="49.292920659979536" lon="0.9728187366168604"><ele>116.99999999999999</ele><time>2026-03-30T16:38:48Z</time></trkpt><trkpt lat="49.29286106495302" lon="0.9726746718007963"><ele>117.0</ele><time>2026-03-30T16:38:49.999Z</time></trkpt><trkpt lat="49.29283192228439" lon="0.9725392240125666"><ele>117.0</ele><time>2026-03-30T16:38:51.999Z</time></trkpt><trkpt lat="49.292815794839434" lon="0.9723707990429018"><ele>117.19999999999999</ele><time>2026-03-30T16:38:53.999Z</time></trkpt><trkpt lat="49.2928014229347" lon="0.9721992601404406"><ele>117.39999999999999</ele><time>2026-03-30T16:38:55.999Z</time></trkpt><trkpt lat="49.29280117740219" lon="0.9720733163336917"><ele>117.60000000000001</ele><time>2026-03-30T16:38:57.999Z</time></trkpt><trkpt lat="49.29291039359886" lon="0.972064086677622"><ele>117.80000000000001</ele><time>2026-03-30T16:38:58.999Z</time></trkpt><trkpt lat="49.29297566096685" lon="0.9719996677658433"><ele>118.0</ele><time>2026-03-30T16:38:59.999Z</time></trkpt><trkpt lat="49.29305918036911" lon="0.971948660195931"><ele>118.0</ele><time>2026-03-30T16:39:00.999Z</time></trkpt><trkpt lat="49.29314866318473" lon="0.9718871310934828"><ele>118.00000000000001</ele><time>2026-03-30T16:39:01.999Z</time></trkpt><trkpt lat="49.29323919741975" lon="0.971819386027092"><ele>118.00000000000001</ele><time>2026-03-30T16:39:02.999Z</time></trkpt><trkpt lat="49.293330336040086" lon="0.9717519461278976"><ele>118.0</ele><time>2026-03-30T16:39:03.999Z</time></trkpt><trkpt lat="49.293409875376845" lon="0.9716972469788756"><ele>118.0</ele><time>2026-03-30T16:39:04.999Z</time></trkpt><trkpt lat="49.29347951792723" lon="0.971648653638391"><ele>118.00000000000001</ele><time>2026-03-30T16:39:05.999Z</time></trkpt><trkpt lat="49.29356177371436" lon="0.9715833672783494"><ele>118.0</ele><time>2026-03-30T16:39:06.999Z</time></trkpt><trkpt lat="49.293640235525245" lon="0.9715154131103623"><ele>118.0</ele><time>2026-03-30T16:39:07.999Z</time></trkpt><trkpt lat="49.29370075590159" lon="0.9714610783725198"><ele>118.0</ele><time>2026-03-30T16:39:08.999Z</time></trkpt><trkpt lat="49.29376734042357" lon="0.9714065271780069"><ele>118.00000000000001</ele><time>2026-03-30T16:39:09.999Z</time></trkpt><trkpt lat="49.29384224110732" lon="0.9713443516146618"><ele>118.0</ele><time>2026-03-30T16:39:10.999Z</time></trkpt><trkpt lat="49.29391862476566" lon="0.9712831049969967"><ele>118.00000000000001</ele><time>2026-03-30T16:39:11.999Z</time></trkpt><trkpt lat="49.29399642279086" lon="0.9712384668719682"><ele>118.0</ele><time>2026-03-30T16:39:12.999Z</time></trkpt><trkpt lat="49.294075103758004" lon="0.9711990420722327"><ele>118.0</ele><time>2026-03-30T16:39:13.999Z</time></trkpt><trkpt lat="49.29415337750692" lon="0.9711664630267056"><ele>118.0</ele><time>2026-03-30T16:39:14.999Z</time></trkpt><trkpt lat="49.29423348584407" lon="0.9711268814400775"><ele>118.00000000000001</ele><time>2026-03-30T16:39:15.999Z</time></trkpt><trkpt lat="49.29431066684981" lon="0.9710904697535324"><ele>118.0</ele><time>2026-03-30T16:39:16.999Z</time></trkpt><trkpt lat="49.29438657488927" lon="0.9710524670487449"><ele>118.00000000000001</ele><time>2026-03-30T16:39:17.999Z</time></trkpt><trkpt lat="49.29446131449266" lon="0.9710154812882483"><ele>118.0</ele><time>2026-03-30T16:39:18.999Z</time></trkpt><trkpt lat="49.2945396859913" lon="0.9709837007112149"><ele>118.0</ele><time>2026-03-30T16:39:19.999Z</time></trkpt><trkpt lat="49.2946181836521" lon="0.9709700492471594"><ele>118.0</ele><time>2026-03-30T16:39:20.999Z</time></trkpt><trkpt lat="49.29469762875206" lon="0.9709880803589791"><ele>118.00000000000001</ele><time>2026-03-30T16:39:21.999Z</time></trkpt><trkpt lat="49.29477285160211" lon="0.9710335783089831"><ele>118.0</ele><time>2026-03-30T16:39:22.999Z</time></trkpt><trkpt lat="49.294845406366406" lon="0.9710889578886429"><ele>118.50000000000001</ele><time>2026-03-30T16:39:23.999Z</time></trkpt><trkpt lat="49.29491487289038" lon="0.971158273709387"><ele>119.0</ele><time>2026-03-30T16:39:24.999Z</time></trkpt><trkpt lat="49.294980030974195" lon="0.9712276631021868"><ele>119.5</ele><time>2026-03-30T16:39:25.999Z</time></trkpt><trkpt lat="49.29503815068582" lon="0.9712872619618227"><ele>120.0</ele><time>2026-03-30T16:39:26.999Z</time></trkpt><trkpt lat="49.2951262806185" lon="0.971362912032584"><ele>120.50000000000001</ele><time>2026-03-30T16:39:28.999Z</time></trkpt><trkpt lat="49.295197300029834" lon="0.9714408896780906"><ele>121.0</ele><time>2026-03-30T16:39:30.999Z</time></trkpt><trkpt lat="49.29525102574514" lon="0.9715000971348009"><ele>121.00000000000001</ele><time>2026-03-30T16:39:31.999Z</time></trkpt><trkpt lat="49.295320651443824" lon="0.9715482366076904"><ele>121.0</ele><time>2026-03-30T16:39:32.999Z</time></trkpt><trkpt lat="49.2954013480368" lon="0.9715708409687334"><ele>121.0</ele><time>2026-03-30T16:39:33.999Z</time></trkpt><trkpt lat="49.2954901802674" lon="0.9715656767416486"><ele>121.0</ele><time>2026-03-30T16:39:34.999Z</time></trkpt><trkpt lat="49.29557416686917" lon="0.9715234162022688"><ele>121.00000000000001</ele><time>2026-03-30T16:39:35.999Z</time></trkpt><trkpt lat="49.2956583276133" lon="0.9714629357798176"><ele>121.0</ele><time>2026-03-30T16:39:36.999Z</time></trkpt><trkpt lat="49.295741635674325" lon="0.9713901750511745"><ele>121.16666666666667</ele><time>2026-03-30T16:39:37.999Z</time></trkpt><trkpt lat="49.295826819996634" lon="0.9713182216042966"><ele>121.33333333333334</ele><time>2026-03-30T16:39:38.999Z</time></trkpt><trkpt lat="49.29589518940515" lon="0.9712639321470045"><ele>121.5</ele><time>2026-03-30T16:39:39.999Z</time></trkpt><trkpt lat="49.29595648803067" lon="0.9712147157488332"><ele>121.66666666666666</ele><time>2026-03-30T16:39:40.999Z</time></trkpt><trkpt lat="49.29602078261411" lon="0.9711686081500631"><ele>121.83333333333333</ele><time>2026-03-30T16:39:41.999Z</time></trkpt><trkpt lat="49.296083972322286" lon="0.9711374623632979"><ele>122.0</ele><time>2026-03-30T16:39:42.998Z</time></trkpt><trkpt lat="49.2961619261878" lon="0.9711299048842925"><ele>121.99999999999999</ele><time>2026-03-30T16:39:43.998Z</time></trkpt><trkpt lat="49.296222563526335" lon="0.9710984975338892"><ele>122.0</ele><time>2026-03-30T16:39:44.998Z</time></trkpt><trkpt lat="49.296247079472636" lon="0.9710057098434599"><ele>122.0</ele><time>2026-03-30T16:39:45.998Z</time></trkpt><trkpt lat="49.2962546648461" lon="0.9708704216383371"><ele>122.0</ele><time>2026-03-30T16:39:46.998Z</time></trkpt><trkpt lat="49.29626158281106" lon="0.9707449919625469"><ele>121.99999999999999</ele><time>2026-03-30T16:39:47.998Z</time></trkpt><trkpt lat="49.29627756627496" lon="0.970624376510844"><ele>122.0</ele><time>2026-03-30T16:39:48.998Z</time></trkpt><trkpt lat="49.29630039675478" lon="0.9704839974966675"><ele>122.16666666666666</ele><time>2026-03-30T16:39:49.998Z</time></trkpt><trkpt lat="49.29631517126721" lon="0.9703408887293958"><ele>122.33333333333333</ele><time>2026-03-30T16:39:50.998Z</time></trkpt><trkpt lat="49.29632837883449" lon="0.9702037474002333"><ele>122.5</ele><time>2026-03-30T16:39:51.998Z</time></trkpt><trkpt lat="49.29633756995057" lon="0.970069410004271"><ele>122.66666666666666</ele><time>2026-03-30T16:39:52.998Z</time></trkpt><trkpt lat="49.2963468294941" lon="0.9699343324383874"><ele>122.83333333333333</ele><time>2026-03-30T16:39:53.998Z</time></trkpt><trkpt lat="49.296359736302016" lon="0.9698207111659798"><ele>123.0</ele><time>2026-03-30T16:39:55Z</time></trkpt><trkpt lat="49.296371880065564" lon="0.9696976532591468"><ele>123.5</ele><time>2026-03-30T16:39:56Z</time></trkpt><trkpt lat="49.296380635945255" lon="0.9695676395306887"><ele>124.0</ele><time>2026-03-30T16:39:57Z</time></trkpt><trkpt lat="49.296392096718435" lon="0.9694328788414424"><ele>124.5</ele><time>2026-03-30T16:39:58Z</time></trkpt><trkpt lat="49.296404770677455" lon="0.9693006009868496"><ele>125.0</ele><time>2026-03-30T16:39:59Z</time></trkpt><trkpt lat="49.296417374024315" lon="0.9691680887823698"><ele>125.5</ele><time>2026-03-30T16:40:00Z</time></trkpt><trkpt lat="49.296428674745506" lon="0.9690362037001532"><ele>126.0</ele><time>2026-03-30T16:40:01Z</time></trkpt><trkpt lat="49.29643996353133" lon="0.9689071549713953"><ele>126.0</ele><time>2026-03-30T16:40:02Z</time></trkpt><trkpt lat="49.29645045889081" lon="0.9687810519139177"><ele>126.0</ele><time>2026-03-30T16:40:03Z</time></trkpt><trkpt lat="49.29645977763758" lon="0.9686645103211723"><ele>126.0</ele><time>2026-03-30T16:40:04Z</time></trkpt><trkpt lat="49.296473173099784" lon="0.9685313839960816"><ele>126.0</ele><time>2026-03-30T16:40:05Z</time></trkpt><trkpt lat="49.29648587840585" lon="0.9683690007820221"><ele>126.0</ele><time>2026-03-30T16:40:06Z</time></trkpt><trkpt lat="49.29650007686985" lon="0.9681806802656806"><ele>126.25</ele><time>2026-03-30T16:40:07Z</time></trkpt><trkpt lat="49.2965164514052" lon="0.9679781625820214"><ele>126.5</ele><time>2026-03-30T16:40:08Z</time></trkpt><trkpt lat="49.29653407262234" lon="0.9677647726380842"><ele>126.75</ele><time>2026-03-30T16:40:09Z</time></trkpt><trkpt lat="49.29654977031545" lon="0.9675695500438375"><ele>127.0</ele><time>2026-03-30T16:40:10Z</time></trkpt><trkpt lat="49.29656362765699" lon="0.9674031550224496"><ele>127.39999999999999</ele><time>2026-03-30T16:40:11Z</time></trkpt><trkpt lat="49.29657428331619" lon="0.9672526040402851"><ele>127.79999999999998</ele><time>2026-03-30T16:40:12Z</time></trkpt><trkpt lat="49.29659001657731" lon="0.9671038537187961"><ele>128.2</ele><time>2026-03-30T16:40:13Z</time></trkpt><trkpt lat="49.296615148677624" lon="0.9669265443195386"><ele>128.6</ele><time>2026-03-30T16:40:14Z</time></trkpt><trkpt lat="49.29664919053879" lon="0.9667342364399366"><ele>129.0</ele><time>2026-03-30T16:40:15Z</time></trkpt><trkpt lat="49.29668248704926" lon="0.9665643360438267"><ele>129.0</ele><time>2026-03-30T16:40:16Z</time></trkpt><trkpt lat="49.2967143794627" lon="0.966401813206736"><ele>129.0</ele><time>2026-03-30T16:40:17Z</time></trkpt><trkpt lat="49.29675100142565" lon="0.9662447888816046"><ele>129.0</ele><time>2026-03-30T16:40:18Z</time></trkpt><trkpt lat="49.29678829636742" lon="0.9660896810778051"><ele>129.0</ele><time>2026-03-30T16:40:19Z</time></trkpt><trkpt lat="49.296824372976936" lon="0.9659378734901317"><ele>129.0</ele><time>2026-03-30T16:40:20Z</time></trkpt><trkpt lat="49.29686205693582" lon="0.96577061292543"><ele>129.0</ele><time>2026-03-30T16:40:21Z</time></trkpt><trkpt lat="49.29689654843826" lon="0.9655994478289485"><ele>129.0</ele><time>2026-03-30T16:40:22Z</time></trkpt><trkpt lat="49.296929400920874" lon="0.9654241109662463"><ele>129.0</ele><time>2026-03-30T16:40:23Z</time></trkpt><trkpt lat="49.296968800580785" lon="0.9652508387235255"><ele>129.0</ele><time>2026-03-30T16:40:24Z</time></trkpt><trkpt lat="49.29700909546963" lon="0.9650781818045416"><ele>129.0</ele><time>2026-03-30T16:40:25Z</time></trkpt><trkpt lat="49.29705306871077" lon="0.9649057698813432"><ele>129.0</ele><time>2026-03-30T16:40:26Z</time></trkpt><trkpt lat="49.297093969445555" lon="0.9647319773602964"><ele>129.0</ele><time>2026-03-30T16:40:27Z</time></trkpt><trkpt lat="49.29713312736673" lon="0.964564244074562"><ele>129.0</ele><time>2026-03-30T16:40:28Z</time></trkpt><trkpt lat="49.297168857409616" lon="0.9644014941949007"><ele>129.0</ele><time>2026-03-30T16:40:29Z</time></trkpt><trkpt lat="49.29721136504637" lon="0.9642336477851916"><ele>129.0</ele><time>2026-03-30T16:40:30Z</time></trkpt><trkpt lat="49.29725626905087" lon="0.9640581620351948"><ele>129.0</ele><time>2026-03-30T16:40:31Z</time></trkpt><trkpt lat="49.29730172940522" lon="0.9638813664721539"><ele>129.0</ele><time>2026-03-30T16:40:32Z</time></trkpt><trkpt lat="49.297347857943684" lon="0.9637015914614602"><ele>128.75</ele><time>2026-03-30T16:40:33Z</time></trkpt><trkpt lat="49.29739390891569" lon="0.9635199553479952"><ele>128.5</ele><time>2026-03-30T16:40:34Z</time></trkpt><trkpt lat="49.29744387117115" lon="0.9633389125432505"><ele>128.25</ele><time>2026-03-30T16:40:35Z</time></trkpt><trkpt lat="49.29749541767396" lon="0.9631545363043678"><ele>128.0</ele><time>2026-03-30T16:40:36Z</time></trkpt><trkpt lat="49.29755618737038" lon="0.962952899686524"><ele>128.0</ele><time>2026-03-30T16:40:37Z</time></trkpt><trkpt lat="49.29763131272153" lon="0.9627218798338529"><ele>128.0</ele><time>2026-03-30T16:40:38Z</time></trkpt><trkpt lat="49.29769551651586" lon="0.9625345860848161"><ele>128.0</ele><time>2026-03-30T16:40:39Z</time></trkpt><trkpt lat="49.29775480812918" lon="0.9623789396994478"><ele>128.0</ele><time>2026-03-30T16:40:40Z</time></trkpt><trkpt lat="49.297809624982065" lon="0.9622382310592"><ele>128.20000000000002</ele><time>2026-03-30T16:40:41Z</time></trkpt><trkpt lat="49.297857981266304" lon="0.9621094145627836"><ele>128.4</ele><time>2026-03-30T16:40:42Z</time></trkpt><trkpt lat="49.29790354600767" lon="0.9619809090392373"><ele>128.60000000000002</ele><time>2026-03-30T16:40:43Z</time></trkpt><trkpt lat="49.29794932711808" lon="0.9618371342959882"><ele>128.8</ele><time>2026-03-30T16:40:44Z</time></trkpt><trkpt lat="49.29799579207823" lon="0.961715146914123"><ele>129.0</ele><time>2026-03-30T16:40:45Z</time></trkpt><trkpt lat="49.29804315832863" lon="0.9616092096129397"><ele>128.5</ele><time>2026-03-30T16:40:46Z</time></trkpt><trkpt lat="49.29808514217355" lon="0.9615112215677164"><ele>128.0</ele><time>2026-03-30T16:40:47Z</time></trkpt><trkpt lat="49.298137231414216" lon="0.9614011415787145"><ele>127.5</ele><time>2026-03-30T16:40:48Z</time></trkpt><trkpt lat="49.298194126435725" lon="0.9612813687081075"><ele>127.0</ele><time>2026-03-30T16:40:49Z</time></trkpt><trkpt lat="49.29824043432931" lon="0.9611849911673982"><ele>126.5</ele><time>2026-03-30T16:40:50Z</time></trkpt><trkpt lat="49.29827626314644" lon="0.9611051705075131"><ele>126.0</ele><time>2026-03-30T16:40:51Z</time></trkpt><trkpt lat="49.29834282338299" lon="0.9609560514152605"><ele>126.0</ele><time>2026-03-30T16:40:53Z</time></trkpt><trkpt lat="49.2984208761202" lon="0.9608621190991327"><ele>126.0</ele><time>2026-03-30T16:40:54.999Z</time></trkpt><trkpt lat="49.298496364077614" lon="0.9609062197100493"><ele>126.0</ele><time>2026-03-30T16:40:55.999Z</time></trkpt><trkpt lat="49.29860058377871" lon="0.960988592619958"><ele>126.0</ele><time>2026-03-30T16:40:57.999Z</time></trkpt><trkpt lat="49.29866261756407" lon="0.9610095734705204"><ele>126.0</ele><time>2026-03-30T16:40:58.999Z</time></trkpt><trkpt lat="49.298747798197255" lon="0.9610384581796795"><ele>126.0</ele><time>2026-03-30T16:40:59.999Z</time></trkpt><trkpt lat="49.29886236900854" lon="0.9610835567313224"><ele>125.25</ele><time>2026-03-30T16:41:00.999Z</time></trkpt><trkpt lat="49.299005357970934" lon="0.9611456359236044"><ele>124.5</ele><time>2026-03-30T16:41:01.999Z</time></trkpt><trkpt lat="49.2991390546052" lon="0.9612040813125298"><ele>123.75</ele><time>2026-03-30T16:41:02.999Z</time></trkpt><trkpt lat="49.299257667766256" lon="0.9612518776253792"><ele>123.0</ele><time>2026-03-30T16:41:03.999Z</time></trkpt><trkpt lat="49.29938700418509" lon="0.961306931120707"><ele>123.0</ele><time>2026-03-30T16:41:04.999Z</time></trkpt><trkpt lat="49.299499162905484" lon="0.9613593403139478"><ele>123.0</ele><time>2026-03-30T16:41:05.999Z</time></trkpt><trkpt lat="49.299595443162495" lon="0.9614046240857527"><ele>123.0</ele><time>2026-03-30T16:41:06.999Z</time></trkpt><trkpt lat="49.299690129112186" lon="0.9614483782365323"><ele>123.0</ele><time>2026-03-30T16:41:07.999Z</time></trkpt><trkpt lat="49.29981799815974" lon="0.9615158486507986"><ele>121.66666666666666</ele><time>2026-03-30T16:41:08.999Z</time></trkpt><trkpt lat="49.299973503359986" lon="0.9615870925770226"><ele>120.33333333333333</ele><time>2026-03-30T16:41:09.999Z</time></trkpt><trkpt lat="49.30013588938709" lon="0.9616537801291883"><ele>119.0</ele><time>2026-03-30T16:41:10.999Z</time></trkpt><trkpt lat="49.30027702470801" lon="0.9617120402577718"><ele>118.80000000000001</ele><time>2026-03-30T16:41:11.999Z</time></trkpt><trkpt lat="49.30040051596709" lon="0.9617743134383044"><ele>118.60000000000001</ele><time>2026-03-30T16:41:12.999Z</time></trkpt><trkpt lat="49.30051488146759" lon="0.9618284904128962"><ele>118.4</ele><time>2026-03-30T16:41:13.999Z</time></trkpt><trkpt lat="49.30061645666256" lon="0.9618768523650817"><ele>118.2</ele><time>2026-03-30T16:41:14.999Z</time></trkpt><trkpt lat="49.300705596332655" lon="0.9619192895801703"><ele>118.0</ele><time>2026-03-30T16:41:15.999Z</time></trkpt><trkpt lat="49.30078476644452" lon="0.9619509858456862"><ele>117.80000000000001</ele><time>2026-03-30T16:41:16.999Z</time></trkpt><trkpt lat="49.300853984395914" lon="0.9619660329576165"><ele>117.60000000000001</ele><time>2026-03-30T16:41:17.999Z</time></trkpt><trkpt lat="49.30096665243079" lon="0.9618482717969534"><ele>117.39999999999999</ele><time>2026-03-30T16:41:19.999Z</time></trkpt><trkpt lat="49.30101754494451" lon="0.9617010351030181"><ele>117.19999999999999</ele><time>2026-03-30T16:41:20.999Z</time></trkpt><trkpt lat="49.30108285287171" lon="0.961535813670552"><ele>117.0</ele><time>2026-03-30T16:41:21.999Z</time></trkpt><trkpt lat="49.301166916678724" lon="0.9613696549619233"><ele>117.0</ele><time>2026-03-30T16:41:22.999Z</time></trkpt><trkpt lat="49.30127341847444" lon="0.9612141920444437"><ele>117.0</ele><time>2026-03-30T16:41:23.999Z</time></trkpt><trkpt lat="49.30135201979664" lon="0.9610492146676913"><ele>117.0</ele><time>2026-03-30T16:41:24.999Z</time></trkpt><trkpt lat="49.30142905565791" lon="0.9609272832610609"><ele>117.0</ele><time>2026-03-30T16:41:25.999Z</time></trkpt><trkpt lat="49.30149781131934" lon="0.9608210757750342"><ele>117.0</ele><time>2026-03-30T16:41:26.999Z</time></trkpt><trkpt lat="49.301565683917794" lon="0.9607082578380293"><ele>117.0</ele><time>2026-03-30T16:41:27.999Z</time></trkpt><trkpt lat="49.30163316155154" lon="0.9605837765893628"><ele>117.0</ele><time>2026-03-30T16:41:28.999Z</time></trkpt><trkpt lat="49.301690875048074" lon="0.9604902251451914"><ele>117.0</ele><time>2026-03-30T16:41:29.999Z</time></trkpt><trkpt lat="49.30174606278055" lon="0.9604197791225161"><ele>117.0</ele><time>2026-03-30T16:41:30.999Z</time></trkpt><trkpt lat="49.30180251146657" lon="0.9603770299478122"><ele>117.0</ele><time>2026-03-30T16:41:31.999Z</time></trkpt><trkpt lat="49.301985280142404" lon="0.960418567981631"><ele>117.0</ele><time>2026-03-30T16:41:33.999Z</time></trkpt><trkpt lat="49.302128065350175" lon="0.9604561262121701"><ele>117.0</ele><time>2026-03-30T16:41:34.999Z</time></trkpt><trkpt lat="49.30226641375948" lon="0.9605153425111788"><ele>117.0</ele><time>2026-03-30T16:41:35.999Z</time></trkpt><trkpt lat="49.302409048319916" lon="0.9605956461363143"><ele>117.0</ele><time>2026-03-30T16:41:36.999Z</time></trkpt><trkpt lat="49.30252268752091" lon="0.9606661514807325"><ele>117.8</ele><time>2026-03-30T16:41:37.999Z</time></trkpt><trkpt lat="49.30262080756204" lon="0.9607318033582523"><ele>118.6</ele><time>2026-03-30T16:41:38.999Z</time></trkpt><trkpt lat="49.302706851236906" lon="0.9607952453045839"><ele>119.39999999999999</ele><time>2026-03-30T16:41:39.999Z</time></trkpt><trkpt lat="49.30278767398996" lon="0.9608351559590114"><ele>120.19999999999999</ele><time>2026-03-30T16:41:40.999Z</time></trkpt><trkpt lat="49.30285073529758" lon="0.960886578147851"><ele>121.0</ele><time>2026-03-30T16:41:41.999Z</time></trkpt><trkpt lat="49.302958466007766" lon="0.9609613205562358"><ele>121.0</ele><time>2026-03-30T16:41:43.999Z</time></trkpt><trkpt lat="49.303047430280735" lon="0.9610389456358849"><ele>121.0</ele><time>2026-03-30T16:41:45.999Z</time></trkpt><trkpt lat="49.303106689986556" lon="0.961081072607122"><ele>121.0</ele><time>2026-03-30T16:41:46.999Z</time></trkpt><trkpt lat="49.30323894845733" lon="0.9611425264584752"><ele>121.0</ele><time>2026-03-30T16:41:48.998Z</time></trkpt><trkpt lat="49.30332035278864" lon="0.9611707736737518"><ele>121.0</ele><time>2026-03-30T16:41:49.998Z</time></trkpt><trkpt lat="49.30340006676178" lon="0.9611853485974375"><ele>121.8</ele><time>2026-03-30T16:41:50.998Z</time></trkpt><trkpt lat="49.30347344644066" lon="0.9611849405876723"><ele>122.6</ele><time>2026-03-30T16:41:51.998Z</time></trkpt><trkpt lat="49.30353723204176" lon="0.9611854443650454"><ele>123.4</ele><time>2026-03-30T16:41:52.998Z</time></trkpt><trkpt lat="49.30367599050082" lon="0.9611942193801817"><ele>124.2</ele><time>2026-03-30T16:41:54.998Z</time></trkpt><trkpt lat="49.303770319497644" lon="0.9612054764823291"><ele>125.0</ele><time>2026-03-30T16:41:55.998Z</time></trkpt><trkpt lat="49.30386448928205" lon="0.9612243190972929"><ele>125.0</ele><time>2026-03-30T16:41:56.998Z</time></trkpt><trkpt lat="49.303951265159" lon="0.9612640869250979"><ele>125.0</ele><time>2026-03-30T16:41:57.998Z</time></trkpt><trkpt lat="49.30400160083857" lon="0.9613664415776298"><ele>125.0</ele><time>2026-03-30T16:41:58.998Z</time></trkpt><trkpt lat="49.304058167134045" lon="0.961469721411184"><ele>125.0</ele><time>2026-03-30T16:42:00Z</time></trkpt><trkpt lat="49.30412265352409" lon="0.9615747686961418"><ele>125.0</ele><time>2026-03-30T16:42:01Z</time></trkpt><trkpt lat="49.30417625370244" lon="0.9616921878416631"><ele>125.2</ele><time>2026-03-30T16:42:02Z</time></trkpt><trkpt lat="49.30422558648364" lon="0.961818030519458"><ele>125.4</ele><time>2026-03-30T16:42:03Z</time></trkpt><trkpt lat="49.30427302786527" lon="0.9619571690216311"><ele>125.6</ele><time>2026-03-30T16:42:04Z</time></trkpt><trkpt lat="49.30432851202721" lon="0.9621293072067896"><ele>125.8</ele><time>2026-03-30T16:42:05Z</time></trkpt><trkpt lat="49.30437434672282" lon="0.9622869641226719"><ele>126.0</ele><time>2026-03-30T16:42:06Z</time></trkpt><trkpt lat="49.30441811768856" lon="0.9624440733713788"><ele>126.33333333333333</ele><time>2026-03-30T16:42:07Z</time></trkpt><trkpt lat="49.304465682980194" lon="0.9625970156008331"><ele>126.66666666666666</ele><time>2026-03-30T16:42:08Z</time></trkpt><trkpt lat="49.30451251974139" lon="0.962721819195515"><ele>127.0</ele><time>2026-03-30T16:42:09Z</time></trkpt><trkpt lat="49.304559977804566" lon="0.9628343112967707"><ele>127.33333333333333</ele><time>2026-03-30T16:42:10Z</time></trkpt><trkpt lat="49.30459954491227" lon="0.9629337491241639"><ele>127.66666666666666</ele><time>2026-03-30T16:42:11Z</time></trkpt><trkpt lat="49.30463395150159" lon="0.9630314952767713"><ele>128.0</ele><time>2026-03-30T16:42:12Z</time></trkpt><trkpt lat="49.30466803651578" lon="0.9631371973919006"><ele>127.99999999999999</ele><time>2026-03-30T16:42:13Z</time></trkpt><trkpt lat="49.30470508217792" lon="0.963242409590786"><ele>128.0</ele><time>2026-03-30T16:42:14Z</time></trkpt><trkpt lat="49.30474133935624" lon="0.963335491307361"><ele>128.0</ele><time>2026-03-30T16:42:15Z</time></trkpt><trkpt lat="49.30479827213575" lon="0.9634731938919875"><ele>128.0</ele><time>2026-03-30T16:42:17Z</time></trkpt><trkpt lat="49.30487732936609" lon="0.9635758202869611"><ele>127.99999999999999</ele><time>2026-03-30T16:42:19Z</time></trkpt><trkpt lat="49.304944816972196" lon="0.9636135990594843"><ele>128.0</ele><time>2026-03-30T16:42:20Z</time></trkpt><trkpt lat="49.30502182376491" lon="0.9636618323118423"><ele>127.66666666666666</ele><time>2026-03-30T16:42:21Z</time></trkpt><trkpt lat="49.30513432075354" lon="0.9637495967000206"><ele>127.33333333333334</ele><time>2026-03-30T16:42:22Z</time></trkpt><trkpt lat="49.30527183047336" lon="0.9638699548000292"><ele>127.0</ele><time>2026-03-30T16:42:23Z</time></trkpt><trkpt lat="49.30541769791856" lon="0.9640423259957709"><ele>127.0</ele><time>2026-03-30T16:42:24Z</time></trkpt><trkpt lat="49.30558030179981" lon="0.9642454005378471"><ele>127.0</ele><time>2026-03-30T16:42:25Z</time></trkpt><trkpt lat="49.30575825285279" lon="0.9644493001151949"><ele>127.0</ele><time>2026-03-30T16:42:26Z</time></trkpt><trkpt lat="49.30596662974765" lon="0.9646312851668102"><ele>127.0</ele><time>2026-03-30T16:42:27Z</time></trkpt><trkpt lat="49.30619713157936" lon="0.9647861575276891"><ele>127.0</ele><time>2026-03-30T16:42:28Z</time></trkpt><trkpt lat="49.30644054971697" lon="0.9649231921969601"><ele>126.0</ele><time>2026-03-30T16:42:29Z</time></trkpt><trkpt lat="49.30666666066584" lon="0.9650939678890446"><ele>125.0</ele><time>2026-03-30T16:42:30Z</time></trkpt><trkpt lat="49.30686403000743" lon="0.9652341232268293"><ele>125.0</ele><time>2026-03-30T16:42:31Z</time></trkpt><trkpt lat="49.307046417066026" lon="0.9653738519778243"><ele>125.0</ele><time>2026-03-30T16:42:32Z</time></trkpt><trkpt lat="49.307222473883115" lon="0.9655142861275886"><ele>125.0</ele><time>2026-03-30T16:42:33Z</time></trkpt><trkpt lat="49.30737675946817" lon="0.9656360287675552"><ele>124.75</ele><time>2026-03-30T16:42:34Z</time></trkpt><trkpt lat="49.307519702773284" lon="0.9657191261060523"><ele>124.5</ele><time>2026-03-30T16:42:35Z</time></trkpt><trkpt lat="49.30764344163645" lon="0.9658249987542059"><ele>124.25</ele><time>2026-03-30T16:42:36Z</time></trkpt><trkpt lat="49.307753024858904" lon="0.9659208993299702"><ele>124.0</ele><time>2026-03-30T16:42:37Z</time></trkpt><trkpt lat="49.30785255407033" lon="0.9660145521140875"><ele>124.0</ele><time>2026-03-30T16:42:38Z</time></trkpt><trkpt lat="49.30795241122091" lon="0.966101179485941"><ele>124.0</ele><time>2026-03-30T16:42:39Z</time></trkpt><trkpt lat="49.30808532459736" lon="0.9662188460943902"><ele>124.0</ele><time>2026-03-30T16:42:40Z</time></trkpt><trkpt lat="49.30820821012405" lon="0.9663161943757408"><ele>124.0</ele><time>2026-03-30T16:42:41Z</time></trkpt><trkpt lat="49.30830803518563" lon="0.966392058914334"><ele>124.00000000000001</ele><time>2026-03-30T16:42:42Z</time></trkpt><trkpt lat="49.308391068562685" lon="0.9664597495641389"><ele>124.0</ele><time>2026-03-30T16:42:43Z</time></trkpt><trkpt lat="49.30846715446046" lon="0.9665198587732874"><ele>124.0</ele><time>2026-03-30T16:42:44Z</time></trkpt><trkpt lat="49.30853991657669" lon="0.9665768067533023"><ele>124.0</ele><time>2026-03-30T16:42:45Z</time></trkpt><trkpt lat="49.308605553472226" lon="0.966631572820919"><ele>124.00000000000001</ele><time>2026-03-30T16:42:46Z</time></trkpt><trkpt lat="49.3086726462663" lon="0.9666862238370785"><ele>124.0</ele><time>2026-03-30T16:42:47Z</time></trkpt><trkpt lat="49.30873912347821" lon="0.966740737232406"><ele>124.4</ele><time>2026-03-30T16:42:48Z</time></trkpt><trkpt lat="49.30880442077965" lon="0.9667836385567146"><ele>124.80000000000001</ele><time>2026-03-30T16:42:49Z</time></trkpt><trkpt lat="49.30889718432533" lon="0.9668694137989661"><ele>125.19999999999999</ele><time>2026-03-30T16:42:51Z</time></trkpt><trkpt lat="49.30896625333095" lon="0.9669736473705713"><ele>125.6</ele><time>2026-03-30T16:42:53Z</time></trkpt><trkpt lat="49.30906046282837" lon="0.9670735943256089"><ele>126.0</ele><time>2026-03-30T16:42:55Z</time></trkpt><trkpt lat="49.30912911931801" lon="0.9671464320155145"><ele>126.75</ele><time>2026-03-30T16:42:55.999Z</time></trkpt><trkpt lat="49.30911254667923" lon="0.9674010349951897"><ele>127.5</ele><time>2026-03-30T16:42:56.999Z</time></trkpt><trkpt lat="49.309163100437026" lon="0.9675073186770643"><ele>128.25</ele><time>2026-03-30T16:42:57.999Z</time></trkpt><trkpt lat="49.30922666228115" lon="0.9676824316222745"><ele>129.0</ele><time>2026-03-30T16:42:58.999Z</time></trkpt><trkpt lat="49.30930517323647" lon="0.9678702254306478"><ele>129.0</ele><time>2026-03-30T16:42:59.999Z</time></trkpt><trkpt lat="49.30937936968158" lon="0.9680310258338333"><ele>129.0</ele><time>2026-03-30T16:43:00.999Z</time></trkpt><trkpt lat="49.309441082359804" lon="0.9681607312104937"><ele>129.0</ele><time>2026-03-30T16:43:01.999Z</time></trkpt><trkpt lat="49.30948451752398" lon="0.9682991144609437"><ele>129.0</ele><time>2026-03-30T16:43:02.999Z</time></trkpt><trkpt lat="49.309538902855216" lon="0.9684238266929803"><ele>129.0</ele><time>2026-03-30T16:43:03.999Z</time></trkpt><trkpt lat="49.30958636331931" lon="0.9685481256414349"><ele>128.83333333333334</ele><time>2026-03-30T16:43:04.999Z</time></trkpt><trkpt lat="49.30965436838764" lon="0.9686326614874454"><ele>128.66666666666666</ele><time>2026-03-30T16:43:05.999Z</time></trkpt><trkpt lat="49.309730419864565" lon="0.9687099280602111"><ele>128.5</ele><time>2026-03-30T16:43:06.999Z</time></trkpt><trkpt lat="49.30981386434997" lon="0.9687805670653576"><ele>128.33333333333331</ele><time>2026-03-30T16:43:07.999Z</time></trkpt><trkpt lat="49.3098695686556" lon="0.968859152348406"><ele>128.16666666666666</ele><time>2026-03-30T16:43:08.999Z</time></trkpt><trkpt lat="49.309946067072566" lon="0.9689174337567522"><ele>128.0</ele><time>2026-03-30T16:43:09.999Z</time></trkpt><trkpt lat="49.3100491393136" lon="0.9689922060230745"><ele>128.0</ele><time>2026-03-30T16:43:10.999Z</time></trkpt><trkpt lat="49.310181151492856" lon="0.9690956410296192"><ele>128.0</ele><time>2026-03-30T16:43:11.999Z</time></trkpt><trkpt lat="49.31031099823742" lon="0.9692066632788827"><ele>128.0</ele><time>2026-03-30T16:43:12.999Z</time></trkpt><trkpt lat="49.3104152192562" lon="0.9693376300643434"><ele>128.0</ele><time>2026-03-30T16:43:13.999Z</time></trkpt><trkpt lat="49.31051611566881" lon="0.9694570412238757"><ele>128.0</ele><time>2026-03-30T16:43:14.999Z</time></trkpt><trkpt lat="49.31060157154652" lon="0.9695349863680505"><ele>128.0</ele><time>2026-03-30T16:43:15.999Z</time></trkpt><trkpt lat="49.310675104522275" lon="0.9696109306700456"><ele>128.0</ele><time>2026-03-30T16:43:16.999Z</time></trkpt><trkpt lat="49.31074434798547" lon="0.9696929782404864"><ele>128.0</ele><time>2026-03-30T16:43:17.999Z</time></trkpt><trkpt lat="49.31081794373023" lon="0.9697670531698012"><ele>128.0</ele><time>2026-03-30T16:43:18.999Z</time></trkpt><trkpt lat="49.310912497535604" lon="0.9698526741923991"><ele>128.0</ele><time>2026-03-30T16:43:19.999Z</time></trkpt><trkpt lat="49.311018392618585" lon="0.9699453071353517"><ele>128.0</ele><time>2026-03-30T16:43:20.999Z</time></trkpt><trkpt lat="49.311100665863016" lon="0.9700432248993555"><ele>128.0</ele><time>2026-03-30T16:43:21.999Z</time></trkpt><trkpt lat="49.31118112118277" lon="0.970146792575092"><ele>128.0</ele><time>2026-03-30T16:43:22.999Z</time></trkpt><trkpt lat="49.31124328045572" lon="0.9702215275502926"><ele>128.0</ele><time>2026-03-30T16:43:23.999Z</time></trkpt><trkpt lat="49.31132290099537" lon="0.9702700977051132"><ele>128.20000000000002</ele><time>2026-03-30T16:43:24.999Z</time></trkpt><trkpt lat="49.31140228609466" lon="0.9703373862987065"><ele>128.4</ele><time>2026-03-30T16:43:25.999Z</time></trkpt><trkpt lat="49.311473641124614" lon="0.9704142356275328"><ele>128.60000000000002</ele><time>2026-03-30T16:43:26.999Z</time></trkpt><trkpt lat="49.3115738654126" lon="0.9704998700073723"><ele>128.8</ele><time>2026-03-30T16:43:27.999Z</time></trkpt><trkpt lat="49.31167752195882" lon="0.9705970517563496"><ele>129.0</ele><time>2026-03-30T16:43:28.999Z</time></trkpt><trkpt lat="49.3117728871394" lon="0.9706975902584613"><ele>128.5</ele><time>2026-03-30T16:43:29.999Z</time></trkpt><trkpt lat="49.311862172646535" lon="0.9707967609635748"><ele>128.0</ele><time>2026-03-30T16:43:30.999Z</time></trkpt><trkpt lat="49.311972187396805" lon="0.9708926012730437"><ele>127.5</ele><time>2026-03-30T16:43:31.999Z</time></trkpt><trkpt lat="49.3120766847176" lon="0.970996351217797"><ele>127.0</ele><time>2026-03-30T16:43:32.999Z</time></trkpt><trkpt lat="49.31218068895956" lon="0.9710831703662021"><ele>127.00000000000001</ele><time>2026-03-30T16:43:33.999Z</time></trkpt><trkpt lat="49.31226365750452" lon="0.9711531117913159"><ele>127.0</ele><time>2026-03-30T16:43:34.999Z</time></trkpt><trkpt lat="49.31232208806414" lon="0.9712308064671168"><ele>127.0</ele><time>2026-03-30T16:43:35.999Z</time></trkpt><trkpt lat="49.312379720150545" lon="0.9713117117037678"><ele>127.0</ele><time>2026-03-30T16:43:36.999Z</time></trkpt><trkpt lat="49.312440929155194" lon="0.971383536613505"><ele>127.00000000000001</ele><time>2026-03-30T16:43:37.999Z</time></trkpt><trkpt lat="49.3125230030282" lon="0.9714339044433917"><ele>127.0</ele><time>2026-03-30T16:43:38.999Z</time></trkpt><trkpt lat="49.31259432981417" lon="0.9714947172955979"><ele>127.0</ele><time>2026-03-30T16:43:39.999Z</time></trkpt><trkpt lat="49.3126530729468" lon="0.971556488689731"><ele>126.99999999999999</ele><time>2026-03-30T16:43:40.999Z</time></trkpt><trkpt lat="49.312664053876524" lon="0.9716689295262969"><ele>126.99999999999999</ele><time>2026-03-30T16:43:42.999Z</time></trkpt><trkpt lat="49.312550037501644" lon="0.9718079010491922"><ele>127.0</ele><time>2026-03-30T16:43:44.999Z</time></trkpt><trkpt lat="49.312451171223735" lon="0.9719406866337377"><ele>127.0</ele><time>2026-03-30T16:43:45.999Z</time></trkpt><trkpt lat="49.31232873730809" lon="0.9721151847554726"><ele>127.25</ele><time>2026-03-30T16:43:46.999Z</time></trkpt><trkpt lat="49.31222726793525" lon="0.9722738425537396"><ele>127.5</ele><time>2026-03-30T16:43:47.999Z</time></trkpt><trkpt lat="49.31215372509006" lon="0.9723890578008949"><ele>127.75</ele><time>2026-03-30T16:43:48.999Z</time></trkpt><trkpt lat="49.31206948630347" lon="0.9725149635098201"><ele>128.0</ele><time>2026-03-30T16:43:49.999Z</time></trkpt><trkpt lat="49.31200249644565" lon="0.9726474363143481"><ele>127.60000000000001</ele><time>2026-03-30T16:43:50.998Z</time></trkpt><trkpt lat="49.31193700981743" lon="0.9727723550811107"><ele>127.20000000000002</ele><time>2026-03-30T16:43:51.998Z</time></trkpt><trkpt lat="49.31188064673804" lon="0.9729005099525925"><ele>126.8</ele><time>2026-03-30T16:43:52.998Z</time></trkpt><trkpt lat="49.31181292000708" lon="0.9730563569139306"><ele>126.4</ele><time>2026-03-30T16:43:53.998Z</time></trkpt><trkpt lat="49.31175101300782" lon="0.9732125303828895"><ele>126.0</ele><time>2026-03-30T16:43:54.998Z</time></trkpt><trkpt lat="49.31169454437621" lon="0.9733554429766379"><ele>125.66666666666667</ele><time>2026-03-30T16:43:55.998Z</time></trkpt><trkpt lat="49.31165196755711" lon="0.97347481459983"><ele>125.33333333333334</ele><time>2026-03-30T16:43:56.998Z</time></trkpt><trkpt lat="49.31160365801844" lon="0.9735976862608969"><ele>125.0</ele><time>2026-03-30T16:43:57.998Z</time></trkpt><trkpt lat="49.311557610395674" lon="0.973723800765455"><ele>124.66666666666667</ele><time>2026-03-30T16:43:58.998Z</time></trkpt><trkpt lat="49.31151629673876" lon="0.9738396551769808"><ele>124.33333333333334</ele><time>2026-03-30T16:43:59.998Z</time></trkpt><trkpt lat="49.311474956354154" lon="0.9739366023971304"><ele>124.0</ele><time>2026-03-30T16:44:00.998Z</time></trkpt><trkpt lat="49.31144597461932" lon="0.9740415879997805"><ele>124.0</ele><time>2026-03-30T16:44:01.998Z</time></trkpt><trkpt lat="49.311409040068455" lon="0.9741441186957754"><ele>124.0</ele><time>2026-03-30T16:44:02.998Z</time></trkpt><trkpt lat="49.311349408570045" lon="0.9742835709841309"><ele>124.0</ele><time>2026-03-30T16:44:03.998Z</time></trkpt><trkpt lat="49.31127070509848" lon="0.974492543259979"><ele>124.0</ele><time>2026-03-30T16:44:04.998Z</time></trkpt><trkpt lat="49.31118732042474" lon="0.9747053196203812"><ele>122.2</ele><time>2026-03-30T16:44:06Z</time></trkpt><trkpt lat="49.311121894812224" lon="0.9748898268036468"><ele>120.4</ele><time>2026-03-30T16:44:07Z</time></trkpt><trkpt lat="49.31107233114831" lon="0.9750230669471491"><ele>118.6</ele><time>2026-03-30T16:44:08Z</time></trkpt><trkpt lat="49.31103845770619" lon="0.975117769551076"><ele>116.8</ele><time>2026-03-30T16:44:09Z</time></trkpt><trkpt lat="49.310991020724494" lon="0.9752253969075043"><ele>115.0</ele><time>2026-03-30T16:44:10Z</time></trkpt><trkpt lat="49.31095276273667" lon="0.9753430350773636"><ele>112.66666666666667</ele><time>2026-03-30T16:44:11Z</time></trkpt><trkpt lat="49.31092015769971" lon="0.9754624837548328"><ele>110.33333333333334</ele><time>2026-03-30T16:44:12Z</time></trkpt><trkpt lat="49.310873053977595" lon="0.9755764420916974"><ele>108.0</ele><time>2026-03-30T16:44:13Z</time></trkpt><trkpt lat="49.31083105030323" lon="0.9756779999864347"><ele>105.66666666666666</ele><time>2026-03-30T16:44:14Z</time></trkpt><trkpt lat="49.3108006756974" lon="0.9757749271547732"><ele>103.33333333333333</ele><time>2026-03-30T16:44:15Z</time></trkpt><trkpt lat="49.31076479547857" lon="0.9758828506578326"><ele>101.0</ele><time>2026-03-30T16:44:16Z</time></trkpt><trkpt lat="49.310707585305835" lon="0.9760237673393074"><ele>98.0</ele><time>2026-03-30T16:44:17Z</time></trkpt><trkpt lat="49.310649743975326" lon="0.9761750535205413"><ele>95.0</ele><time>2026-03-30T16:44:18Z</time></trkpt><trkpt lat="49.31058857501318" lon="0.9763197049754296"><ele>92.0</ele><time>2026-03-30T16:44:19Z</time></trkpt><trkpt lat="49.3105196528048" lon="0.9764850984471563"><ele>89.0</ele><time>2026-03-30T16:44:20Z</time></trkpt><trkpt lat="49.31045140616071" lon="0.9766483781534767"><ele>89.25</ele><time>2026-03-30T16:44:21Z</time></trkpt><trkpt lat="49.31038683991635" lon="0.9768270922811041"><ele>89.5</ele><time>2026-03-30T16:44:22Z</time></trkpt><trkpt lat="49.310315053102734" lon="0.9769925258975575"><ele>89.75</ele><time>2026-03-30T16:44:23Z</time></trkpt><trkpt lat="49.31025105596555" lon="0.9771683236789129"><ele>90.0</ele><time>2026-03-30T16:44:24Z</time></trkpt><trkpt lat="49.31018703732195" lon="0.9773204781624958"><ele>90.0</ele><time>2026-03-30T16:44:25Z</time></trkpt><trkpt lat="49.310124789400966" lon="0.9774526379446293"><ele>90.0</ele><time>2026-03-30T16:44:26Z</time></trkpt><trkpt lat="49.31008012267258" lon="0.9775741543158674"><ele>90.0</ele><time>2026-03-30T16:44:27Z</time></trkpt><trkpt lat="49.310017669266735" lon="0.9777254808780649"><ele>90.0</ele><time>2026-03-30T16:44:28Z</time></trkpt><trkpt lat="49.309956395414915" lon="0.9779009334793469"><ele>90.0</ele><time>2026-03-30T16:44:29Z</time></trkpt><trkpt lat="49.30988568106128" lon="0.9780668117588054"><ele>92.8</ele><time>2026-03-30T16:44:30Z</time></trkpt><trkpt lat="49.309825972083985" lon="0.978196790398374"><ele>95.6</ele><time>2026-03-30T16:44:31Z</time></trkpt><trkpt lat="49.309795595947264" lon="0.9783054134488515"><ele>98.4</ele><time>2026-03-30T16:44:32Z</time></trkpt><trkpt lat="49.309739058755355" lon="0.9784333938765588"><ele>101.2</ele><time>2026-03-30T16:44:33Z</time></trkpt><trkpt lat="49.3096805430578" lon="0.9785790382568329"><ele>104.0</ele><time>2026-03-30T16:44:34Z</time></trkpt><trkpt lat="49.309636083707176" lon="0.9786902771661026"><ele>103.99999999999999</ele><time>2026-03-30T16:44:35Z</time></trkpt><trkpt lat="49.3095859062177" lon="0.9787950678818548"><ele>104.0</ele><time>2026-03-30T16:44:37Z</time></trkpt><trkpt lat="49.30962720882907" lon="0.9787102656954308"><ele>104.0</ele><time>2026-03-30T16:46:20Z</time></trkpt><trkpt lat="49.30964745188305" lon="0.9786064512927675"><ele>104.0</ele><time>2026-03-30T16:46:30Z</time></trkpt><trkpt lat="49.30969401205792" lon="0.9784944529123516"><ele>103.99999999999999</ele><time>2026-03-30T16:46:32Z</time></trkpt><trkpt lat="49.309745888337176" lon="0.9783503823296874"><ele>104.0</ele><time>2026-03-30T16:46:34Z</time></trkpt><trkpt lat="49.309803778927424" lon="0.978206266872483"><ele>104.0</ele><time>2026-03-30T16:46:36Z</time></trkpt><trkpt lat="49.30986083088072" lon="0.9780698673159458"><ele>104.0</ele><time>2026-03-30T16:46:38Z</time></trkpt><trkpt lat="49.309909792653" lon="0.9779549382138463"><ele>104.0</ele><time>2026-03-30T16:46:40Z</time></trkpt><trkpt lat="49.30996358232281" lon="0.9778097411984793"><ele>104.0</ele><time>2026-03-30T16:46:42Z</time></trkpt><trkpt lat="49.310022215942595" lon="0.9776149414808724"><ele>104.0</ele><time>2026-03-30T16:46:44Z</time></trkpt><trkpt lat="49.310052487527976" lon="0.9775157735315341"><ele>101.2</ele><time>2026-03-30T16:46:45Z</time></trkpt><trkpt lat="49.310103195151825" lon="0.9773766587825166"><ele>98.4</ele><time>2026-03-30T16:46:47Z</time></trkpt><trkpt lat="49.310186123005096" lon="0.9772238921325863"><ele>95.6</ele><time>2026-03-30T16:46:49Z</time></trkpt><trkpt lat="49.31023475109949" lon="0.9771359433451384"><ele>92.8</ele><time>2026-03-30T16:46:50Z</time></trkpt><trkpt lat="49.310270909981156" lon="0.9770382603544191"><ele>90.0</ele><time>2026-03-30T16:46:51Z</time></trkpt><trkpt lat="49.310315290108555" lon="0.9769182572649452"><ele>90.0</ele><time>2026-03-30T16:46:52Z</time></trkpt><trkpt lat="49.310381995028884" lon="0.976756135853568"><ele>90.0</ele><time>2026-03-30T16:46:53Z</time></trkpt><trkpt lat="49.31045195835129" lon="0.9765971346849361"><ele>90.0</ele><time>2026-03-30T16:46:54Z</time></trkpt><trkpt lat="49.31052581483576" lon="0.9764338891566656"><ele>90.0</ele><time>2026-03-30T16:46:55Z</time></trkpt><trkpt lat="49.31059801694535" lon="0.9762459690723843"><ele>89.75</ele><time>2026-03-30T16:46:56Z</time></trkpt><trkpt lat="49.31066562910184" lon="0.9760417510699428"><ele>89.5</ele><time>2026-03-30T16:46:57Z</time></trkpt><trkpt lat="49.31073801612974" lon="0.9758669116704553"><ele>89.25</ele><time>2026-03-30T16:46:58Z</time></trkpt><trkpt lat="49.31079582010803" lon="0.9757103769552913"><ele>89.0</ele><time>2026-03-30T16:46:59Z</time></trkpt><trkpt lat="49.31086028314532" lon="0.9755344767248486"><ele>92.0</ele><time>2026-03-30T16:47:00Z</time></trkpt><trkpt lat="49.310917253852985" lon="0.9753499572211228"><ele>95.0</ele><time>2026-03-30T16:47:01Z</time></trkpt><trkpt lat="49.31099863670384" lon="0.9751427005074572"><ele>98.0</ele><time>2026-03-30T16:47:02Z</time></trkpt><trkpt lat="49.311071465439504" lon="0.974935762820116"><ele>101.0</ele><time>2026-03-30T16:47:03Z</time></trkpt><trkpt lat="49.311156236332835" lon="0.9747066381202342"><ele>105.66666666666666</ele><time>2026-03-30T16:47:03.999Z</time></trkpt><trkpt lat="49.311258043508424" lon="0.9744608072161022"><ele>110.33333333333334</ele><time>2026-03-30T16:47:04.999Z</time></trkpt><trkpt lat="49.31136742284622" lon="0.9742348900187797"><ele>115.0</ele><time>2026-03-30T16:47:05.999Z</time></trkpt><trkpt lat="49.31143896694486" lon="0.9740564100654001"><ele>116.8</ele><time>2026-03-30T16:47:06.999Z</time></trkpt><trkpt lat="49.31149619399976" lon="0.9739089836483364"><ele>118.6</ele><time>2026-03-30T16:47:07.999Z</time></trkpt><trkpt lat="49.31154331087154" lon="0.9737856408346525"><ele>120.4</ele><time>2026-03-30T16:47:08.999Z</time></trkpt><trkpt lat="49.311578285210516" lon="0.9736822242578186"><ele>122.2</ele><time>2026-03-30T16:47:09.999Z</time></trkpt><trkpt lat="49.31163941343702" lon="0.9735386208119206"><ele>124.0</ele><time>2026-03-30T16:47:11.999Z</time></trkpt><trkpt lat="49.31167374186105" lon="0.9734451007831982"><ele>124.00000000000001</ele><time>2026-03-30T16:47:13.999Z</time></trkpt><trkpt lat="49.311719455008515" lon="0.9733426244422755"><ele>124.0</ele><time>2026-03-30T16:47:15.999Z</time></trkpt><trkpt lat="49.31172355475025" lon="0.9732094421613525"><ele>124.0</ele><time>2026-03-30T16:47:17.999Z</time></trkpt><trkpt lat="49.311660550265486" lon="0.9732170479956284"><ele>124.0</ele><time>2026-03-30T16:47:20.999Z</time></trkpt><trkpt lat="49.311640836294366" lon="0.9733103461793818"><ele>124.00000000000001</ele><time>2026-03-30T16:47:22.999Z</time></trkpt><trkpt lat="49.31163437528792" lon="0.973413339903103"><ele>124.0</ele><time>2026-03-30T16:47:24.999Z</time></trkpt><trkpt lat="49.31160889798306" lon="0.9735696262861592"><ele>124.0</ele><time>2026-03-30T16:47:26.999Z</time></trkpt><trkpt lat="49.31166407180101" lon="0.9736215160845227"><ele>124.0</ele><time>2026-03-30T16:47:29.999Z</time></trkpt><trkpt lat="49.3116762267959" lon="0.9734299534357553"><ele>124.0</ele><time>2026-03-30T16:47:31.999Z</time></trkpt><trkpt lat="49.31169894942886" lon="0.9733165459081904"><ele>124.0</ele><time>2026-03-30T16:47:32.999Z</time></trkpt><trkpt lat="49.311747629301266" lon="0.9731293219347613"><ele>124.0</ele><time>2026-03-30T16:47:34.999Z</time></trkpt><trkpt lat="49.31178146762929" lon="0.9729762791407284"><ele>124.5</ele><time>2026-03-30T16:47:35.999Z</time></trkpt><trkpt lat="49.311839931668985" lon="0.9727774886011328"><ele>125.0</ele><time>2026-03-30T16:47:36.999Z</time></trkpt><trkpt lat="49.31191813006934" lon="0.972572644174284"><ele>125.5</ele><time>2026-03-30T16:47:37.999Z</time></trkpt><trkpt lat="49.31198891123615" lon="0.9724162997583783"><ele>126.0</ele><time>2026-03-30T16:47:38.999Z</time></trkpt><trkpt lat="49.312066303508374" lon="0.9722888166725252"><ele>126.5</ele><time>2026-03-30T16:47:39.999Z</time></trkpt><trkpt lat="49.31215023627582" lon="0.9721881610351131"><ele>127.0</ele><time>2026-03-30T16:47:40.999Z</time></trkpt><trkpt lat="49.312242371083634" lon="0.9720655921640534"><ele>127.5</ele><time>2026-03-30T16:47:41.999Z</time></trkpt><trkpt lat="49.31235012662612" lon="0.9719084178143792"><ele>128.0</ele><time>2026-03-30T16:47:42.999Z</time></trkpt><trkpt lat="49.31245572157919" lon="0.9717469174161202"><ele>127.66666666666666</ele><time>2026-03-30T16:47:43.999Z</time></trkpt><trkpt lat="49.31261780641793" lon="0.9715935570360322"><ele>127.33333333333334</ele><time>2026-03-30T16:47:44.999Z</time></trkpt><trkpt lat="49.31275322407089" lon="0.9714125130115455"><ele>127.0</ele><time>2026-03-30T16:47:45.999Z</time></trkpt><trkpt lat="49.312863233059" lon="0.9712712734582335"><ele>127.0</ele><time>2026-03-30T16:47:46.999Z</time></trkpt><trkpt lat="49.31295377186011" lon="0.9711514315033427"><ele>127.0</ele><time>2026-03-30T16:47:47.999Z</time></trkpt><trkpt lat="49.31306411020447" lon="0.9710089140810153"><ele>127.0</ele><time>2026-03-30T16:47:48.999Z</time></trkpt><trkpt lat="49.31316972083987" lon="0.9708693737464585"><ele>127.0</ele><time>2026-03-30T16:47:49.999Z</time></trkpt><trkpt lat="49.313283167003746" lon="0.9707177813707286"><ele>126.66666666666667</ele><time>2026-03-30T16:47:50.999Z</time></trkpt><trkpt lat="49.31338724607987" lon="0.9705744580840875"><ele>126.33333333333334</ele><time>2026-03-30T16:47:51.999Z</time></trkpt><trkpt lat="49.313514542193" lon="0.9704185919049589"><ele>126.0</ele><time>2026-03-30T16:47:52.999Z</time></trkpt><trkpt lat="49.31363645741741" lon="0.9702615399422716"><ele>126.0</ele><time>2026-03-30T16:47:53.999Z</time></trkpt><trkpt lat="49.31372341639441" lon="0.9701277077574003"><ele>126.0</ele><time>2026-03-30T16:47:54.999Z</time></trkpt><trkpt lat="49.313826797756754" lon="0.9699988147175238"><ele>126.0</ele><time>2026-03-30T16:47:55.999Z</time></trkpt><trkpt lat="49.31391292858273" lon="0.9698854081625454"><ele>126.0</ele><time>2026-03-30T16:47:56.999Z</time></trkpt><trkpt lat="49.313981757749495" lon="0.9697840323657455"><ele>125.5</ele><time>2026-03-30T16:47:57.998Z</time></trkpt><trkpt lat="49.314044313287575" lon="0.9697050118726446"><ele>125.0</ele><time>2026-03-30T16:47:58.998Z</time></trkpt><trkpt lat="49.31410153928969" lon="0.9696296175205198"><ele>124.5</ele><time>2026-03-30T16:47:59.998Z</time></trkpt><trkpt lat="49.31416142342736" lon="0.9695468868691837"><ele>124.0</ele><time>2026-03-30T16:48:00.998Z</time></trkpt><trkpt lat="49.31422965893086" lon="0.9694311593151609"><ele>123.5</ele><time>2026-03-30T16:48:01.998Z</time></trkpt><trkpt lat="49.31428230553859" lon="0.9693315708080957"><ele>123.0</ele><time>2026-03-30T16:48:02.998Z</time></trkpt><trkpt lat="49.3143600823898" lon="0.9692348393245076"><ele>123.0</ele><time>2026-03-30T16:48:03.998Z</time></trkpt><trkpt lat="49.314431134187835" lon="0.9691362056384496"><ele>123.00000000000001</ele><time>2026-03-30T16:48:04.998Z</time></trkpt><trkpt lat="49.31449878547025" lon="0.9690376877607888"><ele>123.00000000000001</ele><time>2026-03-30T16:48:05.998Z</time></trkpt><trkpt lat="49.314558794631786" lon="0.9689535484900178"><ele>123.0</ele><time>2026-03-30T16:48:06.998Z</time></trkpt><trkpt lat="49.31462812021925" lon="0.9688606678399687"><ele>123.0</ele><time>2026-03-30T16:48:07.998Z</time></trkpt><trkpt lat="49.31469921959723" lon="0.9687685464224305"><ele>121.85714285714288</ele><time>2026-03-30T16:48:08.998Z</time></trkpt><trkpt lat="49.31476970011638" lon="0.9686854283570255"><ele>120.71428571428572</ele><time>2026-03-30T16:48:09.998Z</time></trkpt><trkpt lat="49.31482574976224" lon="0.9686054502204594"><ele>119.57142857142857</ele><time>2026-03-30T16:48:10.998Z</time></trkpt><trkpt lat="49.31487565555089" lon="0.9685242701086816"><ele>118.42857142857143</ele><time>2026-03-30T16:48:11.998Z</time></trkpt><trkpt lat="49.31492437237231" lon="0.9684490413965324"><ele>117.28571428571428</ele><time>2026-03-30T16:48:12.998Z</time></trkpt><trkpt lat="49.31497306063018" lon="0.968386410296924"><ele>116.14285714285712</ele><time>2026-03-30T16:48:13.998Z</time></trkpt><trkpt lat="49.31502178925005" lon="0.9683163130362581"><ele>114.99999999999999</ele><time>2026-03-30T16:48:14.998Z</time></trkpt><trkpt lat="49.31511156425333" lon="0.9682028973171125"><ele>114.66666666666667</ele><time>2026-03-30T16:48:17Z</time></trkpt><trkpt lat="49.315197679929014" lon="0.9680816478341141"><ele>114.33333333333334</ele><time>2026-03-30T16:48:19Z</time></trkpt><trkpt lat="49.315271756886965" lon="0.967970040291852"><ele>114.0</ele><time>2026-03-30T16:48:21Z</time></trkpt><trkpt lat="49.31532915339746" lon="0.9678977048637971"><ele>113.66666666666666</ele><time>2026-03-30T16:48:23Z</time></trkpt><trkpt lat="49.3153772831812" lon="0.9678336056588039"><ele>113.33333333333333</ele><time>2026-03-30T16:48:25Z</time></trkpt><trkpt lat="49.315428019410575" lon="0.9677424745869673"><ele>113.0</ele><time>2026-03-30T16:48:29Z</time></trkpt><trkpt lat="49.315462929281374" lon="0.9676520479592359"><ele>112.99999999999999</ele><time>2026-03-30T16:48:32Z</time></trkpt><trkpt lat="49.31551302315203" lon="0.9675784454751748"><ele>113.0</ele><time>2026-03-30T16:48:34Z</time></trkpt><trkpt lat="49.31554956390473" lon="0.9674994293344091"><ele>113.0</ele><time>2026-03-30T16:48:35Z</time></trkpt><trkpt lat="49.31560909441334" lon="0.9674205894498049"><ele>113.0</ele><time>2026-03-30T16:48:37Z</time></trkpt><trkpt lat="49.315685756113446" lon="0.9673320166762681"><ele>112.99999999999999</ele><time>2026-03-30T16:48:38Z</time></trkpt><trkpt lat="49.31573587078842" lon="0.9672666853808826"><ele>113.0</ele><time>2026-03-30T16:48:39Z</time></trkpt><trkpt lat="49.31581280565294" lon="0.9671679938803481"><ele>110.0</ele><time>2026-03-30T16:48:41Z</time></trkpt><trkpt lat="49.31590566363052" lon="0.967042008135695"><ele>107.00000000000001</ele><time>2026-03-30T16:48:43Z</time></trkpt><trkpt lat="49.31599428260022" lon="0.9669239106592887"><ele>104.0</ele><time>2026-03-30T16:48:45Z</time></trkpt><trkpt lat="49.31605626504606" lon="0.9668090835540676"><ele>101.0</ele><time>2026-03-30T16:48:47Z</time></trkpt><trkpt lat="49.31611963288351" lon="0.9667564514266823"><ele>98.0</ele><time>2026-03-30T16:48:49Z</time></trkpt><trkpt lat="49.31619837408904" lon="0.966692400602147"><ele>98.0</ele><time>2026-03-30T16:48:51Z</time></trkpt><trkpt lat="49.31624510288771" lon="0.9666073140175386"><ele>98.0</ele><time>2026-03-30T16:48:53Z</time></trkpt><trkpt lat="49.31626787950542" lon="0.9665117588582179"><ele>98.0</ele><time>2026-03-30T16:48:55Z</time></trkpt><trkpt lat="49.31632667405164" lon="0.966468311604461"><ele>98.0</ele><time>2026-03-30T16:48:56Z</time></trkpt><trkpt lat="49.316386705380026" lon="0.9663814653872234"><ele>98.0</ele><time>2026-03-30T16:48:58Z</time></trkpt><trkpt lat="49.31642936550875" lon="0.9663073392824182"><ele>98.0</ele><time>2026-03-30T16:49:00Z</time></trkpt><trkpt lat="49.316495682923616" lon="0.9662472640683977"><ele>98.0</ele><time>2026-03-30T16:49:02Z</time></trkpt><trkpt lat="49.31675139245045" lon="0.9659960720508955"><ele>101.2</ele><time>2026-03-30T16:49:04Z</time></trkpt><trkpt lat="49.316807217634334" lon="0.965833373740255"><ele>104.4</ele><time>2026-03-30T16:49:05.999Z</time></trkpt><trkpt lat="49.31688938523583" lon="0.9657864513344859"><ele>107.60000000000001</ele><time>2026-03-30T16:49:07.999Z</time></trkpt><trkpt lat="49.316995204191635" lon="0.9657668235747826"><ele>110.80000000000001</ele><time>2026-03-30T16:49:09.999Z</time></trkpt><trkpt lat="49.3170755534821" lon="0.9657454885842813"><ele>114.0</ele><time>2026-03-30T16:49:10.999Z</time></trkpt><trkpt lat="49.31717148194482" lon="0.9657071745949775"><ele>114.0</ele><time>2026-03-30T16:49:12.999Z</time></trkpt><trkpt lat="49.317238311438565" lon="0.9657376720271382"><ele>114.0</ele><time>2026-03-30T16:49:14.999Z</time></trkpt><trkpt lat="49.31730759133818" lon="0.9658711865736282"><ele>114.0</ele><time>2026-03-30T16:49:16.999Z</time></trkpt><trkpt lat="49.317359982669856" lon="0.9659580833598018"><ele>114.0</ele><time>2026-03-30T16:49:17.999Z</time></trkpt><trkpt lat="49.31742166076639" lon="0.966057988228904"><ele>114.0</ele><time>2026-03-30T16:49:18.999Z</time></trkpt><trkpt lat="49.31752794310953" lon="0.96619871030141"><ele>114.2</ele><time>2026-03-30T16:49:19.999Z</time></trkpt><trkpt lat="49.31761555641441" lon="0.9663110096095399"><ele>114.4</ele><time>2026-03-30T16:49:20.999Z</time></trkpt><trkpt lat="49.317685517161955" lon="0.9663972647970827"><ele>114.6</ele><time>2026-03-30T16:49:21.999Z</time></trkpt><trkpt lat="49.317718492044186" lon="0.9664868688083558"><ele>114.8</ele><time>2026-03-30T16:49:22.999Z</time></trkpt><trkpt lat="49.31780292302412" lon="0.966593321440093"><ele>115.0</ele><time>2026-03-30T16:49:24.999Z</time></trkpt><trkpt lat="49.31786059064307" lon="0.966668089748899"><ele>114.2</ele><time>2026-03-30T16:49:26.999Z</time></trkpt><trkpt lat="49.31793084705469" lon="0.9667371745264517"><ele>113.4</ele><time>2026-03-30T16:49:31.999Z</time></trkpt><trkpt lat="49.317967554811794" lon="0.9668638628324665"><ele>112.6</ele><time>2026-03-30T16:49:53.999Z</time></trkpt><trkpt lat="49.318030416964625" lon="0.9669310894615415"><ele>111.8</ele><time>2026-03-30T16:49:54.999Z</time></trkpt><trkpt lat="49.31811228029288" lon="0.9670196515004122"><ele>111.0</ele><time>2026-03-30T16:49:55.999Z</time></trkpt><trkpt lat="49.3181939547157" lon="0.9671316816433531"><ele>111.0</ele><time>2026-03-30T16:49:56.999Z</time></trkpt><trkpt lat="49.3182745564572" lon="0.9672354797433437"><ele>111.0</ele><time>2026-03-30T16:49:57.999Z</time></trkpt><trkpt lat="49.31837184145471" lon="0.9673801197185181"><ele>111.0</ele><time>2026-03-30T16:49:58.998Z</time></trkpt><trkpt lat="49.318456323552425" lon="0.967520530202001"><ele>111.0</ele><time>2026-03-30T16:49:59.998Z</time></trkpt><trkpt lat="49.31853142603435" lon="0.9676118190802026"><ele>109.4</ele><time>2026-03-30T16:50:00.998Z</time></trkpt><trkpt lat="49.31859287234671" lon="0.9676935610213031"><ele>107.8</ele><time>2026-03-30T16:50:01.998Z</time></trkpt><trkpt lat="49.318639634006125" lon="0.9677901740839813"><ele>106.2</ele><time>2026-03-30T16:50:02.998Z</time></trkpt><trkpt lat="49.31868688557712" lon="0.9678719021829308"><ele>104.60000000000001</ele><time>2026-03-30T16:50:03.998Z</time></trkpt><trkpt lat="49.318756826078754" lon="0.9680249844050095"><ele>103.0</ele><time>2026-03-30T16:50:05.998Z</time></trkpt><trkpt lat="49.31882224157108" lon="0.968158097981144"><ele>103.0</ele><time>2026-03-30T16:50:07.998Z</time></trkpt><trkpt lat="49.31888245761867" lon="0.9682867828558446"><ele>103.0</ele><time>2026-03-30T16:50:09.998Z</time></trkpt><trkpt lat="49.3189220126732" lon="0.9684358375375074"><ele>103.0</ele><time>2026-03-30T16:50:11.998Z</time></trkpt><trkpt lat="49.31896589591665" lon="0.9685510704188742"><ele>103.0</ele><time>2026-03-30T16:50:13.998Z</time></trkpt><trkpt lat="49.31904316161153" lon="0.9685298477490326"><ele>103.0</ele><time>2026-03-30T16:50:16.998Z</time></trkpt><trkpt lat="49.319116333841855" lon="0.9684677426427244"><ele>102.00000000000001</ele><time>2026-03-30T16:50:17.998Z</time></trkpt><trkpt lat="49.31919912453445" lon="0.9683974770475542"><ele>101.0</ele><time>2026-03-30T16:50:18.998Z</time></trkpt><trkpt lat="49.319281165247325" lon="0.9683378705324232"><ele>100.0</ele><time>2026-03-30T16:50:20.998Z</time></trkpt><trkpt lat="49.319384485968435" lon="0.9683282302067534"><ele>99.0</ele><time>2026-03-30T16:50:23Z</time></trkpt><trkpt lat="49.31944350077138" lon="0.9682742584068177"><ele>98.00000000000001</ele><time>2026-03-30T16:50:24Z</time></trkpt><trkpt lat="49.31949787765899" lon="0.9682087947421644"><ele>97.0</ele><time>2026-03-30T16:50:25Z</time></trkpt><trkpt lat="49.31955068710683" lon="0.9681218128684302"><ele>97.00000000000001</ele><time>2026-03-30T16:50:26Z</time></trkpt><trkpt lat="49.31960873824337" lon="0.968041825604803"><ele>97.0</ele><time>2026-03-30T16:50:27Z</time></trkpt><trkpt lat="49.319667884686176" lon="0.9679518388579739"><ele>97.0</ele><time>2026-03-30T16:50:28Z</time></trkpt><trkpt lat="49.31972546786294" lon="0.9678819354750778"><ele>97.0</ele><time>2026-03-30T16:50:29Z</time></trkpt><trkpt lat="49.3197803716419" lon="0.9678265709352684"><ele>97.00000000000001</ele><time>2026-03-30T16:50:30Z</time></trkpt><trkpt lat="49.31989768996893" lon="0.9677514306785268"><ele>97.0</ele><time>2026-03-30T16:50:32Z</time></trkpt><trkpt lat="49.319995458977644" lon="0.967651350674965"><ele>95.6</ele><time>2026-03-30T16:50:34Z</time></trkpt><trkpt lat="49.320101426759855" lon="0.9675767208657462"><ele>94.19999999999999</ele><time>2026-03-30T16:50:36Z</time></trkpt><trkpt lat="49.32018947367283" lon="0.9674775523756836"><ele>92.8</ele><time>2026-03-30T16:50:38Z</time></trkpt><trkpt lat="49.320265134334456" lon="0.9674344040764887"><ele>91.4</ele><time>2026-03-30T16:50:40Z</time></trkpt><trkpt lat="49.32033937894967" lon="0.9673556120478384"><ele>90.0</ele><time>2026-03-30T16:50:42Z</time></trkpt><trkpt lat="49.320430870007506" lon="0.9672358309650667"><ele>90.0</ele><time>2026-03-30T16:50:44Z</time></trkpt><trkpt lat="49.32050076787096" lon="0.9671252943784978"><ele>90.0</ele><time>2026-03-30T16:50:46Z</time></trkpt><trkpt lat="49.32058186353587" lon="0.9670633302050758"><ele>90.0</ele><time>2026-03-30T16:50:48Z</time></trkpt><trkpt lat="49.32070607639401" lon="0.9669637768203178"><ele>90.0</ele><time>2026-03-30T16:50:50Z</time></trkpt><trkpt lat="49.320772812778735" lon="0.966920813500743"><ele>90.0</ele><time>2026-03-30T16:50:51Z</time></trkpt><trkpt lat="49.32084463772871" lon="0.9668407408137757"><ele>86.2</ele><time>2026-03-30T16:50:53Z</time></trkpt><trkpt lat="49.32091104079765" lon="0.9667660307237482"><ele>82.4</ele><time>2026-03-30T16:50:55Z</time></trkpt><trkpt lat="49.3209909709853" lon="0.9666865300780398"><ele>78.6</ele><time>2026-03-30T16:50:57Z</time></trkpt><trkpt lat="49.321071240352566" lon="0.9666154022773846"><ele>74.8</ele><time>2026-03-30T16:50:59Z</time></trkpt><trkpt lat="49.32115662516838" lon="0.9665514671811302"><ele>71.0</ele><time>2026-03-30T16:51:01Z</time></trkpt><trkpt lat="49.321257670310125" lon="0.9664890136624995"><ele>71.0</ele><time>2026-03-30T16:51:03Z</time></trkpt><trkpt lat="49.3213616142112" lon="0.9664023393753272"><ele>71.0</ele><time>2026-03-30T16:51:05Z</time></trkpt><trkpt lat="49.32141140945489" lon="0.9663408822705616"><ele>71.0</ele><time>2026-03-30T16:51:05.999Z</time></trkpt><trkpt lat="49.321461819288686" lon="0.966271496291292"><ele>71.0</ele><time>2026-03-30T16:51:06.999Z</time></trkpt><trkpt lat="49.321563379307854" lon="0.9662069131840247"><ele>71.0</ele><time>2026-03-30T16:51:08.999Z</time></trkpt><trkpt lat="49.32164620366413" lon="0.9661341833071899"><ele>70.66666666666667</ele><time>2026-03-30T16:51:10.999Z</time></trkpt><trkpt lat="49.32163997141791" lon="0.9659806604026322"><ele>70.33333333333334</ele><time>2026-03-30T16:51:12.999Z</time></trkpt><trkpt lat="49.32163984937714" lon="0.9658748709207824"><ele>70.0</ele><time>2026-03-30T16:51:13.999Z</time></trkpt><trkpt lat="49.321637190815096" lon="0.9657653579470237"><ele>69.66666666666667</ele><time>2026-03-30T16:51:14.999Z</time></trkpt><trkpt lat="49.32163026372636" lon="0.965643578168441"><ele>69.33333333333333</ele><time>2026-03-30T16:51:15.999Z</time></trkpt><trkpt lat="49.321624665438705" lon="0.9655105655915128"><ele>69.0</ele><time>2026-03-30T16:51:16.999Z</time></trkpt><trkpt lat="49.32162849380931" lon="0.9653679045308464"><ele>69.0</ele><time>2026-03-30T16:51:17.999Z</time></trkpt><trkpt lat="49.32162203571806" lon="0.9652235042945805"><ele>69.0</ele><time>2026-03-30T16:51:18.999Z</time></trkpt><trkpt lat="49.32162543013363" lon="0.9650956545611469"><ele>69.0</ele><time>2026-03-30T16:51:19.999Z</time></trkpt><trkpt lat="49.32164946088125" lon="0.9649702993006352"><ele>69.0</ele><time>2026-03-30T16:51:20.999Z</time></trkpt><trkpt lat="49.32167583915087" lon="0.9648431774341892"><ele>69.0</ele><time>2026-03-30T16:51:21.999Z</time></trkpt><trkpt lat="49.32169235282181" lon="0.964702570265478"><ele>69.0</ele><time>2026-03-30T16:51:22.999Z</time></trkpt><trkpt lat="49.32172915042568" lon="0.9645731448853045"><ele>68.8</ele><time>2026-03-30T16:51:23.999Z</time></trkpt><trkpt lat="49.321753438467105" lon="0.9644488418786104"><ele>68.60000000000001</ele><time>2026-03-30T16:51:24.999Z</time></trkpt><trkpt lat="49.32177224675943" lon="0.9643179676807703"><ele>68.4</ele><time>2026-03-30T16:51:25.999Z</time></trkpt><trkpt lat="49.32179344138907" lon="0.9641844394783772"><ele>68.2</ele><time>2026-03-30T16:51:26.999Z</time></trkpt><trkpt lat="49.321819019924355" lon="0.9640285783426713"><ele>68.0</ele><time>2026-03-30T16:51:27.999Z</time></trkpt><trkpt lat="49.32184627736062" lon="0.9638545856099598"><ele>67.75</ele><time>2026-03-30T16:51:28.999Z</time></trkpt><trkpt lat="49.32187593720432" lon="0.9636709730424748"><ele>67.5</ele><time>2026-03-30T16:51:29.999Z</time></trkpt><trkpt lat="49.32190447551032" lon="0.963501238311991"><ele>67.25</ele><time>2026-03-30T16:51:30.999Z</time></trkpt><trkpt lat="49.321931055312994" lon="0.9633284037538461"><ele>67.0</ele><time>2026-03-30T16:51:31.999Z</time></trkpt><trkpt lat="49.3219366812055" lon="0.9631385357624805"><ele>67.2</ele><time>2026-03-30T16:51:32.999Z</time></trkpt><trkpt lat="49.32194297627219" lon="0.962962036685456"><ele>67.4</ele><time>2026-03-30T16:51:33.999Z</time></trkpt><trkpt lat="49.321950635002196" lon="0.9628220659894988"><ele>67.6</ele><time>2026-03-30T16:51:34.999Z</time></trkpt><trkpt lat="49.32195430369213" lon="0.9626713092116751"><ele>67.8</ele><time>2026-03-30T16:51:35.999Z</time></trkpt><trkpt lat="49.32194354448667" lon="0.9625013570084552"><ele>68.0</ele><time>2026-03-30T16:51:36.999Z</time></trkpt><trkpt lat="49.32189293797971" lon="0.9622881754837774"><ele>68.0</ele><time>2026-03-30T16:51:37.999Z</time></trkpt><trkpt lat="49.321837894552075" lon="0.9620235659113471"><ele>68.0</ele><time>2026-03-30T16:51:38.999Z</time></trkpt><trkpt lat="49.32178356894647" lon="0.9617894314463682"><ele>68.0</ele><time>2026-03-30T16:51:39.999Z</time></trkpt><trkpt lat="49.321740056688796" lon="0.9615754295078045"><ele>68.6</ele><time>2026-03-30T16:51:40.999Z</time></trkpt><trkpt lat="49.321721205069146" lon="0.9613715138439666"><ele>69.19999999999999</ele><time>2026-03-30T16:51:41.999Z</time></trkpt><trkpt lat="49.3217074810576" lon="0.9611939369451152"><ele>69.8</ele><time>2026-03-30T16:51:42.999Z</time></trkpt><trkpt lat="49.321698329025224" lon="0.9610372461053689"><ele>70.39999999999999</ele><time>2026-03-30T16:51:43.999Z</time></trkpt><trkpt lat="49.321711092897644" lon="0.960891742809084"><ele>71.0</ele><time>2026-03-30T16:51:44.999Z</time></trkpt><trkpt lat="49.32170536348448" lon="0.9607627752961007"><ele>71.0</ele><time>2026-03-30T16:51:45.999Z</time></trkpt><trkpt lat="49.321692394581284" lon="0.9606524977854908"><ele>71.0</ele><time>2026-03-30T16:51:46.999Z</time></trkpt><trkpt lat="49.32167215112859" lon="0.9605575507650486"><ele>71.0</ele><time>2026-03-30T16:51:47.999Z</time></trkpt><trkpt lat="49.32168246278818" lon="0.9603942900914976"><ele>71.0</ele><time>2026-03-30T16:51:49.999Z</time></trkpt><trkpt lat="49.32176096536153" lon="0.9602563092377892"><ele>71.0</ele><time>2026-03-30T16:51:51.999Z</time></trkpt><trkpt lat="49.32182382460967" lon="0.9601657298805616"><ele>71.0</ele><time>2026-03-30T16:51:52.999Z</time></trkpt><trkpt lat="49.3218990497899" lon="0.9600546016937493"><ele>71.0</ele><time>2026-03-30T16:51:53.999Z</time></trkpt><trkpt lat="49.32198234022282" lon="0.9599421621420795"><ele>71.0</ele><time>2026-03-30T16:51:54.999Z</time></trkpt><trkpt lat="49.32206244974501" lon="0.9598516096362874"><ele>71.0</ele><time>2026-03-30T16:51:55.999Z</time></trkpt><trkpt lat="49.32212656928388" lon="0.9597668184406176"><ele>71.0</ele><time>2026-03-30T16:51:56.999Z</time></trkpt><trkpt lat="49.32222366362484" lon="0.959666489201414"><ele>72.0</ele><time>2026-03-30T16:51:57.999Z</time></trkpt><trkpt lat="49.32229638218353" lon="0.959552586757134"><ele>73.0</ele><time>2026-03-30T16:51:58.999Z</time></trkpt><trkpt lat="49.32238714287448" lon="0.9594493909971415"><ele>74.0</ele><time>2026-03-30T16:51:59.999Z</time></trkpt><trkpt lat="49.32246009779156" lon="0.9593425000228006"><ele>75.0</ele><time>2026-03-30T16:52:00.998Z</time></trkpt><trkpt lat="49.322513057122194" lon="0.9592146919841931"><ele>76.0</ele><time>2026-03-30T16:52:01.998Z</time></trkpt><trkpt lat="49.32257566878171" lon="0.9590890113614305"><ele>76.0</ele><time>2026-03-30T16:52:02.998Z</time></trkpt><trkpt lat="49.322628728358836" lon="0.958955886398288"><ele>76.0</ele><time>2026-03-30T16:52:03.998Z</time></trkpt><trkpt lat="49.32266937513891" lon="0.9588156962097557"><ele>76.0</ele><time>2026-03-30T16:52:04.998Z</time></trkpt><trkpt lat="49.322695062520104" lon="0.9586818733265035"><ele>76.0</ele><time>2026-03-30T16:52:05.998Z</time></trkpt><trkpt lat="49.32273570754822" lon="0.9585490503586025"><ele>76.0</ele><time>2026-03-30T16:52:06.998Z</time></trkpt><trkpt lat="49.3227787192942" lon="0.958434638865376"><ele>75.83333333333333</ele><time>2026-03-30T16:52:07.998Z</time></trkpt><trkpt lat="49.322816729404146" lon="0.9583296441730671"><ele>75.66666666666666</ele><time>2026-03-30T16:52:08.998Z</time></trkpt><trkpt lat="49.322838245838476" lon="0.9582375552576365"><ele>75.5</ele><time>2026-03-30T16:52:09.998Z</time></trkpt><trkpt lat="49.32286966684727" lon="0.9581356050727593"><ele>75.33333333333333</ele><time>2026-03-30T16:52:10.998Z</time></trkpt><trkpt lat="49.322873521639046" lon="0.9579767833287851"><ele>75.16666666666667</ele><time>2026-03-30T16:52:11.998Z</time></trkpt><trkpt lat="49.3228875196948" lon="0.9578270375599586"><ele>75.0</ele><time>2026-03-30T16:52:12.998Z</time></trkpt><trkpt lat="49.322897019704236" lon="0.9577141374052592"><ele>75.0</ele><time>2026-03-30T16:52:13.998Z</time></trkpt><trkpt lat="49.32289791036924" lon="0.9575825551958028"><ele>75.0</ele><time>2026-03-30T16:52:14.998Z</time></trkpt><trkpt lat="49.32292014555063" lon="0.9574601326036567"><ele>75.0</ele><time>2026-03-30T16:52:15.998Z</time></trkpt><trkpt lat="49.32293881199252" lon="0.9573363292878221"><ele>75.0</ele><time>2026-03-30T16:52:16.998Z</time></trkpt><trkpt lat="49.322967891397816" lon="0.957211990008283"><ele>75.0</ele><time>2026-03-30T16:52:17.998Z</time></trkpt><trkpt lat="49.32300021360183" lon="0.9571110978781641"><ele>75.0</ele><time>2026-03-30T16:52:18.998Z</time></trkpt><trkpt lat="49.32302804776845" lon="0.9569614485576344"><ele>77.8</ele><time>2026-03-30T16:52:19.998Z</time></trkpt><trkpt lat="49.32309209339009" lon="0.9568232794645302"><ele>80.6</ele><time>2026-03-30T16:52:20.998Z</time></trkpt><trkpt lat="49.323139071257415" lon="0.9567077969596703"><ele>83.4</ele><time>2026-03-30T16:52:21.998Z</time></trkpt><trkpt lat="49.323174252527295" lon="0.9565986380063362"><ele>86.2</ele><time>2026-03-30T16:52:22.998Z</time></trkpt><trkpt lat="49.323221707354676" lon="0.9564793539882556"><ele>89.0</ele><time>2026-03-30T16:52:23.998Z</time></trkpt><trkpt lat="49.32326317251004" lon="0.9563669122953316"><ele>89.0</ele><time>2026-03-30T16:52:24.998Z</time></trkpt><trkpt lat="49.323303089857205" lon="0.956269203805496"><ele>89.0</ele><time>2026-03-30T16:52:25.998Z</time></trkpt><trkpt lat="49.32334065531488" lon="0.9561484399702823"><ele>89.0</ele><time>2026-03-30T16:52:27Z</time></trkpt><trkpt lat="49.323363994584675" lon="0.9560160822562077"><ele>89.0</ele><time>2026-03-30T16:52:28Z</time></trkpt><trkpt lat="49.32339640074488" lon="0.9559082976398741"><ele>89.0</ele><time>2026-03-30T16:52:29Z</time></trkpt><trkpt lat="49.323420451392465" lon="0.9557466020363641"><ele>89.0</ele><time>2026-03-30T16:52:31Z</time></trkpt><trkpt lat="49.323439201882394" lon="0.955579039413994"><ele>88.66666666666667</ele><time>2026-03-30T16:52:33Z</time></trkpt><trkpt lat="49.32345509599219" lon="0.9554347551195438"><ele>88.33333333333334</ele><time>2026-03-30T16:52:34Z</time></trkpt><trkpt lat="49.323460252808225" lon="0.9552791701338089"><ele>88.0</ele><time>2026-03-30T16:52:35Z</time></trkpt><trkpt lat="49.323465446742276" lon="0.9551596937660614"><ele>87.66666666666667</ele><time>2026-03-30T16:52:36Z</time></trkpt><trkpt lat="49.32347045376277" lon="0.9549964581874779"><ele>87.33333333333333</ele><time>2026-03-30T16:52:38Z</time></trkpt><trkpt lat="49.323475670993986" lon="0.9548999048259014"><ele>87.0</ele><time>2026-03-30T16:52:40Z</time></trkpt><trkpt lat="49.32342597991155" lon="0.9549768176070462"><ele>87.0</ele><time>2026-03-30T16:52:45Z</time></trkpt><trkpt lat="49.323441112981186" lon="0.9550841559525918"><ele>87.0</ele><time>2026-03-30T16:52:47Z</time></trkpt><trkpt lat="49.323458620645894" lon="0.9551957604420204"><ele>87.0</ele><time>2026-03-30T16:52:48Z</time></trkpt><trkpt lat="49.323465149031875" lon="0.9553337134889414"><ele>87.0</ele><time>2026-03-30T16:52:49Z</time></trkpt><trkpt lat="49.32345875130869" lon="0.9554304028923499"><ele>87.0</ele><time>2026-03-30T16:52:50Z</time></trkpt><trkpt lat="49.323444922657416" lon="0.9555944827816455"><ele>87.0</ele><time>2026-03-30T16:52:52Z</time></trkpt><trkpt lat="49.32341771635366" lon="0.9557307718037935"><ele>87.0</ele><time>2026-03-30T16:52:54Z</time></trkpt><trkpt lat="49.32342805452982" lon="0.9558432076435057"><ele>87.0</ele><time>2026-03-30T16:52:56Z</time></trkpt><trkpt lat="49.323483678889076" lon="0.9559719616585645"><ele>87.0</ele><time>2026-03-30T16:52:58Z</time></trkpt><trkpt lat="49.323533790002664" lon="0.9561211809712896"><ele>87.0</ele><time>2026-03-30T16:53:00Z</time></trkpt><trkpt lat="49.323564772575786" lon="0.9562145378902153"><ele>87.0</ele><time>2026-03-30T16:53:01Z</time></trkpt><trkpt lat="49.323598756804124" lon="0.95630023309714"><ele>87.0</ele><time>2026-03-30T16:53:02Z</time></trkpt><trkpt lat="49.32364529991587" lon="0.9564680642788849"><ele>87.33333333333333</ele><time>2026-03-30T16:53:04Z</time></trkpt><trkpt lat="49.32367100760494" lon="0.9565679730558276"><ele>87.66666666666667</ele><time>2026-03-30T16:53:05Z</time></trkpt><trkpt lat="49.32370974892565" lon="0.9566771145280052"><ele>88.0</ele><time>2026-03-30T16:53:06Z</time></trkpt><trkpt lat="49.323743369947636" lon="0.9567949474495527"><ele>88.33333333333334</ele><time>2026-03-30T16:53:07Z</time></trkpt><trkpt lat="49.32376070963981" lon="0.956911915994611"><ele>88.66666666666667</ele><time>2026-03-30T16:53:08Z</time></trkpt><trkpt lat="49.32380822245881" lon="0.9570792707285899"><ele>89.0</ele><time>2026-03-30T16:53:09.999Z</time></trkpt><trkpt lat="49.32384258471047" lon="0.9571733699146412"><ele>93.83333333333334</ele><time>2026-03-30T16:53:10.999Z</time></trkpt><trkpt lat="49.323902299573824" lon="0.9573396223396005"><ele>98.66666666666667</ele><time>2026-03-30T16:53:12.999Z</time></trkpt><trkpt lat="49.32393263922148" lon="0.9574348770425976"><ele>103.5</ele><time>2026-03-30T16:53:13.999Z</time></trkpt><trkpt lat="49.32398027877746" lon="0.9575585546408556"><ele>108.33333333333334</ele><time>2026-03-30T16:53:14.999Z</time></trkpt><trkpt lat="49.32400696096221" lon="0.9576737181095192"><ele>113.16666666666667</ele><time>2026-03-30T16:53:15.999Z</time></trkpt><trkpt lat="49.32402845705023" lon="0.9577799057242468"><ele>118.0</ele><time>2026-03-30T16:53:16.999Z</time></trkpt><trkpt lat="49.32404818372419" lon="0.9579026222243315"><ele>118.66666666666667</ele><time>2026-03-30T16:53:17.999Z</time></trkpt><trkpt lat="49.32408543540358" lon="0.9580271915018951"><ele>119.33333333333334</ele><time>2026-03-30T16:53:18.999Z</time></trkpt><trkpt lat="49.324131959708865" lon="0.9581416572770738"><ele>120.0</ele><time>2026-03-30T16:53:19.999Z</time></trkpt><trkpt lat="49.324165957192086" lon="0.9582596096653466"><ele>120.66666666666666</ele><time>2026-03-30T16:53:20.999Z</time></trkpt><trkpt lat="49.32419139578435" lon="0.9583660789713863"><ele>121.33333333333333</ele><time>2026-03-30T16:53:21.999Z</time></trkpt><trkpt lat="49.32422468793764" lon="0.9584781859973591"><ele>122.0</ele><time>2026-03-30T16:53:22.999Z</time></trkpt><trkpt lat="49.3242667279537" lon="0.9585677510725172"><ele>122.16666666666666</ele><time>2026-03-30T16:53:23.999Z</time></trkpt><trkpt lat="49.32430443573537" lon="0.9586536707533446"><ele>122.33333333333333</ele><time>2026-03-30T16:53:24.999Z</time></trkpt><trkpt lat="49.32434740647186" lon="0.9588322906387833"><ele>122.5</ele><time>2026-03-30T16:53:26.999Z</time></trkpt><trkpt lat="49.324382859097625" lon="0.958969957091109"><ele>122.66666666666666</ele><time>2026-03-30T16:53:28.999Z</time></trkpt><trkpt lat="49.32442575085713" lon="0.9590417132234943"><ele>122.83333333333333</ele><time>2026-03-30T16:53:30.999Z</time></trkpt><trkpt lat="49.32449180441808" lon="0.959015338119792"><ele>123.0</ele><time>2026-03-30T16:53:33.999Z</time></trkpt><trkpt lat="49.324487871678365" lon="0.9589006124930444"><ele>123.0</ele><time>2026-03-30T16:53:35.999Z</time></trkpt><trkpt lat="49.32450560749106" lon="0.9590187428056002"><ele>123.00000000000001</ele><time>2026-03-30T16:53:41.999Z</time></trkpt><trkpt lat="49.32454692994827" lon="0.9590935626228487"><ele>123.00000000000001</ele><time>2026-03-30T16:53:42.999Z</time></trkpt><trkpt lat="49.324605920440945" lon="0.9592416355574456"><ele>123.0</ele><time>2026-03-30T16:53:43.999Z</time></trkpt><trkpt lat="49.32466766981237" lon="0.9594489352505366"><ele>123.0</ele><time>2026-03-30T16:53:44.999Z</time></trkpt><trkpt lat="49.32473445508288" lon="0.9596896824455627"><ele>125.0</ele><time>2026-03-30T16:53:45.999Z</time></trkpt><trkpt lat="49.324819378591414" lon="0.9599327434941448"><ele>127.0</ele><time>2026-03-30T16:53:46.999Z</time></trkpt><trkpt lat="49.32490262474947" lon="0.9602091199576324"><ele>129.0</ele><time>2026-03-30T16:53:47.999Z</time></trkpt><trkpt lat="49.32499119923174" lon="0.9604802267491015"><ele>129.33333333333334</ele><time>2026-03-30T16:53:48.999Z</time></trkpt><trkpt lat="49.325068971419746" lon="0.9607252166935447"><ele>129.66666666666669</ele><time>2026-03-30T16:53:49.999Z</time></trkpt><trkpt lat="49.325133287901885" lon="0.9609426825904036"><ele>130.0</ele><time>2026-03-30T16:53:50.999Z</time></trkpt><trkpt lat="49.32519597637691" lon="0.9611303708239529"><ele>129.5</ele><time>2026-03-30T16:53:51.999Z</time></trkpt><trkpt lat="49.3252539405023" lon="0.961312839282733"><ele>129.0</ele><time>2026-03-30T16:53:52.999Z</time></trkpt><trkpt lat="49.32530745110343" lon="0.9614814593376619"><ele>128.5</ele><time>2026-03-30T16:53:53.999Z</time></trkpt><trkpt lat="49.32536600810239" lon="0.9616410196835938"><ele>128.0</ele><time>2026-03-30T16:53:54.999Z</time></trkpt><trkpt lat="49.32543585626593" lon="0.9618241914850293"><ele>127.75</ele><time>2026-03-30T16:53:55.999Z</time></trkpt><trkpt lat="49.32550135270178" lon="0.9619850438132227"><ele>127.5</ele><time>2026-03-30T16:53:56.999Z</time></trkpt><trkpt lat="49.325550278432196" lon="0.9621348176933879"><ele>127.25</ele><time>2026-03-30T16:53:57.999Z</time></trkpt><trkpt lat="49.32559290369106" lon="0.9622767152850257"><ele>127.0</ele><time>2026-03-30T16:53:58.999Z</time></trkpt><trkpt lat="49.32565119542059" lon="0.9624484715665022"><ele>126.0</ele><time>2026-03-30T16:53:59.999Z</time></trkpt><trkpt lat="49.325703565222696" lon="0.9625983725563778"><ele>125.0</ele><time>2026-03-30T16:54:00.999Z</time></trkpt><trkpt lat="49.32574877760509" lon="0.9627364857521666"><ele>124.0</ele><time>2026-03-30T16:54:01.999Z</time></trkpt><trkpt lat="49.32580572867842" lon="0.9629087574752839"><ele>123.0</ele><time>2026-03-30T16:54:02.999Z</time></trkpt><trkpt lat="49.32585524843879" lon="0.9630715563797991"><ele>123.0</ele><time>2026-03-30T16:54:03.999Z</time></trkpt><trkpt lat="49.325897006357536" lon="0.9632061395101423"><ele>123.0</ele><time>2026-03-30T16:54:04.998Z</time></trkpt><trkpt lat="49.325936841603585" lon="0.9633351895964561"><ele>123.0</ele><time>2026-03-30T16:54:05.998Z</time></trkpt><trkpt lat="49.32597293942546" lon="0.9634539150934635"><ele>123.0</ele><time>2026-03-30T16:54:06.998Z</time></trkpt><trkpt lat="49.32600827507735" lon="0.9635638560116314"><ele>123.0</ele><time>2026-03-30T16:54:07.998Z</time></trkpt><trkpt lat="49.32604031503853" lon="0.9636633981086022"><ele>123.0</ele><time>2026-03-30T16:54:08.998Z</time></trkpt><trkpt lat="49.326066157700375" lon="0.9637559813504385"><ele>122.75</ele><time>2026-03-30T16:54:09.998Z</time></trkpt><trkpt lat="49.32611652747865" lon="0.9639153911970305"><ele>122.5</ele><time>2026-03-30T16:54:11.998Z</time></trkpt><trkpt lat="49.32616236256438" lon="0.9640555479795331"><ele>122.25</ele><time>2026-03-30T16:54:13.998Z</time></trkpt><trkpt lat="49.32622721430673" lon="0.964267709806019"><ele>122.0</ele><time>2026-03-30T16:54:15.998Z</time></trkpt><trkpt lat="49.326284022656445" lon="0.9644280884260205"><ele>121.75</ele><time>2026-03-30T16:54:16.998Z</time></trkpt><trkpt lat="49.32635760779949" lon="0.9646174773040991"><ele>121.5</ele><time>2026-03-30T16:54:17.998Z</time></trkpt><trkpt lat="49.32642269805356" lon="0.964821703600409"><ele>121.25</ele><time>2026-03-30T16:54:18.998Z</time></trkpt><trkpt lat="49.32645208198118" lon="0.964963942289759"><ele>121.0</ele><time>2026-03-30T16:54:19.998Z</time></trkpt><trkpt lat="49.326489781605765" lon="0.9651130441394474"><ele>120.8</ele><time>2026-03-30T16:54:20.998Z</time></trkpt><trkpt lat="49.32653827784889" lon="0.9652443260157939"><ele>120.6</ele><time>2026-03-30T16:54:21.998Z</time></trkpt><trkpt lat="49.326572403208914" lon="0.9653771772524511"><ele>120.4</ele><time>2026-03-30T16:54:22.998Z</time></trkpt><trkpt lat="49.32662141995196" lon="0.9655069143602679"><ele>120.2</ele><time>2026-03-30T16:54:23.998Z</time></trkpt><trkpt lat="49.326673118843274" lon="0.9656499975611949"><ele>120.0</ele><time>2026-03-30T16:54:24.998Z</time></trkpt><trkpt lat="49.3267046671446" lon="0.9657748702977759"><ele>119.6</ele><time>2026-03-30T16:54:25.998Z</time></trkpt><trkpt lat="49.32675278261573" lon="0.9659028408996735"><ele>119.2</ele><time>2026-03-30T16:54:26.998Z</time></trkpt><trkpt lat="49.326789755739384" lon="0.9660662521548522"><ele>118.80000000000001</ele><time>2026-03-30T16:54:27.998Z</time></trkpt><trkpt lat="49.326817158145225" lon="0.9662110359836739"><ele>118.4</ele><time>2026-03-30T16:54:28.998Z</time></trkpt><trkpt lat="49.32684955258333" lon="0.9663469062976145"><ele>118.0</ele><time>2026-03-30T16:54:29.998Z</time></trkpt><trkpt lat="49.326903801889316" lon="0.966480634256342"><ele>118.00000000000001</ele><time>2026-03-30T16:54:30.998Z</time></trkpt><trkpt lat="49.32695140152067" lon="0.9665893322345747"><ele>118.0</ele><time>2026-03-30T16:54:31.998Z</time></trkpt><trkpt lat="49.32699009797897" lon="0.9666972093673285"><ele>118.0</ele><time>2026-03-30T16:54:33Z</time></trkpt><trkpt lat="49.32701624098849" lon="0.9667966363792048"><ele>118.0</ele><time>2026-03-30T16:54:34Z</time></trkpt><trkpt lat="49.3270928793625" lon="0.9669070316015641"><ele>118.00000000000001</ele><time>2026-03-30T16:54:36Z</time></trkpt><trkpt lat="49.327140024365484" lon="0.967022798341926"><ele>118.0</ele><time>2026-03-30T16:54:38Z</time></trkpt><trkpt lat="49.327173898700266" lon="0.9671668695317431"><ele>117.2</ele><time>2026-03-30T16:54:41Z</time></trkpt><trkpt lat="49.32718174025267" lon="0.9672998836059284"><ele>116.4</ele><time>2026-03-30T16:54:43Z</time></trkpt><trkpt lat="49.32722719870529" lon="0.967467114472764"><ele>115.60000000000001</ele><time>2026-03-30T16:54:45Z</time></trkpt><trkpt lat="49.32728553322252" lon="0.9675829651027141"><ele>114.80000000000001</ele><time>2026-03-30T16:54:47Z</time></trkpt><trkpt lat="49.32735399973492" lon="0.9676633101904298"><ele>114.0</ele><time>2026-03-30T16:54:49Z</time></trkpt><trkpt lat="49.327406775718316" lon="0.9677522660353031"><ele>113.4</ele><time>2026-03-30T16:54:51Z</time></trkpt><trkpt lat="49.32743344155688" lon="0.9678737045875054"><ele>112.80000000000001</ele><time>2026-03-30T16:54:53Z</time></trkpt><trkpt lat="49.32739735049689" lon="0.9680130830501953"><ele>112.19999999999999</ele><time>2026-03-30T16:54:56Z</time></trkpt><trkpt lat="49.32737931631023" lon="0.9681426361957091"><ele>111.6</ele><time>2026-03-30T16:54:58Z</time></trkpt><trkpt lat="49.32735295588963" lon="0.9683209502438038"><ele>111.0</ele><time>2026-03-30T16:55:00Z</time></trkpt><trkpt lat="49.32732872495316" lon="0.9684368844488095"><ele>111.0</ele><time>2026-03-30T16:55:02Z</time></trkpt><trkpt lat="49.32733342876754" lon="0.9685397127446234"><ele>111.0</ele><time>2026-03-30T16:55:05Z</time></trkpt><trkpt lat="49.32739696193826" lon="0.9685452132115399"><ele>111.0</ele><time>2026-03-30T16:55:55.999Z</time></trkpt><trkpt lat="49.32741406787821" lon="0.9684329430885986"><ele>111.0</ele><time>2026-03-30T16:56:00.999Z</time></trkpt><trkpt lat="49.32736984175374" lon="0.9683532011123657"><ele>111.0</ele><time>2026-03-30T16:56:03.999Z</time></trkpt><trkpt lat="49.32733152301419" lon="0.9682251687611788"><ele>111.0</ele><time>2026-03-30T16:56:07.999Z</time></trkpt><trkpt lat="49.327336424352794" lon="0.9681249571544911"><ele>111.0</ele><time>2026-03-30T16:56:08.998Z</time></trkpt><trkpt lat="49.32735159210571" lon="0.9680030222572087"><ele>111.0</ele><time>2026-03-30T16:56:09.998Z</time></trkpt><trkpt lat="49.327366257340906" lon="0.9678653135822272"><ele>111.0</ele><time>2026-03-30T16:56:10.998Z</time></trkpt><trkpt lat="49.32737838845729" lon="0.9677327343317702"><ele>111.0</ele><time>2026-03-30T16:56:11.998Z</time></trkpt><trkpt lat="49.32740893872962" lon="0.9675883547810777"><ele>111.0</ele><time>2026-03-30T16:56:12.998Z</time></trkpt><trkpt lat="49.327448237959594" lon="0.9673866893068497"><ele>111.0</ele><time>2026-03-30T16:56:13.998Z</time></trkpt><trkpt lat="49.32747643093041" lon="0.9672161233958496"><ele>112.25</ele><time>2026-03-30T16:56:14.998Z</time></trkpt><trkpt lat="49.32751023650982" lon="0.9670697370996418"><ele>113.5</ele><time>2026-03-30T16:56:15.998Z</time></trkpt><trkpt lat="49.327519521410196" lon="0.9668889767645704"><ele>114.75</ele><time>2026-03-30T16:56:16.998Z</time></trkpt><trkpt lat="49.32751795529771" lon="0.9666994142168026"><ele>116.0</ele><time>2026-03-30T16:56:17.998Z</time></trkpt><trkpt lat="49.32757321507047" lon="0.9665404606588754"><ele>117.0</ele><time>2026-03-30T16:56:18.998Z</time></trkpt><trkpt lat="49.327600713923346" lon="0.9664071599238936"><ele>118.0</ele><time>2026-03-30T16:56:19.998Z</time></trkpt><trkpt lat="49.32763918261289" lon="0.9663278950167655"><ele>119.0</ele><time>2026-03-30T16:56:22.998Z</time></trkpt><trkpt lat="49.327745742923256" lon="0.9663388309326563"><ele>120.0</ele><time>2026-03-30T16:56:24.998Z</time></trkpt><trkpt lat="49.32782595807912" lon="0.9663617507771619"><ele>121.0</ele><time>2026-03-30T16:56:25.998Z</time></trkpt><trkpt lat="49.32801922994501" lon="0.96637170552107"><ele>120.33333333333334</ele><time>2026-03-30T16:56:27.998Z</time></trkpt><trkpt lat="49.32811424830547" lon="0.966399374063371"><ele>119.66666666666667</ele><time>2026-03-30T16:56:28.998Z</time></trkpt><trkpt lat="49.32819808311416" lon="0.9664280627510016"><ele>119.0</ele><time>2026-03-30T16:56:29.998Z</time></trkpt><trkpt lat="49.328282346794566" lon="0.9664574278331789"><ele>118.33333333333334</ele><time>2026-03-30T16:56:30.998Z</time></trkpt><trkpt lat="49.32836477022055" lon="0.9664934113829692"><ele>117.66666666666667</ele><time>2026-03-30T16:56:31.998Z</time></trkpt><trkpt lat="49.32844600411035" lon="0.9665242365250014"><ele>117.0</ele><time>2026-03-30T16:56:32.998Z</time></trkpt><trkpt lat="49.32852143795457" lon="0.966549282192846"><ele>117.0</ele><time>2026-03-30T16:56:33.998Z</time></trkpt><trkpt lat="49.3285926620047" lon="0.9665789472545635"><ele>117.0</ele><time>2026-03-30T16:56:34.998Z</time></trkpt><trkpt lat="49.32865974022624" lon="0.9666116064779525"><ele>117.0</ele><time>2026-03-30T16:56:35.998Z</time></trkpt><trkpt lat="49.328725261393814" lon="0.966636565424389"><ele>117.0</ele><time>2026-03-30T16:56:36.998Z</time></trkpt><trkpt lat="49.328835334038686" lon="0.9666677910448386"><ele>117.0</ele><time>2026-03-30T16:56:39Z</time></trkpt><trkpt lat="49.32890101408613" lon="0.9666868394423106"><ele>117.0</ele><time>2026-03-30T16:56:40Z</time></trkpt><trkpt lat="49.328974085588726" lon="0.9667032046793737"><ele>116.19999999999999</ele><time>2026-03-30T16:56:41Z</time></trkpt><trkpt lat="49.329065059225854" lon="0.9667214897770441"><ele>115.39999999999999</ele><time>2026-03-30T16:56:42Z</time></trkpt><trkpt lat="49.329166311710964" lon="0.966752330457668"><ele>114.60000000000001</ele><time>2026-03-30T16:56:43Z</time></trkpt><trkpt lat="49.32925959899202" lon="0.9667767633392971"><ele>113.80000000000001</ele><time>2026-03-30T16:56:44Z</time></trkpt><trkpt lat="49.32934400328808" lon="0.9668059540715722"><ele>113.0</ele><time>2026-03-30T16:56:45Z</time></trkpt><trkpt lat="49.32942854111048" lon="0.9668747518423583"><ele>112.99999999999999</ele><time>2026-03-30T16:56:46Z</time></trkpt><trkpt lat="49.32949935965811" lon="0.9668959831219213"><ele>113.0</ele><time>2026-03-30T16:56:47Z</time></trkpt><trkpt lat="49.32956431961523" lon="0.9669169427981119"><ele>113.0</ele><time>2026-03-30T16:56:48Z</time></trkpt><trkpt lat="49.329642922904895" lon="0.9669164606602608"><ele>113.0</ele><time>2026-03-30T16:56:50Z</time></trkpt><trkpt lat="49.32970636272443" lon="0.9669402213404826"><ele>112.99999999999999</ele><time>2026-03-30T16:56:51Z</time></trkpt><trkpt lat="49.32984808022007" lon="0.9669824178400855"><ele>113.0</ele><time>2026-03-30T16:56:52Z</time></trkpt><trkpt lat="49.32996744469587" lon="0.9670175167600691"><ele>112.25</ele><time>2026-03-30T16:56:53Z</time></trkpt><trkpt lat="49.33008988322842" lon="0.9670638606263056"><ele>111.5</ele><time>2026-03-30T16:56:54Z</time></trkpt><trkpt lat="49.33024247588556" lon="0.9671012966849314"><ele>110.75</ele><time>2026-03-30T16:56:55Z</time></trkpt><trkpt lat="49.330326197523576" lon="0.9671268858165509"><ele>110.0</ele><time>2026-03-30T16:56:59Z</time></trkpt><trkpt lat="49.33041536180264" lon="0.9671690470644959"><ele>110.0</ele><time>2026-03-30T16:57:01Z</time></trkpt><trkpt lat="49.33048685490438" lon="0.9671914201527192"><ele>110.0</ele><time>2026-03-30T16:57:02Z</time></trkpt><trkpt lat="49.33058175048417" lon="0.9672260677957508"><ele>110.0</ele><time>2026-03-30T16:57:03Z</time></trkpt><trkpt lat="49.330706882694074" lon="0.9672657089765652"><ele>110.0</ele><time>2026-03-30T16:57:04Z</time></trkpt><trkpt lat="49.33084409572078" lon="0.967297387969682"><ele>110.0</ele><time>2026-03-30T16:57:05Z</time></trkpt><trkpt lat="49.33092721673108" lon="0.9673285939951262"><ele>108.8</ele><time>2026-03-30T16:57:06Z</time></trkpt><trkpt lat="49.33106371021654" lon="0.9673962743286875"><ele>107.6</ele><time>2026-03-30T16:57:08Z</time></trkpt><trkpt lat="49.33115269965478" lon="0.9674236927593023"><ele>106.4</ele><time>2026-03-30T16:57:09Z</time></trkpt><trkpt lat="49.33123159439185" lon="0.9674599060431694"><ele>105.2</ele><time>2026-03-30T16:57:10Z</time></trkpt><trkpt lat="49.33130696494412" lon="0.9674865670271939"><ele>104.0</ele><time>2026-03-30T16:57:11Z</time></trkpt><trkpt lat="49.33137371794359" lon="0.9675115160201884"><ele>101.2</ele><time>2026-03-30T16:57:12Z</time></trkpt><trkpt lat="49.331486364964015" lon="0.9675409645709638"><ele>98.4</ele><time>2026-03-30T16:57:14Z</time></trkpt><trkpt lat="49.331563506710715" lon="0.9676017071824103"><ele>95.6</ele><time>2026-03-30T16:57:15.999Z</time></trkpt><trkpt lat="49.33164273900639" lon="0.9676295087994962"><ele>92.8</ele><time>2026-03-30T16:57:17.999Z</time></trkpt><trkpt lat="49.33172678577559" lon="0.967570740583543"><ele>90.0</ele><time>2026-03-30T16:57:20.999Z</time></trkpt><trkpt lat="49.33185392881443" lon="0.9673059744913417"><ele>90.0</ele><time>2026-03-30T16:57:23.999Z</time></trkpt><trkpt lat="49.33188221114935" lon="0.9672172244047829"><ele>90.0</ele><time>2026-03-30T16:57:24.999Z</time></trkpt><trkpt lat="49.33191651193066" lon="0.9671339559383849"><ele>90.0</ele><time>2026-03-30T16:57:25.999Z</time></trkpt><trkpt lat="49.33196976194321" lon="0.9670090713369299"><ele>90.0</ele><time>2026-03-30T16:57:27.999Z</time></trkpt><trkpt lat="49.33201540590336" lon="0.9668910934240778"><ele>90.0</ele><time>2026-03-30T16:57:29.999Z</time></trkpt><trkpt lat="49.33205613716718" lon="0.9667792126738924"><ele>90.0</ele><time>2026-03-30T16:57:31.999Z</time></trkpt><trkpt lat="49.33204812450694" lon="0.966652663105381"><ele>90.75</ele><time>2026-03-30T16:57:33.999Z</time></trkpt><trkpt lat="49.33200826532607" lon="0.9665149820556161"><ele>91.5</ele><time>2026-03-30T16:57:35.999Z</time></trkpt><trkpt lat="49.331968993873915" lon="0.966381564551958"><ele>92.25</ele><time>2026-03-30T16:57:37.999Z</time></trkpt><trkpt lat="49.33185017006473" lon="0.9662008296572785"><ele>93.0</ele><time>2026-03-30T16:57:39.999Z</time></trkpt><trkpt lat="49.331777211501574" lon="0.9660091413634755"><ele>91.75</ele><time>2026-03-30T16:57:40.999Z</time></trkpt><trkpt lat="49.33170965436146" lon="0.9658188291489733"><ele>90.5</ele><time>2026-03-30T16:57:41.999Z</time></trkpt><trkpt lat="49.33166167657149" lon="0.9656432320518621"><ele>89.25</ele><time>2026-03-30T16:57:42.999Z</time></trkpt><trkpt lat="49.33157667662855" lon="0.9654275258781203"><ele>88.0</ele><time>2026-03-30T16:57:43.999Z</time></trkpt><trkpt lat="49.33151110856135" lon="0.9652088949727217"><ele>87.0</ele><time>2026-03-30T16:57:44.999Z</time></trkpt><trkpt lat="49.33146244785393" lon="0.9650096361788761"><ele>86.0</ele><time>2026-03-30T16:57:45.999Z</time></trkpt><trkpt lat="49.33140947683703" lon="0.9648272789787857"><ele>85.0</ele><time>2026-03-30T16:57:46.999Z</time></trkpt><trkpt lat="49.331337641569405" lon="0.96463029648403"><ele>84.0</ele><time>2026-03-30T16:57:47.999Z</time></trkpt><trkpt lat="49.33126195137452" lon="0.9644324028438971"><ele>84.2</ele><time>2026-03-30T16:57:48.999Z</time></trkpt><trkpt lat="49.331210231116245" lon="0.9642551884617548"><ele>84.4</ele><time>2026-03-30T16:57:49.999Z</time></trkpt><trkpt lat="49.331170134196434" lon="0.9640983282583565"><ele>84.6</ele><time>2026-03-30T16:57:50.999Z</time></trkpt><trkpt lat="49.33112411088012" lon="0.9639469007176902"><ele>84.8</ele><time>2026-03-30T16:57:51.999Z</time></trkpt><trkpt lat="49.331078798552234" lon="0.963816966812904"><ele>85.0</ele><time>2026-03-30T16:57:52.999Z</time></trkpt><trkpt lat="49.33104234089608" lon="0.9636817795018668"><ele>85.0</ele><time>2026-03-30T16:57:53.999Z</time></trkpt><trkpt lat="49.33100205934168" lon="0.9635330531611678"><ele>85.0</ele><time>2026-03-30T16:57:54.999Z</time></trkpt><trkpt lat="49.33094487350731" lon="0.9633282854374678"><ele>85.0</ele><time>2026-03-30T16:57:55.999Z</time></trkpt><trkpt lat="49.33090312044624" lon="0.9631496823917925"><ele>85.0</ele><time>2026-03-30T16:57:56.999Z</time></trkpt><trkpt lat="49.3308552690432" lon="0.9629649155917205"><ele>81.0</ele><time>2026-03-30T16:57:57.999Z</time></trkpt><trkpt lat="49.330817491732496" lon="0.9627842760894728"><ele>77.0</ele><time>2026-03-30T16:57:58.999Z</time></trkpt><trkpt lat="49.330755786906636" lon="0.962585171323393"><ele>73.0</ele><time>2026-03-30T16:57:59.999Z</time></trkpt><trkpt lat="49.330691047025276" lon="0.9624290700778365"><ele>69.0</ele><time>2026-03-30T16:58:00.999Z</time></trkpt><trkpt lat="49.33065646336214" lon="0.9622844773722478"><ele>69.0</ele><time>2026-03-30T16:58:01.999Z</time></trkpt><trkpt lat="49.33062778092167" lon="0.9621863844797884"><ele>69.0</ele><time>2026-03-30T16:58:02.999Z</time></trkpt><trkpt lat="49.330585645047144" lon="0.9619786140770925"><ele>69.0</ele><time>2026-03-30T16:58:04.999Z</time></trkpt><trkpt lat="49.33055857863868" lon="0.9618734989682926"><ele>69.0</ele><time>2026-03-30T16:58:06.999Z</time></trkpt><trkpt lat="49.330519358924164" lon="0.961713957466362"><ele>69.0</ele><time>2026-03-30T16:58:08.999Z</time></trkpt><trkpt lat="49.33046565095" lon="0.9615428517251197"><ele>72.0</ele><time>2026-03-30T16:58:10.999Z</time></trkpt><trkpt lat="49.33042936382736" lon="0.9614557311206382"><ele>75.0</ele><time>2026-03-30T16:58:11.999Z</time></trkpt><trkpt lat="49.330390773144785" lon="0.9613552035897068"><ele>78.0</ele><time>2026-03-30T16:58:12.998Z</time></trkpt><trkpt lat="49.330342104932" lon="0.9612469850752302"><ele>81.0</ele><time>2026-03-30T16:58:13.998Z</time></trkpt><trkpt lat="49.33029439858392" lon="0.961120098647848"><ele>84.0</ele><time>2026-03-30T16:58:14.998Z</time></trkpt><trkpt lat="49.33024090488589" lon="0.9609816262287169"><ele>87.0</ele><time>2026-03-30T16:58:15.998Z</time></trkpt><trkpt lat="49.33019645829639" lon="0.9608476882638615"><ele>89.25</ele><time>2026-03-30T16:58:16.998Z</time></trkpt><trkpt lat="49.33015871769601" lon="0.9606941139120787"><ele>91.5</ele><time>2026-03-30T16:58:17.998Z</time></trkpt><trkpt lat="49.330100120116015" lon="0.9605360721361248"><ele>93.75</ele><time>2026-03-30T16:58:18.998Z</time></trkpt><trkpt lat="49.330031782400305" lon="0.9603597408673293"><ele>96.0</ele><time>2026-03-30T16:58:19.998Z</time></trkpt><trkpt lat="49.32997152552714" lon="0.9601709350403019"><ele>96.5</ele><time>2026-03-30T16:58:20.998Z</time></trkpt><trkpt lat="49.32991512305084" lon="0.9599935322072632"><ele>97.0</ele><time>2026-03-30T16:58:21.998Z</time></trkpt><trkpt lat="49.32985586015292" lon="0.9598242066280017"><ele>97.5</ele><time>2026-03-30T16:58:22.998Z</time></trkpt><trkpt lat="49.3298101127412" lon="0.9596414775861372"><ele>98.0</ele><time>2026-03-30T16:58:23.998Z</time></trkpt><trkpt lat="49.32974538584802" lon="0.9594394171579068"><ele>99.0</ele><time>2026-03-30T16:58:24.998Z</time></trkpt><trkpt lat="49.329690568879954" lon="0.9592544087373116"><ele>100.0</ele><time>2026-03-30T16:58:25.998Z</time></trkpt><trkpt lat="49.32964782422239" lon="0.9590719180094941"><ele>101.0</ele><time>2026-03-30T16:58:26.998Z</time></trkpt><trkpt lat="49.32959016905617" lon="0.9589094300058608"><ele>102.0</ele><time>2026-03-30T16:58:27.998Z</time></trkpt><trkpt lat="49.3295388917867" lon="0.958749137613477"><ele>102.5</ele><time>2026-03-30T16:58:28.998Z</time></trkpt><trkpt lat="49.32949272232146" lon="0.9585940563337705"><ele>103.0</ele><time>2026-03-30T16:58:29.998Z</time></trkpt><trkpt lat="49.329434884094496" lon="0.9584311153827613"><ele>103.5</ele><time>2026-03-30T16:58:30.998Z</time></trkpt><trkpt lat="49.32937526749199" lon="0.9582491868787384"><ele>104.0</ele><time>2026-03-30T16:58:31.998Z</time></trkpt><trkpt lat="49.329313314580325" lon="0.9580662706648668"><ele>104.49999999999999</ele><time>2026-03-30T16:58:32.998Z</time></trkpt><trkpt lat="49.3292646649321" lon="0.9579052209046329"><ele>105.0</ele><time>2026-03-30T16:58:33.998Z</time></trkpt><trkpt lat="49.32921539667629" lon="0.9577623100945729"><ele>105.5</ele><time>2026-03-30T16:58:34.998Z</time></trkpt><trkpt lat="49.32917817419663" lon="0.9576446923944469"><ele>106.0</ele><time>2026-03-30T16:58:35.998Z</time></trkpt><trkpt lat="49.329147445350124" lon="0.9575443996767468"><ele>106.49999999999999</ele><time>2026-03-30T16:58:36.998Z</time></trkpt><trkpt lat="49.329118100078695" lon="0.9574553786707882"><ele>107.0</ele><time>2026-03-30T16:58:37.998Z</time></trkpt><trkpt lat="49.32906709598101" lon="0.95730772992322"><ele>107.16666666666666</ele><time>2026-03-30T16:58:39.998Z</time></trkpt><trkpt lat="49.329019892193855" lon="0.9572039668788034"><ele>107.33333333333333</ele><time>2026-03-30T16:58:41.998Z</time></trkpt><trkpt lat="49.3289938035639" lon="0.9570862789727567"><ele>107.5</ele><time>2026-03-30T16:58:46Z</time></trkpt><trkpt lat="49.32899660279751" lon="0.956960331150564"><ele>107.66666666666666</ele><time>2026-03-30T16:58:49Z</time></trkpt><trkpt lat="49.32901341507008" lon="0.9568381801559017"><ele>107.83333333333333</ele><time>2026-03-30T16:58:52Z</time></trkpt><trkpt lat="49.32897713865408" lon="0.956930196270999"><ele>108.0</ele><time>2026-03-30T16:58:57Z</time></trkpt><trkpt lat="49.32899859794162" lon="0.957063611127467"><ele>108.0</ele><time>2026-03-30T16:59:00Z</time></trkpt><trkpt lat="49.32903934139523" lon="0.9571468584303775"><ele>108.0</ele><time>2026-03-30T16:59:02Z</time></trkpt><trkpt lat="49.32908349024385" lon="0.9572194804038784"><ele>108.0</ele><time>2026-03-30T16:59:04Z</time></trkpt><trkpt lat="49.32911556266357" lon="0.9573344205249654"><ele>108.0</ele><time>2026-03-30T16:59:06Z</time></trkpt><trkpt lat="49.32914575457946" lon="0.9574237788368943"><ele>108.0</ele><time>2026-03-30T16:59:07Z</time></trkpt><trkpt lat="49.32920902610411" lon="0.957544223629991"><ele>108.0</ele><time>2026-03-30T16:59:09Z</time></trkpt><trkpt lat="49.3292334404763" lon="0.9576424180162955"><ele>108.0</ele><time>2026-03-30T16:59:10Z</time></trkpt><trkpt lat="49.329259044288946" lon="0.9577352962602973"><ele>107.83333333333333</ele><time>2026-03-30T16:59:11Z</time></trkpt><trkpt lat="49.3292882048673" lon="0.9578476100332959"><ele>107.66666666666666</ele><time>2026-03-30T16:59:12Z</time></trkpt><trkpt lat="49.32932796636951" lon="0.9579747696252897"><ele>107.5</ele><time>2026-03-30T16:59:13Z</time></trkpt><trkpt lat="49.32936239080095" lon="0.9580780141108889"><ele>107.33333333333333</ele><time>2026-03-30T16:59:14Z</time></trkpt><trkpt lat="49.32940385591357" lon="0.9581737193821226"><ele>107.16666666666666</ele><time>2026-03-30T16:59:15Z</time></trkpt><trkpt lat="49.329436260891036" lon="0.9582570883297166"><ele>107.0</ele><time>2026-03-30T16:59:16Z</time></trkpt><trkpt lat="49.32946668695906" lon="0.9583479942928042"><ele>106.39999999999999</ele><time>2026-03-30T16:59:17Z</time></trkpt><trkpt lat="49.329496746847745" lon="0.9584660699754541"><ele>105.79999999999998</ele><time>2026-03-30T16:59:18Z</time></trkpt><trkpt lat="49.32952874382053" lon="0.9586344746072487"><ele>105.2</ele><time>2026-03-30T16:59:19Z</time></trkpt><trkpt lat="49.32958537569698" lon="0.958794734163934"><ele>104.6</ele><time>2026-03-30T16:59:20Z</time></trkpt><trkpt lat="49.32965149655064" lon="0.9589065559177116"><ele>104.0</ele><time>2026-03-30T16:59:21Z</time></trkpt><trkpt lat="49.32970643516022" lon="0.9590057664676932"><ele>102.99999999999999</ele><time>2026-03-30T16:59:21.999Z</time></trkpt><trkpt lat="49.329738270244405" lon="0.9591203058022253"><ele>102.0</ele><time>2026-03-30T16:59:22.999Z</time></trkpt><trkpt lat="49.3297718134295" lon="0.9592425844496647"><ele>101.0</ele><time>2026-03-30T16:59:23.999Z</time></trkpt><trkpt lat="49.32980592030201" lon="0.9593428130562255"><ele>100.0</ele><time>2026-03-30T16:59:24.999Z</time></trkpt><trkpt lat="49.329841350967925" lon="0.9594711779658697"><ele>98.99999999999999</ele><time>2026-03-30T16:59:25.999Z</time></trkpt><trkpt lat="49.32988106170919" lon="0.9596297815897498"><ele>98.0</ele><time>2026-03-30T16:59:26.999Z</time></trkpt><trkpt lat="49.32993458598883" lon="0.9597466989352967"><ele>98.0</ele><time>2026-03-30T16:59:27.999Z</time></trkpt><trkpt lat="49.32998768764392" lon="0.9598651884546164"><ele>98.0</ele><time>2026-03-30T16:59:28.999Z</time></trkpt><trkpt lat="49.33002814831085" lon="0.9600074151749527"><ele>98.0</ele><time>2026-03-30T16:59:29.999Z</time></trkpt><trkpt lat="49.33007673495009" lon="0.9601736333565759"><ele>98.0</ele><time>2026-03-30T16:59:30.999Z</time></trkpt><trkpt lat="49.3301200057563" lon="0.9603166916719461"><ele>98.0</ele><time>2026-03-30T16:59:31.999Z</time></trkpt><trkpt lat="49.33016530560553" lon="0.9604307121332585"><ele>97.66666666666666</ele><time>2026-03-30T16:59:32.999Z</time></trkpt><trkpt lat="49.33021266353375" lon="0.9605414841874181"><ele>97.33333333333333</ele><time>2026-03-30T16:59:33.999Z</time></trkpt><trkpt lat="49.330268102366105" lon="0.9606240360093097"><ele>97.0</ele><time>2026-03-30T16:59:34.999Z</time></trkpt><trkpt lat="49.330303392716246" lon="0.9607448441463278"><ele>96.66666666666666</ele><time>2026-03-30T16:59:35.999Z</time></trkpt><trkpt lat="49.33033349602444" lon="0.9608383577339163"><ele>96.33333333333333</ele><time>2026-03-30T16:59:36.999Z</time></trkpt><trkpt lat="49.33036986417264" lon="0.9610265912522785"><ele>96.0</ele><time>2026-03-30T16:59:38.999Z</time></trkpt><trkpt lat="49.330436053717314" lon="0.9612048968963474"><ele>94.71428571428571</ele><time>2026-03-30T16:59:40.999Z</time></trkpt><trkpt lat="49.33045993531838" lon="0.961307689847087"><ele>93.42857142857143</ele><time>2026-03-30T16:59:41.999Z</time></trkpt><trkpt lat="49.330485509574714" lon="0.9614077538061219"><ele>92.14285714285714</ele><time>2026-03-30T16:59:42.999Z</time></trkpt><trkpt lat="49.33051310559401" lon="0.9615082752765356"><ele>90.85714285714286</ele><time>2026-03-30T16:59:43.999Z</time></trkpt><trkpt lat="49.3305449329058" lon="0.9616532003408115"><ele>89.57142857142857</ele><time>2026-03-30T16:59:45.999Z</time></trkpt><trkpt lat="49.330570409683276" lon="0.961744783677485"><ele>88.28571428571428</ele><time>2026-03-30T16:59:47.999Z</time></trkpt><trkpt lat="49.33057801656711" lon="0.9618545705906635"><ele>87.0</ele><time>2026-03-30T16:59:49.999Z</time></trkpt><trkpt lat="49.330602392641694" lon="0.9619459727220476"><ele>84.0</ele><time>2026-03-30T16:59:51.999Z</time></trkpt><trkpt lat="49.33063046592977" lon="0.9620671168792636"><ele>81.0</ele><time>2026-03-30T16:59:53.999Z</time></trkpt><trkpt lat="49.330649447276556" lon="0.9621672045352417"><ele>78.0</ele><time>2026-03-30T16:59:54.999Z</time></trkpt><trkpt lat="49.330677723930066" lon="0.9622602820942883"><ele>75.0</ele><time>2026-03-30T16:59:55.999Z</time></trkpt><trkpt lat="49.33074592253744" lon="0.9624154168639074"><ele>72.0</ele><time>2026-03-30T16:59:57.999Z</time></trkpt><trkpt lat="49.330780587103725" lon="0.9625529941404035"><ele>69.0</ele><time>2026-03-30T16:59:59.999Z</time></trkpt><trkpt lat="49.330824003615874" lon="0.9627044943425577"><ele>68.83333333333333</ele><time>2026-03-30T17:00:01.999Z</time></trkpt><trkpt lat="49.330872712166716" lon="0.9628576729608923"><ele>68.66666666666667</ele><time>2026-03-30T17:00:03.999Z</time></trkpt><trkpt lat="49.33093035884736" lon="0.9629588737321576"><ele>68.5</ele><time>2026-03-30T17:00:05.999Z</time></trkpt><trkpt lat="49.33096519774143" lon="0.9631013357732366"><ele>68.33333333333334</ele><time>2026-03-30T17:00:07.999Z</time></trkpt><trkpt lat="49.33100281808395" lon="0.9631870377861954"><ele>68.16666666666667</ele><time>2026-03-30T17:00:09.999Z</time></trkpt><trkpt lat="49.331065078071994" lon="0.9632128184304815"><ele>68.0</ele><time>2026-03-30T17:00:26.998Z</time></trkpt><trkpt lat="49.33102852436937" lon="0.9631327825696552"><ele>68.0</ele><time>2026-03-30T17:00:32.998Z</time></trkpt><trkpt lat="49.3310964917669" lon="0.9629876733733342"><ele>68.0</ele><time>2026-03-30T17:00:34.998Z</time></trkpt><trkpt lat="49.331207327997454" lon="0.9628756387798646"><ele>68.0</ele><time>2026-03-30T17:00:36.998Z</time></trkpt><trkpt lat="49.331289833114894" lon="0.9627346021445458"><ele>68.0</ele><time>2026-03-30T17:00:37.998Z</time></trkpt><trkpt lat="49.331336859752554" lon="0.9626296980982016"><ele>67.99999999999999</ele><time>2026-03-30T17:00:38.998Z</time></trkpt><trkpt lat="49.33137505382721" lon="0.9625514922393756"><ele>68.0</ele><time>2026-03-30T17:00:39.998Z</time></trkpt><trkpt lat="49.33139591919833" lon="0.9624579854395376"><ele>68.0</ele><time>2026-03-30T17:00:40.998Z</time></trkpt><trkpt lat="49.33140061463043" lon="0.9623545031281092"><ele>68.0</ele><time>2026-03-30T17:00:41.998Z</time></trkpt><trkpt lat="49.331394119130955" lon="0.9622558333180483"><ele>68.0</ele><time>2026-03-30T17:00:42.998Z</time></trkpt><trkpt lat="49.331372626531945" lon="0.9621557985967991"><ele>67.99999999999999</ele><time>2026-03-30T17:00:43.998Z</time></trkpt><trkpt lat="49.33133974956566" lon="0.9620518612039665"><ele>68.0</ele><time>2026-03-30T17:00:44.998Z</time></trkpt><trkpt lat="49.33132469815039" lon="0.9618834160970013"><ele>68.16666666666667</ele><time>2026-03-30T17:00:46.998Z</time></trkpt><trkpt lat="49.33128151556231" lon="0.9617136497540317"><ele>68.33333333333334</ele><time>2026-03-30T17:00:48.998Z</time></trkpt><trkpt lat="49.331250380913914" lon="0.961599946928289"><ele>68.5</ele><time>2026-03-30T17:00:49.998Z</time></trkpt><trkpt lat="49.33121427241309" lon="0.9614903034048023"><ele>68.66666666666667</ele><time>2026-03-30T17:00:51Z</time></trkpt><trkpt lat="49.33117594224583" lon="0.9613983514838451"><ele>68.83333333333333</ele><time>2026-03-30T17:00:52Z</time></trkpt><trkpt lat="49.3311184748109" lon="0.9613515370714452"><ele>69.0</ele><time>2026-03-30T17:00:53Z</time></trkpt><trkpt lat="49.331044903251794" lon="0.9613157964900505"><ele>70.33333333333333</ele><time>2026-03-30T17:00:54Z</time></trkpt><trkpt lat="49.33096762705866" lon="0.9612702221723594"><ele>71.66666666666667</ele><time>2026-03-30T17:00:55Z</time></trkpt><trkpt lat="49.33088691269423" lon="0.9612110325222029"><ele>73.0</ele><time>2026-03-30T17:00:56Z</time></trkpt><trkpt lat="49.3308158540985" lon="0.9611078085870737"><ele>74.33333333333334</ele><time>2026-03-30T17:00:57Z</time></trkpt><trkpt lat="49.3307557582109" lon="0.9610317701397143"><ele>75.66666666666667</ele><time>2026-03-30T17:00:58Z</time></trkpt><trkpt lat="49.330679067730195" lon="0.9609391324537209"><ele>77.0</ele><time>2026-03-30T17:00:59Z</time></trkpt><trkpt lat="49.33059224851788" lon="0.9608419778257057"><ele>80.8</ele><time>2026-03-30T17:01:00Z</time></trkpt><trkpt lat="49.33051639807337" lon="0.960728233096779"><ele>84.6</ele><time>2026-03-30T17:01:01Z</time></trkpt><trkpt lat="49.33043774619868" lon="0.9606135958009373"><ele>88.39999999999999</ele><time>2026-03-30T17:01:02Z</time></trkpt><trkpt lat="49.33038674808037" lon="0.9604996694515169"><ele>92.2</ele><time>2026-03-30T17:01:03Z</time></trkpt><trkpt lat="49.33032354191647" lon="0.9603883012390616"><ele>96.0</ele><time>2026-03-30T17:01:04Z</time></trkpt><trkpt lat="49.33027752297704" lon="0.960280099628264"><ele>96.0</ele><time>2026-03-30T17:01:05Z</time></trkpt><trkpt lat="49.33022637485207" lon="0.9601737502558985"><ele>96.0</ele><time>2026-03-30T17:01:06Z</time></trkpt><trkpt lat="49.330174820330335" lon="0.9600145149634882"><ele>96.0</ele><time>2026-03-30T17:01:08Z</time></trkpt><trkpt lat="49.33016212571456" lon="0.9598891749612394"><ele>96.0</ele><time>2026-03-30T17:01:09Z</time></trkpt><trkpt lat="49.33014993539192" lon="0.9597332526050623"><ele>96.0</ele><time>2026-03-30T17:01:10Z</time></trkpt><trkpt lat="49.330114123047466" lon="0.9595984381646678"><ele>96.33333333333333</ele><time>2026-03-30T17:01:11Z</time></trkpt><trkpt lat="49.330106086698244" lon="0.9594745807699275"><ele>96.66666666666666</ele><time>2026-03-30T17:01:12Z</time></trkpt><trkpt lat="49.33011059662031" lon="0.9593510751787198"><ele>97.0</ele><time>2026-03-30T17:01:13Z</time></trkpt><trkpt lat="49.33012152993891" lon="0.9592242893681073"><ele>97.33333333333333</ele><time>2026-03-30T17:01:14Z</time></trkpt><trkpt lat="49.3301213582974" lon="0.9590927824892433"><ele>97.66666666666666</ele><time>2026-03-30T17:01:15Z</time></trkpt><trkpt lat="49.3300964645553" lon="0.9589656446136295"><ele>98.0</ele><time>2026-03-30T17:01:16Z</time></trkpt><trkpt lat="49.33010698955021" lon="0.9588417529365787"><ele>97.99999999999999</ele><time>2026-03-30T17:01:17Z</time></trkpt><trkpt lat="49.330114873332" lon="0.9587149646820736"><ele>98.0</ele><time>2026-03-30T17:01:18Z</time></trkpt><trkpt lat="49.33011922969685" lon="0.9585805290139449"><ele>98.0</ele><time>2026-03-30T17:01:19Z</time></trkpt><trkpt lat="49.33011462003452" lon="0.9584266827419122"><ele>98.0</ele><time>2026-03-30T17:01:20Z</time></trkpt><trkpt lat="49.33010310973802" lon="0.9582880798090936"><ele>97.99999999999999</ele><time>2026-03-30T17:01:21Z</time></trkpt><trkpt lat="49.330090627492574" lon="0.9581728964708514"><ele>98.0</ele><time>2026-03-30T17:01:22Z</time></trkpt><trkpt lat="49.33012610684677" lon="0.9580894719366638"><ele>98.60000000000001</ele><time>2026-03-30T17:01:23Z</time></trkpt><trkpt lat="49.33013728349876" lon="0.9579678901143759"><ele>99.2</ele><time>2026-03-30T17:01:25Z</time></trkpt><trkpt lat="49.330176314685474" lon="0.9577336248261605"><ele>99.8</ele><time>2026-03-30T17:01:26.999Z</time></trkpt><trkpt lat="49.3301846442561" lon="0.957600500766179"><ele>100.4</ele><time>2026-03-30T17:01:27.999Z</time></trkpt><trkpt lat="49.33018404888225" lon="0.95750172271753"><ele>101.0</ele><time>2026-03-30T17:01:28.999Z</time></trkpt><trkpt lat="49.33020000298804" lon="0.9573708211705441"><ele>100.99999999999999</ele><time>2026-03-30T17:01:29.999Z</time></trkpt><trkpt lat="49.330232152307126" lon="0.9572464474710065"><ele>101.0</ele><time>2026-03-30T17:01:30.999Z</time></trkpt><trkpt lat="49.330265757361005" lon="0.9571297492771762"><ele>101.0</ele><time>2026-03-30T17:01:31.999Z</time></trkpt><trkpt lat="49.3302837170292" lon="0.9570247196216485"><ele>101.0</ele><time>2026-03-30T17:01:32.999Z</time></trkpt><trkpt lat="49.3303096861581" lon="0.9569305214412374"><ele>100.99999999999999</ele><time>2026-03-30T17:01:33.999Z</time></trkpt><trkpt lat="49.33034515617084" lon="0.9568246852166794"><ele>101.0</ele><time>2026-03-30T17:01:34.999Z</time></trkpt><trkpt lat="49.33036222059287" lon="0.9566832782164589"><ele>101.14285714285714</ele><time>2026-03-30T17:01:35.999Z</time></trkpt><trkpt lat="49.33041694863261" lon="0.9565946698839893"><ele>101.28571428571428</ele><time>2026-03-30T17:01:36.999Z</time></trkpt><trkpt lat="49.330445160113726" lon="0.9564963711193387"><ele>101.42857142857143</ele><time>2026-03-30T17:01:37.999Z</time></trkpt><trkpt lat="49.33047759680314" lon="0.9563925109305998"><ele>101.57142857142857</ele><time>2026-03-30T17:01:38.999Z</time></trkpt><trkpt lat="49.330455083083336" lon="0.9563009744012838"><ele>101.71428571428572</ele><time>2026-03-30T17:01:41.999Z</time></trkpt><trkpt lat="49.3303756631588" lon="0.9562931312166487"><ele>101.85714285714286</ele><time>2026-03-30T17:01:43.999Z</time></trkpt><trkpt lat="49.330307729581406" lon="0.9562571451318185"><ele>102.0</ele><time>2026-03-30T17:01:45.999Z</time></trkpt><trkpt lat="49.33023150472876" lon="0.9562423139871499"><ele>102.0</ele><time>2026-03-30T17:01:46.999Z</time></trkpt><trkpt lat="49.33014077823782" lon="0.9562131670176963"><ele>102.0</ele><time>2026-03-30T17:01:47.999Z</time></trkpt><trkpt lat="49.33004249766125" lon="0.95616397001685"><ele>102.0</ele><time>2026-03-30T17:01:48.999Z</time></trkpt><trkpt lat="49.32992644366617" lon="0.9561154371818066"><ele>102.0</ele><time>2026-03-30T17:01:49.999Z</time></trkpt><trkpt lat="49.329811150802186" lon="0.9560766971461158"><ele>102.0</ele><time>2026-03-30T17:01:50.999Z</time></trkpt><trkpt lat="49.3296881352971" lon="0.9560315530643381"><ele>103.8</ele><time>2026-03-30T17:01:51.999Z</time></trkpt><trkpt lat="49.329600467654494" lon="0.9560146413873277"><ele>105.6</ele><time>2026-03-30T17:01:52.999Z</time></trkpt><trkpt lat="49.329506438121655" lon="0.9559639249850905"><ele>107.39999999999999</ele><time>2026-03-30T17:01:53.999Z</time></trkpt><trkpt lat="49.3293965570868" lon="0.9559200322264855"><ele>109.19999999999999</ele><time>2026-03-30T17:01:54.999Z</time></trkpt><trkpt lat="49.329297339280174" lon="0.9558820068546253"><ele>111.0</ele><time>2026-03-30T17:01:55.999Z</time></trkpt><trkpt lat="49.329229339134116" lon="0.9558547512499347"><ele>112.16666666666667</ele><time>2026-03-30T17:01:56.999Z</time></trkpt><trkpt lat="49.329170196162515" lon="0.9558186086862656"><ele>113.33333333333334</ele><time>2026-03-30T17:01:57.999Z</time></trkpt><trkpt lat="49.329155586691265" lon="0.9557243684637623"><ele>114.5</ele><time>2026-03-30T17:01:59.999Z</time></trkpt><trkpt lat="49.329193061049445" lon="0.955642179545784"><ele>115.66666666666667</ele><time>2026-03-30T17:04:40.998Z</time></trkpt><trkpt lat="49.32915963866911" lon="0.9555153300766243"><ele>116.83333333333334</ele><time>2026-03-30T17:04:42.998Z</time></trkpt><trkpt lat="49.3291855004144" lon="0.9553219541630098"><ele>118.0</ele><time>2026-03-30T17:04:44.998Z</time></trkpt><trkpt lat="49.329212870910325" lon="0.9552150983231974"><ele>118.00000000000001</ele><time>2026-03-30T17:04:45.998Z</time></trkpt><trkpt lat="49.32923616611396" lon="0.9550995153505198"><ele>118.0</ele><time>2026-03-30T17:04:46.998Z</time></trkpt><trkpt lat="49.329249035515346" lon="0.9549914162812986"><ele>118.0</ele><time>2026-03-30T17:04:47.998Z</time></trkpt><trkpt lat="49.32927498092851" lon="0.9548854459984039"><ele>118.0</ele><time>2026-03-30T17:04:48.998Z</time></trkpt><trkpt lat="49.32929366516651" lon="0.9547511871325924"><ele>118.00000000000001</ele><time>2026-03-30T17:04:49.998Z</time></trkpt><trkpt lat="49.32931869284162" lon="0.9546012900585381"><ele>118.0</ele><time>2026-03-30T17:04:50.998Z</time></trkpt><trkpt lat="49.329344849022796" lon="0.9543976037597988"><ele>120.0</ele><time>2026-03-30T17:04:51.998Z</time></trkpt><trkpt lat="49.329376189705805" lon="0.954189674520257"><ele>122.00000000000001</ele><time>2026-03-30T17:04:52.998Z</time></trkpt><trkpt lat="49.32940471514386" lon="0.9540294600382897"><ele>124.00000000000001</ele><time>2026-03-30T17:04:53.998Z</time></trkpt><trkpt lat="49.329424909307555" lon="0.9538877119469901"><ele>126.0</ele><time>2026-03-30T17:04:54.998Z</time></trkpt><trkpt lat="49.329448454079525" lon="0.9537506429471819"><ele>128.0</ele><time>2026-03-30T17:04:55.998Z</time></trkpt><trkpt lat="49.32947546414559" lon="0.9536333496561561"><ele>128.0</ele><time>2026-03-30T17:04:56.998Z</time></trkpt><trkpt lat="49.3294967615596" lon="0.953528006037"><ele>128.0</ele><time>2026-03-30T17:04:57.998Z</time></trkpt><trkpt lat="49.32951824053676" lon="0.953432371372839"><ele>128.0</ele><time>2026-03-30T17:04:58.998Z</time></trkpt><trkpt lat="49.329536423234806" lon="0.9532333545402947"><ele>128.0</ele><time>2026-03-30T17:05:00.998Z</time></trkpt><trkpt lat="49.329559352776236" lon="0.9530942921018659"><ele>128.0</ele><time>2026-03-30T17:05:01.998Z</time></trkpt><trkpt lat="49.32957778642882" lon="0.952931262592237"><ele>127.0</ele><time>2026-03-30T17:05:03Z</time></trkpt><trkpt lat="49.329602129055125" lon="0.9527388720787785"><ele>126.0</ele><time>2026-03-30T17:05:04Z</time></trkpt><trkpt lat="49.3296323843768" lon="0.9525430297226734"><ele>125.0</ele><time>2026-03-30T17:05:05Z</time></trkpt><trkpt lat="49.3296610614694" lon="0.9523821815595825"><ele>124.0</ele><time>2026-03-30T17:05:06Z</time></trkpt><trkpt lat="49.329679592698625" lon="0.9522475511404704"><ele>123.66666666666667</ele><time>2026-03-30T17:05:07Z</time></trkpt><trkpt lat="49.329709870890106" lon="0.9521111331233751"><ele>123.33333333333334</ele><time>2026-03-30T17:05:08Z</time></trkpt><trkpt lat="49.32972602565691" lon="0.9519939434274689"><ele>123.0</ele><time>2026-03-30T17:05:09Z</time></trkpt><trkpt lat="49.32974083781696" lon="0.9518999044226876"><ele>122.66666666666666</ele><time>2026-03-30T17:05:10Z</time></trkpt><trkpt lat="49.32976020508944" lon="0.9517547234157796"><ele>122.33333333333333</ele><time>2026-03-30T17:05:12Z</time></trkpt><trkpt lat="49.32977926652385" lon="0.9516303059331879"><ele>122.0</ele><time>2026-03-30T17:05:15Z</time></trkpt><trkpt lat="49.32980274785373" lon="0.951539948841537"><ele>119.99999999999999</ele><time>2026-03-30T17:05:18Z</time></trkpt><trkpt lat="49.32986943343298" lon="0.9514487044838505"><ele>118.0</ele><time>2026-03-30T17:05:21Z</time></trkpt><trkpt lat="49.32987036536475" lon="0.9513284229214779"><ele>116.0</ele><time>2026-03-30T17:05:24Z</time></trkpt><trkpt lat="49.32983456875148" lon="0.951213634944263"><ele>114.0</ele><time>2026-03-30T17:05:26Z</time></trkpt><trkpt lat="49.32984942524305" lon="0.9511161406309832"><ele>111.99999999999999</ele><time>2026-03-30T17:05:28Z</time></trkpt><trkpt lat="49.32987895044159" lon="0.9509581593366123"><ele>110.0</ele><time>2026-03-30T17:05:30Z</time></trkpt><trkpt lat="49.32987928144885" lon="0.9508068884446028"><ele>109.2</ele><time>2026-03-30T17:05:32Z</time></trkpt><trkpt lat="49.32988786942534" lon="0.9507026140785093"><ele>108.4</ele><time>2026-03-30T17:05:33.999Z</time></trkpt><trkpt lat="49.32997235822544" lon="0.9506618362889703"><ele>107.6</ele><time>2026-03-30T17:05:36.999Z</time></trkpt><trkpt lat="49.33006548369507" lon="0.950671902796531"><ele>106.8</ele><time>2026-03-30T17:05:38.999Z</time></trkpt><trkpt lat="49.33014526871399" lon="0.9506986794050558"><ele>106.0</ele><time>2026-03-30T17:05:39.999Z</time></trkpt><trkpt lat="49.330269616914904" lon="0.9507112245919743"><ele>106.0</ele><time>2026-03-30T17:05:41.999Z</time></trkpt><trkpt lat="49.3303739638783" lon="0.9507362523166711"><ele>106.0</ele><time>2026-03-30T17:05:43.999Z</time></trkpt><trkpt lat="49.33047321864137" lon="0.9507922213772458"><ele>106.0</ele><time>2026-03-30T17:05:45.999Z</time></trkpt><trkpt lat="49.33055171947043" lon="0.9508091036326671"><ele>106.0</ele><time>2026-03-30T17:05:47.999Z</time></trkpt><trkpt lat="49.330648088831246" lon="0.9508235000377657"><ele>106.0</ele><time>2026-03-30T17:05:50.999Z</time></trkpt><trkpt lat="49.330737808555035" lon="0.9508874474523402"><ele>102.66666666666667</ele><time>2026-03-30T17:05:52.999Z</time></trkpt><trkpt lat="49.33100890874604" lon="0.9509944762653659"><ele>99.33333333333334</ele><time>2026-03-30T17:05:55.999Z</time></trkpt><trkpt lat="49.33108775754412" lon="0.9511036382948229"><ele>96.0</ele><time>2026-03-30T17:05:57.999Z</time></trkpt><trkpt lat="49.331120463535584" lon="0.9512386793219082"><ele>96.0</ele><time>2026-03-30T17:05:59.999Z</time></trkpt><trkpt lat="49.331171109676006" lon="0.9513668138561266"><ele>96.0</ele><time>2026-03-30T17:06:01.999Z</time></trkpt><trkpt lat="49.331240329192276" lon="0.9513675793535948"><ele>96.0</ele><time>2026-03-30T17:06:06.999Z</time></trkpt><trkpt lat="49.33129958824825" lon="0.9512772105552133"><ele>96.0</ele><time>2026-03-30T17:06:37.998Z</time></trkpt><trkpt lat="49.33137030037207" lon="0.9512678375503806"><ele>96.0</ele><time>2026-03-30T17:06:42.998Z</time></trkpt><trkpt lat="49.331413137535236" lon="0.95133983271565"><ele>96.0</ele><time>2026-03-30T17:06:44.998Z</time></trkpt><trkpt lat="49.331449718804215" lon="0.9514250292307169"><ele>96.66666666666667</ele><time>2026-03-30T17:06:46.998Z</time></trkpt><trkpt lat="49.331503861473315" lon="0.9515193640591008"><ele>97.33333333333334</ele><time>2026-03-30T17:06:49.998Z</time></trkpt><trkpt lat="49.33158356383572" lon="0.9516090767043003"><ele>98.0</ele><time>2026-03-30T17:06:51.998Z</time></trkpt><trkpt lat="49.331638153272536" lon="0.9517191672486177"><ele>98.66666666666667</ele><time>2026-03-30T17:06:53.998Z</time></trkpt><trkpt lat="49.33167142610796" lon="0.9518412220827683"><ele>99.33333333333334</ele><time>2026-03-30T17:06:55.998Z</time></trkpt><trkpt lat="49.3317322521147" lon="0.951886574404423"><ele>100.0</ele><time>2026-03-30T17:06:57.998Z</time></trkpt><trkpt lat="49.33175800612041" lon="0.9519765108026731"><ele>97.2</ele><time>2026-03-30T17:06:59.998Z</time></trkpt><trkpt lat="49.33182791063152" lon="0.9520564671658298"><ele>94.4</ele><time>2026-03-30T17:07:02.998Z</time></trkpt><trkpt lat="49.33190039018539" lon="0.9520935783395252"><ele>91.6</ele><time>2026-03-30T17:07:06.998Z</time></trkpt><trkpt lat="49.331962201385295" lon="0.952120818236053"><ele>88.8</ele><time>2026-03-30T17:07:09Z</time></trkpt><trkpt lat="49.33204290518076" lon="0.9521404898922537"><ele>86.0</ele><time>2026-03-30T17:07:11Z</time></trkpt><trkpt lat="49.332214976410626" lon="0.9522221654581836"><ele>86.5</ele><time>2026-03-30T17:07:14Z</time></trkpt><trkpt lat="49.3323276919574" lon="0.9522282695289005"><ele>87.0</ele><time>2026-03-30T17:07:15Z</time></trkpt><trkpt lat="49.33241767747896" lon="0.9522544772530632"><ele>87.5</ele><time>2026-03-30T17:07:17Z</time></trkpt><trkpt lat="49.33247416063427" lon="0.9523082562850941"><ele>88.0</ele><time>2026-03-30T17:07:19Z</time></trkpt><trkpt lat="49.33253522179961" lon="0.9523535999337405"><ele>88.5</ele><time>2026-03-30T17:07:21Z</time></trkpt><trkpt lat="49.33262072599101" lon="0.9524088572192129"><ele>89.0</ele><time>2026-03-30T17:07:24Z</time></trkpt><trkpt lat="49.33267825446419" lon="0.952495167532742"><ele>87.83333333333334</ele><time>2026-03-30T17:07:26Z</time></trkpt><trkpt lat="49.33273657189359" lon="0.9525893555699536"><ele>86.66666666666667</ele><time>2026-03-30T17:07:28Z</time></trkpt><trkpt lat="49.332789147916806" lon="0.9526432116189254"><ele>85.5</ele><time>2026-03-30T17:07:30Z</time></trkpt><trkpt lat="49.33285333612714" lon="0.9526590060602924"><ele>84.33333333333333</ele><time>2026-03-30T17:07:32Z</time></trkpt><trkpt lat="49.33294538769737" lon="0.9526875949668433"><ele>83.16666666666666</ele><time>2026-03-30T17:07:34.999Z</time></trkpt><trkpt lat="49.33299360700368" lon="0.9527631526010774"><ele>82.0</ele><time>2026-03-30T17:07:38.999Z</time></trkpt><trkpt lat="49.33306119605843" lon="0.9528753345283661"><ele>82.0</ele><time>2026-03-30T17:07:41.999Z</time></trkpt><trkpt lat="49.33309573463078" lon="0.9529843763207387"><ele>82.0</ele><time>2026-03-30T17:07:43.999Z</time></trkpt><trkpt lat="49.3331783717701" lon="0.9530256140198508"><ele>82.0</ele><time>2026-03-30T17:07:46.999Z</time></trkpt><trkpt lat="49.33324137356825" lon="0.9530967336372236"><ele>82.0</ele><time>2026-03-30T17:07:48.999Z</time></trkpt><trkpt lat="49.33328092693079" lon="0.9531840310980252"><ele>82.0</ele><time>2026-03-30T17:07:50.999Z</time></trkpt><trkpt lat="49.33330049683611" lon="0.9532883781097395"><ele>82.0</ele><time>2026-03-30T17:07:52.999Z</time></trkpt><trkpt lat="49.333355288812676" lon="0.953356844324222"><ele>80.0</ele><time>2026-03-30T17:07:54.999Z</time></trkpt><trkpt lat="49.333431349718055" lon="0.9534386195853813"><ele>78.0</ele><time>2026-03-30T17:07:56.999Z</time></trkpt><trkpt lat="49.333477165078335" lon="0.953573971021708"><ele>76.0</ele><time>2026-03-30T17:07:59.999Z</time></trkpt><trkpt lat="49.33348721748116" lon="0.9536936203547312"><ele>74.0</ele><time>2026-03-30T17:08:01.999Z</time></trkpt><trkpt lat="49.333535811419026" lon="0.9538165741167673"><ele>72.0</ele><time>2026-03-30T17:08:05.999Z</time></trkpt><trkpt lat="49.33357152636041" lon="0.9539346668812874"><ele>70.0</ele><time>2026-03-30T17:08:07.999Z</time></trkpt><trkpt lat="49.333591471850816" lon="0.9540376357260719"><ele>70.0</ele><time>2026-03-30T17:08:08.999Z</time></trkpt><trkpt lat="49.333587677899956" lon="0.9541507029317513"><ele>70.0</ele><time>2026-03-30T17:08:10.999Z</time></trkpt><trkpt lat="49.33355044822325" lon="0.9543027802955857"><ele>70.0</ele><time>2026-03-30T17:08:13.999Z</time></trkpt><trkpt lat="49.333507449659926" lon="0.954380903698565"><ele>70.0</ele><time>2026-03-30T17:08:15.999Z</time></trkpt><trkpt lat="49.33343519685147" lon="0.9544253081914305"><ele>70.0</ele><time>2026-03-30T17:08:18.999Z</time></trkpt><trkpt lat="49.333403317053396" lon="0.954513177956853"><ele>70.0</ele><time>2026-03-30T17:08:20.999Z</time></trkpt><trkpt lat="49.33336404298097" lon="0.9546193348401556"><ele>68.66666666666666</ele><time>2026-03-30T17:08:23.999Z</time></trkpt><trkpt lat="49.33335445205721" lon="0.9547324857301002"><ele>67.33333333333333</ele><time>2026-03-30T17:08:26.999Z</time></trkpt><trkpt lat="49.333332021391136" lon="0.9548270249421146"><ele>66.0</ele><time>2026-03-30T17:08:28.999Z</time></trkpt><trkpt lat="49.33333181297707" lon="0.9549370028915599"><ele>64.66666666666667</ele><time>2026-03-30T17:08:30.999Z</time></trkpt><trkpt lat="49.33335246816605" lon="0.9550338990477183"><ele>63.333333333333336</ele><time>2026-03-30T17:08:32.998Z</time></trkpt><trkpt lat="49.33334574597389" lon="0.9551865756350326"><ele>62.0</ele><time>2026-03-30T17:08:35.998Z</time></trkpt><trkpt lat="49.333319693348514" lon="0.9553103690392384"><ele>61.16666666666667</ele><time>2026-03-30T17:08:38.998Z</time></trkpt><trkpt lat="49.333272181530184" lon="0.9554105705604501"><ele>60.333333333333336</ele><time>2026-03-30T17:08:40.998Z</time></trkpt><trkpt lat="49.33327115124272" lon="0.9555091699361931"><ele>59.5</ele><time>2026-03-30T17:08:42.998Z</time></trkpt><trkpt lat="49.33325477240868" lon="0.9556061512537742"><ele>58.66666666666667</ele><time>2026-03-30T17:08:44.998Z</time></trkpt><trkpt lat="49.33322846257723" lon="0.9557431106826543"><ele>57.833333333333336</ele><time>2026-03-30T17:08:47.998Z</time></trkpt><trkpt lat="49.33326070063224" lon="0.9558466762757044"><ele>57.0</ele><time>2026-03-30T17:08:50.998Z</time></trkpt><trkpt lat="49.33333737134816" lon="0.95588631626193"><ele>54.75</ele><time>2026-03-30T17:08:53.998Z</time></trkpt><trkpt lat="49.33341772262756" lon="0.9559559366033499"><ele>52.5</ele><time>2026-03-30T17:08:56.998Z</time></trkpt><trkpt lat="49.33353655492187" lon="0.9561291500109201"><ele>50.25</ele><time>2026-03-30T17:08:59.998Z</time></trkpt><trkpt lat="49.3336372811434" lon="0.9562299906429323"><ele>48.0</ele><time>2026-03-30T17:09:01.998Z</time></trkpt><trkpt lat="49.33371398160743" lon="0.9563299747070129"><ele>48.0</ele><time>2026-03-30T17:09:03.998Z</time></trkpt><trkpt lat="49.33378626750078" lon="0.9564192143389556"><ele>48.0</ele><time>2026-03-30T17:09:05.998Z</time></trkpt><trkpt lat="49.3338262083997" lon="0.9565113492836232"><ele>48.0</ele><time>2026-03-30T17:09:07.998Z</time></trkpt><trkpt lat="49.33385800084117" lon="0.9566165167807271"><ele>48.0</ele><time>2026-03-30T17:09:09.998Z</time></trkpt><trkpt lat="49.3338751494735" lon="0.9567495202749097"><ele>48.0</ele><time>2026-03-30T17:09:11.998Z</time></trkpt><trkpt lat="49.33387520650981" lon="0.9569182183548169"><ele>48.0</ele><time>2026-03-30T17:09:14Z</time></trkpt><trkpt lat="49.33386518429469" lon="0.9570649291539592"><ele>48.0</ele><time>2026-03-30T17:09:16Z</time></trkpt><trkpt lat="49.33389881286414" lon="0.9569385379341107"><ele>48.0</ele><time>2026-03-30T17:09:22Z</time></trkpt><trkpt lat="49.33387834214535" lon="0.9568351260434246"><ele>48.0</ele><time>2026-03-30T17:09:24Z</time></trkpt><trkpt lat="49.33387953863621" lon="0.9567312035575841"><ele>48.0</ele><time>2026-03-30T17:09:27Z</time></trkpt><trkpt lat="49.33385770683321" lon="0.9566089538889944"><ele>48.0</ele><time>2026-03-30T17:09:30Z</time></trkpt><trkpt lat="49.333820543071404" lon="0.9564649045508142"><ele>48.0</ele><time>2026-03-30T17:09:32Z</time></trkpt><trkpt lat="49.33377993602719" lon="0.956389378280819"><ele>48.0</ele><time>2026-03-30T17:09:33Z</time></trkpt><trkpt lat="49.33371792890545" lon="0.956269346702995"><ele>48.0</ele><time>2026-03-30T17:09:35Z</time></trkpt><trkpt lat="49.33365669195299" lon="0.9561630889666972"><ele>48.0</ele><time>2026-03-30T17:09:37Z</time></trkpt><trkpt lat="49.33357865718178" lon="0.9560791077671206"><ele>48.0</ele><time>2026-03-30T17:09:39Z</time></trkpt><trkpt lat="49.33346837635623" lon="0.9560264271818154"><ele>48.0</ele><time>2026-03-30T17:09:40.999Z</time></trkpt><trkpt lat="49.33334230638724" lon="0.9560125608645419"><ele>48.0</ele><time>2026-03-30T17:09:42.999Z</time></trkpt><trkpt lat="49.3332690008499" lon="0.9560037898009607"><ele>48.0</ele><time>2026-03-30T17:09:44.999Z</time></trkpt><trkpt lat="49.33318295804082" lon="0.9560203315695845"><ele>48.0</ele><time>2026-03-30T17:09:47.999Z</time></trkpt><trkpt lat="49.33281332391887" lon="0.9560044858013981"><ele>50.5</ele><time>2026-03-30T17:09:51.999Z</time></trkpt><trkpt lat="49.33278735336065" lon="0.9556729855863167"><ele>53.0</ele><time>2026-03-30T17:09:52.999Z</time></trkpt><trkpt lat="49.33281223375858" lon="0.9554907986920169"><ele>55.5</ele><time>2026-03-30T17:09:53.999Z</time></trkpt><trkpt lat="49.33284305924724" lon="0.9553676966323907"><ele>58.0</ele><time>2026-03-30T17:09:54.999Z</time></trkpt><trkpt lat="49.33288944424327" lon="0.9552615248584921"><ele>58.0</ele><time>2026-03-30T17:09:56.999Z</time></trkpt><trkpt lat="49.33292334757762" lon="0.9551478668456267"><ele>58.0</ele><time>2026-03-30T17:09:58.999Z</time></trkpt><trkpt lat="49.33318332782682" lon="0.9545324703910886"><ele>58.666666666666664</ele><time>2026-03-30T17:10:09.999Z</time></trkpt><trkpt lat="49.33326614182664" lon="0.9544460682605859"><ele>59.33333333333333</ele><time>2026-03-30T17:10:14.999Z</time></trkpt><trkpt lat="49.333337752039675" lon="0.9544312751431966"><ele>60.0</ele><time>2026-03-30T17:10:17.999Z</time></trkpt><trkpt lat="49.333390535929766" lon="0.9543766350729405"><ele>60.66666666666667</ele><time>2026-03-30T17:10:19.999Z</time></trkpt><trkpt lat="49.33341276706426" lon="0.9542326734409052"><ele>61.333333333333336</ele><time>2026-03-30T17:10:22.999Z</time></trkpt><trkpt lat="49.33341108198098" lon="0.9540643734004268"><ele>62.0</ele><time>2026-03-30T17:10:25.999Z</time></trkpt><trkpt lat="49.333408343727214" lon="0.9539645220263119"><ele>63.142857142857146</ele><time>2026-03-30T17:10:26.999Z</time></trkpt><trkpt lat="49.33338321180446" lon="0.9538152654845753"><ele>64.28571428571429</ele><time>2026-03-30T17:10:28.999Z</time></trkpt><trkpt lat="49.33340554136374" lon="0.953718928138794"><ele>65.42857142857143</ele><time>2026-03-30T17:10:30.999Z</time></trkpt><trkpt lat="49.33344849273855" lon="0.95362811173811"><ele>66.57142857142857</ele><time>2026-03-30T17:10:32.999Z</time></trkpt><trkpt lat="49.33344113381591" lon="0.9535318039929792"><ele>67.71428571428572</ele><time>2026-03-30T17:10:35.999Z</time></trkpt><trkpt lat="49.33340806842216" lon="0.9534277587176352"><ele>68.85714285714286</ele><time>2026-03-30T17:10:37.998Z</time></trkpt><trkpt lat="49.3333796618114" lon="0.9533330552202525"><ele>70.0</ele><time>2026-03-30T17:10:39.998Z</time></trkpt><trkpt lat="49.33331598872043" lon="0.9532587535238208"><ele>70.83333333333333</ele><time>2026-03-30T17:10:42.998Z</time></trkpt><trkpt lat="49.33326544425767" lon="0.9531855116261012"><ele>71.66666666666666</ele><time>2026-03-30T17:10:44.998Z</time></trkpt><trkpt lat="49.33323623961768" lon="0.9530960277383861"><ele>72.5</ele><time>2026-03-30T17:10:47.998Z</time></trkpt><trkpt lat="49.33319527991383" lon="0.9530091363023585"><ele>73.33333333333333</ele><time>2026-03-30T17:10:49.998Z</time></trkpt><trkpt lat="49.33313045905493" lon="0.9529579356667455"><ele>74.16666666666667</ele><time>2026-03-30T17:10:51.998Z</time></trkpt><trkpt lat="49.33302773254573" lon="0.9529407286481206"><ele>75.0</ele><time>2026-03-30T17:10:54.998Z</time></trkpt><trkpt lat="49.33295602671485" lon="0.9528769610112923"><ele>75.0</ele><time>2026-03-30T17:10:56.998Z</time></trkpt><trkpt lat="49.332910785209386" lon="0.9527610620421487"><ele>75.0</ele><time>2026-03-30T17:10:59.998Z</time></trkpt><trkpt lat="49.33285302345137" lon="0.9526776920911493"><ele>75.0</ele><time>2026-03-30T17:11:01.998Z</time></trkpt><trkpt lat="49.3327713484236" lon="0.9526014589736944"><ele>75.0</ele><time>2026-03-30T17:11:04.998Z</time></trkpt><trkpt lat="49.3327051184027" lon="0.9525182311935233"><ele>75.0</ele><time>2026-03-30T17:11:07.998Z</time></trkpt><trkpt lat="49.332641223571336" lon="0.9524871904621154"><ele>75.0</ele><time>2026-03-30T17:11:09.998Z</time></trkpt><trkpt lat="49.33242939177458" lon="0.9522898235172651"><ele>80.5</ele><time>2026-03-30T17:11:12.998Z</time></trkpt><trkpt lat="49.33200690179487" lon="0.952094966618804"><ele>86.0</ele><time>2026-03-30T17:11:13.998Z</time></trkpt><trkpt lat="49.331903411506396" lon="0.9520587954251245"><ele>86.0</ele><time>2026-03-30T17:11:15.998Z</time></trkpt><trkpt lat="49.331831673070006" lon="0.9520594977298648"><ele>86.0</ele><time>2026-03-30T17:11:17.998Z</time></trkpt><trkpt lat="49.33174631058166" lon="0.9520300789900193"><ele>86.0</ele><time>2026-03-30T17:11:22Z</time></trkpt><trkpt lat="49.33169590716023" lon="0.9519255250146343"><ele>86.0</ele><time>2026-03-30T17:11:24Z</time></trkpt><trkpt lat="49.3316362626503" lon="0.9518219038800133"><ele>86.0</ele><time>2026-03-30T17:11:26Z</time></trkpt><trkpt lat="49.33158832410553" lon="0.9517049488757447"><ele>86.0</ele><time>2026-03-30T17:11:28Z</time></trkpt><trkpt lat="49.33151602830718" lon="0.9516116393521865"><ele>87.66666666666667</ele><time>2026-03-30T17:11:30Z</time></trkpt><trkpt lat="49.33146974687253" lon="0.951524680153781"><ele>89.33333333333334</ele><time>2026-03-30T17:11:32Z</time></trkpt><trkpt lat="49.331432469651794" lon="0.9514318112586092"><ele>91.0</ele><time>2026-03-30T17:11:34Z</time></trkpt><trkpt lat="49.33142271280974" lon="0.951269969135728"><ele>92.66666666666667</ele><time>2026-03-30T17:11:36Z</time></trkpt><trkpt lat="49.331326576205505" lon="0.9512379091930356"><ele>94.33333333333333</ele><time>2026-03-30T17:11:38Z</time></trkpt><trkpt lat="49.33124191447926" lon="0.9512294153919788"><ele>96.0</ele><time>2026-03-30T17:11:41Z</time></trkpt><trkpt lat="49.33115108868669" lon="0.9511743883330935"><ele>96.0</ele><time>2026-03-30T17:11:44.999Z</time></trkpt><trkpt lat="49.331078191064385" lon="0.95117403529351"><ele>96.0</ele><time>2026-03-30T17:11:48.999Z</time></trkpt><trkpt lat="49.330999894191784" lon="0.9511536393020983"><ele>96.0</ele><time>2026-03-30T17:12:44.998Z</time></trkpt><trkpt lat="49.33092353336877" lon="0.9512079735411119"><ele>96.0</ele><time>2026-03-30T17:13:46.999Z</time></trkpt><trkpt lat="49.330856184509805" lon="0.951213366603129"><ele>96.0</ele><time>2026-03-30T17:13:49.999Z</time></trkpt><trkpt lat="49.33081559114472" lon="0.951138467628056"><ele>96.0</ele><time>2026-03-30T17:13:52.999Z</time></trkpt><trkpt lat="49.33077280672522" lon="0.9510231314928689"><ele>96.0</ele><time>2026-03-30T17:13:55.999Z</time></trkpt><trkpt lat="49.330720299669224" lon="0.9509058813757281"><ele>96.0</ele><time>2026-03-30T17:13:58.999Z</time></trkpt><trkpt lat="49.33063811029884" lon="0.9508776370697195"><ele>96.0</ele><time>2026-03-30T17:14:00.999Z</time></trkpt><trkpt lat="49.330552649989144" lon="0.9508903407089547"><ele>96.0</ele><time>2026-03-30T17:14:02.999Z</time></trkpt><trkpt lat="49.33047417913583" lon="0.950847226822797"><ele>96.0</ele><time>2026-03-30T17:14:04.999Z</time></trkpt><trkpt lat="49.33039947558185" lon="0.9507971100000643"><ele>96.0</ele><time>2026-03-30T17:14:05.999Z</time></trkpt><trkpt lat="49.33028357926674" lon="0.9507668026654688"><ele>97.66666666666667</ele><time>2026-03-30T17:14:07.999Z</time></trkpt><trkpt lat="49.33019472499943" lon="0.9507163134782597"><ele>99.33333333333334</ele><time>2026-03-30T17:14:09.999Z</time></trkpt><trkpt lat="49.3301042395708" lon="0.9506849609923257"><ele>101.0</ele><time>2026-03-30T17:14:11.999Z</time></trkpt><trkpt lat="49.3300270386831" lon="0.9506489969421509"><ele>102.66666666666667</ele><time>2026-03-30T17:14:13.999Z</time></trkpt><trkpt lat="49.329963354341075" lon="0.9506661337630592"><ele>104.33333333333334</ele><time>2026-03-30T17:14:16.999Z</time></trkpt><trkpt lat="49.32992727748803" lon="0.9507610788370887"><ele>106.0</ele><time>2026-03-30T17:14:19.999Z</time></trkpt><trkpt lat="49.32991518656283" lon="0.9509337024889547"><ele>106.66666666666667</ele><time>2026-03-30T17:14:21.999Z</time></trkpt><trkpt lat="49.3298873364554" lon="0.9510955567861992"><ele>107.33333333333334</ele><time>2026-03-30T17:14:23.999Z</time></trkpt><trkpt lat="49.32987487029633" lon="0.9512290472753242"><ele>108.0</ele><time>2026-03-30T17:14:25.999Z</time></trkpt><trkpt lat="49.3298720344025" lon="0.9513525703876881"><ele>108.66666666666666</ele><time>2026-03-30T17:14:27.999Z</time></trkpt><trkpt lat="49.32987255990435" lon="0.9514749712215576"><ele>109.33333333333333</ele><time>2026-03-30T17:14:30.999Z</time></trkpt><trkpt lat="49.32982273577712" lon="0.9515443793611544"><ele>110.0</ele><time>2026-03-30T17:14:32.999Z</time></trkpt><trkpt lat="49.32979684906389" lon="0.9516638501989313"><ele>111.4</ele><time>2026-03-30T17:14:34.999Z</time></trkpt><trkpt lat="49.329770476568456" lon="0.9517932863583781"><ele>112.8</ele><time>2026-03-30T17:14:37.999Z</time></trkpt><trkpt lat="49.32975225186103" lon="0.9519029670091298"><ele>114.19999999999999</ele><time>2026-03-30T17:14:39.999Z</time></trkpt><trkpt lat="49.32972952587085" lon="0.9520827596073818"><ele>115.6</ele><time>2026-03-30T17:14:41.999Z</time></trkpt><trkpt lat="49.32970896963292" lon="0.952236128311506"><ele>117.0</ele><time>2026-03-30T17:14:42.998Z</time></trkpt><trkpt lat="49.32967945066665" lon="0.9524384530871263"><ele>119.33333333333334</ele><time>2026-03-30T17:14:43.998Z</time></trkpt><trkpt lat="49.32965204937166" lon="0.9526471506072305"><ele>121.66666666666667</ele><time>2026-03-30T17:14:44.998Z</time></trkpt><trkpt lat="49.32961561674285" lon="0.9528905093588769"><ele>124.0</ele><time>2026-03-30T17:14:45.998Z</time></trkpt><trkpt lat="49.32958941254292" lon="0.95311926878191"><ele>124.0</ele><time>2026-03-30T17:14:46.998Z</time></trkpt><trkpt lat="49.32955951174209" lon="0.9533264298936837"><ele>124.0</ele><time>2026-03-30T17:14:47.998Z</time></trkpt><trkpt lat="49.329525016310924" lon="0.953495724623651"><ele>124.0</ele><time>2026-03-30T17:14:48.998Z</time></trkpt><trkpt lat="49.32948932982348" lon="0.9536796224514408"><ele>124.0</ele><time>2026-03-30T17:14:49.998Z</time></trkpt><trkpt lat="49.32944958299112" lon="0.9539128204293421"><ele>124.75</ele><time>2026-03-30T17:14:50.998Z</time></trkpt><trkpt lat="49.3294214892302" lon="0.9541234577437504"><ele>125.5</ele><time>2026-03-30T17:14:51.998Z</time></trkpt><trkpt lat="49.32940090946034" lon="0.9543027396487636"><ele>126.25</ele><time>2026-03-30T17:14:52.998Z</time></trkpt><trkpt lat="49.32938200707138" lon="0.9544786927977096"><ele>127.0</ele><time>2026-03-30T17:14:53.998Z</time></trkpt><trkpt lat="49.329355730170136" lon="0.9546345236766164"><ele>127.0</ele><time>2026-03-30T17:14:54.998Z</time></trkpt><trkpt lat="49.32933867099149" lon="0.9548020406174945"><ele>126.99999999999999</ele><time>2026-03-30T17:14:55.998Z</time></trkpt><trkpt lat="49.329310066216046" lon="0.9549885693255457"><ele>126.99999999999999</ele><time>2026-03-30T17:14:56.998Z</time></trkpt><trkpt lat="49.3292836173362" lon="0.9551440131566313"><ele>127.0</ele><time>2026-03-30T17:14:57.998Z</time></trkpt><trkpt lat="49.329255707816166" lon="0.9552825710819187"><ele>127.0</ele><time>2026-03-30T17:14:58.998Z</time></trkpt><trkpt lat="49.32923936940055" lon="0.9554057484925343"><ele>125.50000000000001</ele><time>2026-03-30T17:14:59.998Z</time></trkpt><trkpt lat="49.32922269601444" lon="0.955508990381053"><ele>124.0</ele><time>2026-03-30T17:15:00.998Z</time></trkpt><trkpt lat="49.329192658792984" lon="0.9556020771622306"><ele>122.5</ele><time>2026-03-30T17:15:01.998Z</time></trkpt><trkpt lat="49.32916526563955" lon="0.9557681083021938"><ele>121.0</ele><time>2026-03-30T17:15:03.998Z</time></trkpt><trkpt lat="49.32914752447767" lon="0.9558742735635224"><ele>119.50000000000001</ele><time>2026-03-30T17:15:05.998Z</time></trkpt><trkpt lat="49.32913846841387" lon="0.9559721809318077"><ele>118.0</ele><time>2026-03-30T17:15:07.998Z</time></trkpt><trkpt lat="49.32911469828537" lon="0.9560794422341405"><ele>116.60000000000001</ele><time>2026-03-30T17:15:09.998Z</time></trkpt><trkpt lat="49.32910955431846" lon="0.956228307052712"><ele>115.20000000000002</ele><time>2026-03-30T17:15:11.998Z</time></trkpt><trkpt lat="49.329060049499" lon="0.9564466727051468"><ele>113.8</ele><time>2026-03-30T17:15:13.998Z</time></trkpt><trkpt lat="49.329033081211605" lon="0.956603590780128"><ele>112.4</ele><time>2026-03-30T17:15:15.998Z</time></trkpt><trkpt lat="49.32901745096926" lon="0.9567417027833505"><ele>111.0</ele><time>2026-03-30T17:15:17.998Z</time></trkpt><trkpt lat="49.3289956172245" lon="0.9568645025765494"><ele>110.4</ele><time>2026-03-30T17:15:19.998Z</time></trkpt><trkpt lat="49.328971772955605" lon="0.9569563634196256"><ele>109.8</ele><time>2026-03-30T17:15:21.998Z</time></trkpt><trkpt lat="49.328995364405515" lon="0.9570522007226013"><ele>109.20000000000002</ele><time>2026-03-30T17:15:25.998Z</time></trkpt><trkpt lat="49.32906125959901" lon="0.9571778536438825"><ele>108.60000000000001</ele><time>2026-03-30T17:15:27.998Z</time></trkpt><trkpt lat="49.329129348031216" lon="0.9573277961411666"><ele>108.0</ele><time>2026-03-30T17:15:29.999Z</time></trkpt><trkpt lat="49.3291937024486" lon="0.9574927039754072"><ele>107.83333333333333</ele><time>2026-03-30T17:15:31.999Z</time></trkpt><trkpt lat="49.32922519612586" lon="0.9575878910418577"><ele>107.66666666666666</ele><time>2026-03-30T17:15:32.999Z</time></trkpt><trkpt lat="49.329261774679395" lon="0.9576942788026729"><ele>107.5</ele><time>2026-03-30T17:15:33.999Z</time></trkpt><trkpt lat="49.32930050871577" lon="0.9578143794223122"><ele>107.33333333333333</ele><time>2026-03-30T17:15:34.999Z</time></trkpt><trkpt lat="49.32934874817546" lon="0.95796204067157"><ele>107.16666666666666</ele><time>2026-03-30T17:15:35.999Z</time></trkpt><trkpt lat="49.3293848357201" lon="0.9580665594268588"><ele>107.0</ele><time>2026-03-30T17:15:36.999Z</time></trkpt><trkpt lat="49.329421266993926" lon="0.9581817293240654"><ele>107.0</ele><time>2026-03-30T17:15:37.999Z</time></trkpt><trkpt lat="49.32946099483937" lon="0.9583114438018582"><ele>106.99999999999999</ele><time>2026-03-30T17:15:38.999Z</time></trkpt><trkpt lat="49.32949741763311" lon="0.9584288231213464"><ele>106.99999999999999</ele><time>2026-03-30T17:15:39.999Z</time></trkpt><trkpt lat="49.32953432524723" lon="0.9585646884025084"><ele>107.0</ele><time>2026-03-30T17:15:40.999Z</time></trkpt><trkpt lat="49.32958721869191" lon="0.9586870962094942"><ele>107.0</ele><time>2026-03-30T17:15:41.999Z</time></trkpt><trkpt lat="49.32962622600959" lon="0.9588115003448062"><ele>106.39999999999999</ele><time>2026-03-30T17:15:42.999Z</time></trkpt><trkpt lat="49.32966880967724" lon="0.9588998659017894"><ele>105.79999999999998</ele><time>2026-03-30T17:15:43.999Z</time></trkpt><trkpt lat="49.329714354837265" lon="0.9589957776237029"><ele>105.2</ele><time>2026-03-30T17:15:44.999Z</time></trkpt><trkpt lat="49.32975134000446" lon="0.959185961216874"><ele>104.6</ele><time>2026-03-30T17:15:46.999Z</time></trkpt><trkpt lat="49.329809525755635" lon="0.9593593275313426"><ele>104.0</ele><time>2026-03-30T17:15:48.999Z</time></trkpt><trkpt lat="49.32983741027047" lon="0.9594511355020846"><ele>102.99999999999999</ele><time>2026-03-30T17:15:49.999Z</time></trkpt><trkpt lat="49.32987384571469" lon="0.9595498273178414"><ele>102.0</ele><time>2026-03-30T17:15:50.999Z</time></trkpt><trkpt lat="49.3298992428655" lon="0.9596464166112558"><ele>101.0</ele><time>2026-03-30T17:15:51.999Z</time></trkpt><trkpt lat="49.32996983071808" lon="0.9598116055224604"><ele>100.0</ele><time>2026-03-30T17:15:53.999Z</time></trkpt><trkpt lat="49.33000469999133" lon="0.9599099812555303"><ele>98.99999999999999</ele><time>2026-03-30T17:15:54.999Z</time></trkpt><trkpt lat="49.33002536091712" lon="0.960008845519291"><ele>98.0</ele><time>2026-03-30T17:15:55.999Z</time></trkpt><trkpt lat="49.330049786873744" lon="0.9601152036519984"><ele>97.71428571428571</ele><time>2026-03-30T17:15:56.999Z</time></trkpt><trkpt lat="49.33007558289454" lon="0.9602172576930104"><ele>97.42857142857143</ele><time>2026-03-30T17:15:57.999Z</time></trkpt><trkpt lat="49.33010417262744" lon="0.9603097442635249"><ele>97.14285714285714</ele><time>2026-03-30T17:15:58.999Z</time></trkpt><trkpt lat="49.33013325965963" lon="0.9604077904650147"><ele>96.85714285714286</ele><time>2026-03-30T17:15:59.999Z</time></trkpt><trkpt lat="49.330165840071686" lon="0.9604945755499346"><ele>96.57142857142857</ele><time>2026-03-30T17:16:00.999Z</time></trkpt><trkpt lat="49.330209941350105" lon="0.9605920688266311"><ele>96.28571428571428</ele><time>2026-03-30T17:16:01.999Z</time></trkpt><trkpt lat="49.33024024467791" lon="0.9606786071233026"><ele>96.0</ele><time>2026-03-30T17:16:02.999Z</time></trkpt><trkpt lat="49.33029505828142" lon="0.9608311857142069"><ele>94.5</ele><time>2026-03-30T17:16:04.999Z</time></trkpt><trkpt lat="49.33034556545745" lon="0.960994163474612"><ele>93.0</ele><time>2026-03-30T17:16:06.999Z</time></trkpt><trkpt lat="49.33036635348385" lon="0.9610908854484376"><ele>91.5</ele><time>2026-03-30T17:16:07.999Z</time></trkpt><trkpt lat="49.33042726347267" lon="0.9612564549116636"><ele>90.0</ele><time>2026-03-30T17:16:09.999Z</time></trkpt><trkpt lat="49.330467351508155" lon="0.9613391925992116"><ele>88.5</ele><time>2026-03-30T17:16:10.999Z</time></trkpt><trkpt lat="49.330488258013844" lon="0.961438123645303"><ele>87.0</ele><time>2026-03-30T17:16:11.999Z</time></trkpt><trkpt lat="49.33049818311956" lon="0.9615401370313019"><ele>87.0</ele><time>2026-03-30T17:16:12.999Z</time></trkpt><trkpt lat="49.330551510707124" lon="0.961654539936362"><ele>87.0</ele><time>2026-03-30T17:16:14.999Z</time></trkpt><trkpt lat="49.33057606463286" lon="0.961781520095053"><ele>87.0</ele><time>2026-03-30T17:16:16.999Z</time></trkpt><trkpt lat="49.330604518010496" lon="0.9618762242069234"><ele>87.0</ele><time>2026-03-30T17:16:19.999Z</time></trkpt><trkpt lat="49.330630345290785" lon="0.9620135618154335"><ele>87.0</ele><time>2026-03-30T17:16:22.999Z</time></trkpt><trkpt lat="49.33064778710346" lon="0.9621102038205749"><ele>87.0</ele><time>2026-03-30T17:16:25.999Z</time></trkpt><trkpt lat="49.3308712936737" lon="0.9627440392819937"><ele>86.66666666666667</ele><time>2026-03-30T17:16:28.999Z</time></trkpt><trkpt lat="49.33090386409519" lon="0.9628426597919811"><ele>86.33333333333333</ele><time>2026-03-30T17:16:29.999Z</time></trkpt><trkpt lat="49.33093670389714" lon="0.9629426612960413"><ele>86.0</ele><time>2026-03-30T17:16:30.999Z</time></trkpt><trkpt lat="49.330967934681595" lon="0.9630560963144524"><ele>85.66666666666666</ele><time>2026-03-30T17:16:31.999Z</time></trkpt><trkpt lat="49.330995820932245" lon="0.963167187638725"><ele>85.33333333333333</ele><time>2026-03-30T17:16:32.999Z</time></trkpt><trkpt lat="49.33103389469051" lon="0.9633098991943149"><ele>85.0</ele><time>2026-03-30T17:16:33.999Z</time></trkpt><trkpt lat="49.331081980938606" lon="0.9634846413276446"><ele>85.0</ele><time>2026-03-30T17:16:34.999Z</time></trkpt><trkpt lat="49.331133551467616" lon="0.9636786995797219"><ele>85.0</ele><time>2026-03-30T17:16:35.999Z</time></trkpt><trkpt lat="49.33120812436659" lon="0.9639359652618359"><ele>85.0</ele><time>2026-03-30T17:16:36.999Z</time></trkpt><trkpt lat="49.33128856900392" lon="0.9642049926444063"><ele>84.75</ele><time>2026-03-30T17:16:37.999Z</time></trkpt><trkpt lat="49.33136435661584" lon="0.9644204774769519"><ele>84.5</ele><time>2026-03-30T17:16:38.999Z</time></trkpt><trkpt lat="49.331431355550514" lon="0.9646145001328422"><ele>84.25</ele><time>2026-03-30T17:16:39.999Z</time></trkpt><trkpt lat="49.331488587713096" lon="0.9647852983351309"><ele>84.0</ele><time>2026-03-30T17:16:40.999Z</time></trkpt><trkpt lat="49.331537605988636" lon="0.9649188703533695"><ele>84.66666666666667</ele><time>2026-03-30T17:16:41.998Z</time></trkpt><trkpt lat="49.33157527243441" lon="0.9650409150656384"><ele>85.33333333333333</ele><time>2026-03-30T17:16:42.998Z</time></trkpt><trkpt lat="49.33160669500463" lon="0.9651541549353919"><ele>86.0</ele><time>2026-03-30T17:16:43.998Z</time></trkpt><trkpt lat="49.33164908200093" lon="0.9652819249168598"><ele>86.66666666666666</ele><time>2026-03-30T17:16:44.998Z</time></trkpt><trkpt lat="49.331661490612454" lon="0.965395570877262"><ele>87.33333333333333</ele><time>2026-03-30T17:16:45.998Z</time></trkpt><trkpt lat="49.33170426406481" lon="0.9655066096955294"><ele>88.0</ele><time>2026-03-30T17:16:46.998Z</time></trkpt><trkpt lat="49.33174687450104" lon="0.9656265177370875"><ele>88.0</ele><time>2026-03-30T17:16:47.998Z</time></trkpt><trkpt lat="49.33177968314591" lon="0.9657194251376126"><ele>88.0</ele><time>2026-03-30T17:16:48.998Z</time></trkpt><trkpt lat="49.33180584318174" lon="0.9658075233570224"><ele>88.0</ele><time>2026-03-30T17:16:49.998Z</time></trkpt><trkpt lat="49.33184270753765" lon="0.9658890617404967"><ele>88.0</ele><time>2026-03-30T17:16:50.998Z</time></trkpt><trkpt lat="49.33187648795993" lon="0.9659898673826156"><ele>88.0</ele><time>2026-03-30T17:16:51.998Z</time></trkpt><trkpt lat="49.331914180118645" lon="0.9661059854411943"><ele>88.0</ele><time>2026-03-30T17:16:52.998Z</time></trkpt><trkpt lat="49.331956273125755" lon="0.9662214911419336"><ele>88.0</ele><time>2026-03-30T17:16:53.998Z</time></trkpt><trkpt lat="49.331991030193535" lon="0.9663177460218112"><ele>88.33333333333333</ele><time>2026-03-30T17:16:54.998Z</time></trkpt><trkpt lat="49.33201905862823" lon="0.9664125194015372"><ele>88.66666666666666</ele><time>2026-03-30T17:16:55.998Z</time></trkpt><trkpt lat="49.33204793057827" lon="0.9665019204265324"><ele>89.0</ele><time>2026-03-30T17:16:56.998Z</time></trkpt><trkpt lat="49.33211199409055" lon="0.9666755401029126"><ele>89.33333333333333</ele><time>2026-03-30T17:16:58.998Z</time></trkpt><trkpt lat="49.332156679340194" lon="0.9667774077860143"><ele>89.66666666666667</ele><time>2026-03-30T17:16:59.998Z</time></trkpt><trkpt lat="49.33221395149444" lon="0.9668757695481239"><ele>90.0</ele><time>2026-03-30T17:17:00.998Z</time></trkpt><trkpt lat="49.332275499475884" lon="0.9669595250854203"><ele>84.8</ele><time>2026-03-30T17:17:01.998Z</time></trkpt><trkpt lat="49.332319117527234" lon="0.9670328597287424"><ele>79.6</ele><time>2026-03-30T17:17:02.998Z</time></trkpt><trkpt lat="49.33239176316587" lon="0.9671918473767743"><ele>74.4</ele><time>2026-03-30T17:17:04.998Z</time></trkpt><trkpt lat="49.332436316802124" lon="0.967295266204462"><ele>69.2</ele><time>2026-03-30T17:17:05.998Z</time></trkpt><trkpt lat="49.332486214916294" lon="0.9674197824025562"><ele>64.0</ele><time>2026-03-30T17:17:06.998Z</time></trkpt><trkpt lat="49.33255144614428" lon="0.9675335645233745"><ele>63.99999999999999</ele><time>2026-03-30T17:17:07.998Z</time></trkpt><trkpt lat="49.33260416276773" lon="0.9676191783544633"><ele>64.0</ele><time>2026-03-30T17:17:08.998Z</time></trkpt><trkpt lat="49.33265000817523" lon="0.9677124137810327"><ele>64.0</ele><time>2026-03-30T17:17:09.998Z</time></trkpt><trkpt lat="49.33269551407503" lon="0.9678098984060043"><ele>64.0</ele><time>2026-03-30T17:17:10.998Z</time></trkpt><trkpt lat="49.33273168381802" lon="0.9679118076629804"><ele>63.99999999999999</ele><time>2026-03-30T17:17:11.998Z</time></trkpt><trkpt lat="49.332775146040845" lon="0.9680726597078796"><ele>64.0</ele><time>2026-03-30T17:17:13.998Z</time></trkpt><trkpt lat="49.332818619787275" lon="0.9681964712843592"><ele>64.0</ele><time>2026-03-30T17:17:15.998Z</time></trkpt><trkpt lat="49.332889298684314" lon="0.9683040558597902"><ele>64.0</ele><time>2026-03-30T17:17:17.998Z</time></trkpt><trkpt lat="49.33293804167926" lon="0.9684002302579212"><ele>64.0</ele><time>2026-03-30T17:17:19.998Z</time></trkpt><trkpt lat="49.3329904547484" lon="0.9685074108498983"><ele>64.0</ele><time>2026-03-30T17:17:21.998Z</time></trkpt><trkpt lat="49.33300839081495" lon="0.9686654280259571"><ele>64.0</ele><time>2026-03-30T17:17:23.998Z</time></trkpt><trkpt lat="49.332968387628384" lon="0.96882749135063"><ele>63.49999999999999</ele><time>2026-03-30T17:17:25.998Z</time></trkpt><trkpt lat="49.33294146080112" lon="0.9689381779610781"><ele>63.0</ele><time>2026-03-30T17:17:26.998Z</time></trkpt><trkpt lat="49.332921028937946" lon="0.9690314288706494"><ele>62.5</ele><time>2026-03-30T17:17:27.998Z</time></trkpt><trkpt lat="49.33291662748743" lon="0.9691584345383903"><ele>62.0</ele><time>2026-03-30T17:17:28.998Z</time></trkpt><trkpt lat="49.33293148431202" lon="0.9693004938645701"><ele>61.49999999999999</ele><time>2026-03-30T17:17:29.998Z</time></trkpt><trkpt lat="49.332929370664345" lon="0.9694505509601806"><ele>61.0</ele><time>2026-03-30T17:17:30.998Z</time></trkpt><trkpt lat="49.332950591760415" lon="0.9695599690823966"><ele>60.33333333333333</ele><time>2026-03-30T17:17:31.998Z</time></trkpt><trkpt lat="49.33297346031547" lon="0.9696647889408143"><ele>59.666666666666664</ele><time>2026-03-30T17:17:32.998Z</time></trkpt><trkpt lat="49.33298174559733" lon="0.9697617727353066"><ele>59.0</ele><time>2026-03-30T17:17:33.998Z</time></trkpt><trkpt lat="49.33297670209383" lon="0.9698614265512383"><ele>58.33333333333333</ele><time>2026-03-30T17:17:34.998Z</time></trkpt><trkpt lat="49.33296247300355" lon="0.9699567173469411"><ele>57.666666666666664</ele><time>2026-03-30T17:17:35.999Z</time></trkpt><trkpt lat="49.33293115274736" lon="0.9701487364446185"><ele>57.0</ele><time>2026-03-30T17:17:37.999Z</time></trkpt><trkpt lat="49.332885893221125" lon="0.9703195301759653"><ele>56.0</ele><time>2026-03-30T17:17:38.999Z</time></trkpt><trkpt lat="49.33284285332313" lon="0.9704634836849734"><ele>55.0</ele><time>2026-03-30T17:17:39.999Z</time></trkpt><trkpt lat="49.332804961319816" lon="0.9705653267166707"><ele>54.0</ele><time>2026-03-30T17:17:40.999Z</time></trkpt><trkpt lat="49.33275660642211" lon="0.9706986853614908"><ele>53.0</ele><time>2026-03-30T17:17:42.999Z</time></trkpt><trkpt lat="49.33269618381634" lon="0.9708108336787867"><ele>52.0</ele><time>2026-03-30T17:17:44.999Z</time></trkpt><trkpt lat="49.33264298766212" lon="0.9709039863280113"><ele>50.8</ele><time>2026-03-30T17:17:46.999Z</time></trkpt><trkpt lat="49.33260632272564" lon="0.9709991083871747"><ele>49.6</ele><time>2026-03-30T17:17:47.999Z</time></trkpt><trkpt lat="49.33254813993313" lon="0.9710992825046068"><ele>48.4</ele><time>2026-03-30T17:17:48.999Z</time></trkpt><trkpt lat="49.33251734530317" lon="0.9711988712281451"><ele>47.199999999999996</ele><time>2026-03-30T17:17:49.999Z</time></trkpt><trkpt lat="49.33244587654807" lon="0.971343207883576"><ele>46.0</ele><time>2026-03-30T17:17:51.999Z</time></trkpt><trkpt lat="49.33238350999588" lon="0.971476441125014"><ele>46.0</ele><time>2026-03-30T17:17:53.999Z</time></trkpt><trkpt lat="49.33232117960566" lon="0.9716001146212655"><ele>46.0</ele><time>2026-03-30T17:17:55.999Z</time></trkpt><trkpt lat="49.33227366311434" lon="0.9717029811562118"><ele>46.0</ele><time>2026-03-30T17:17:56.999Z</time></trkpt><trkpt lat="49.33224104675475" lon="0.9717907752900347"><ele>46.0</ele><time>2026-03-30T17:17:57.999Z</time></trkpt><trkpt lat="49.33219377895027" lon="0.9719034713519125"><ele>46.0</ele><time>2026-03-30T17:17:59.999Z</time></trkpt><trkpt lat="49.33213881492921" lon="0.9720328967368475"><ele>46.0</ele><time>2026-03-30T17:18:01.999Z</time></trkpt><trkpt lat="49.332075173584045" lon="0.9721674532154715"><ele>45.0</ele><time>2026-03-30T17:18:03.999Z</time></trkpt><trkpt lat="49.33203566557762" lon="0.9722644358264005"><ele>44.0</ele><time>2026-03-30T17:18:04.999Z</time></trkpt><trkpt lat="49.33199602445443" lon="0.972359061743421"><ele>43.0</ele><time>2026-03-30T17:18:06.999Z</time></trkpt><trkpt lat="49.33192748780872" lon="0.9724736210696627"><ele>42.0</ele><time>2026-03-30T17:18:08.999Z</time></trkpt><trkpt lat="49.33183983412872" lon="0.9726251382636621"><ele>41.0</ele><time>2026-03-30T17:18:10.999Z</time></trkpt><trkpt lat="49.33177042869327" lon="0.9727307341953527"><ele>40.0</ele><time>2026-03-30T17:18:12.999Z</time></trkpt><trkpt lat="49.33172210277267" lon="0.9727998353755738"><ele>39.0</ele><time>2026-03-30T17:18:13.999Z</time></trkpt><trkpt lat="49.33162936693157" lon="0.9728656130489615"><ele>38.0</ele><time>2026-03-30T17:18:15.999Z</time></trkpt><trkpt lat="49.33153441507482" lon="0.9729595663556984"><ele>37.0</ele><time>2026-03-30T17:18:17.999Z</time></trkpt><trkpt lat="49.33145508480743" lon="0.9730934972550179"><ele>36.0</ele><time>2026-03-30T17:18:19.999Z</time></trkpt><trkpt lat="49.33136556695652" lon="0.97322620239267"><ele>36.0</ele><time>2026-03-30T17:18:21.999Z</time></trkpt><trkpt lat="49.33129281560364" lon="0.9733351735530044"><ele>36.0</ele><time>2026-03-30T17:18:23.999Z</time></trkpt><trkpt lat="49.33121503308309" lon="0.9733649033706292"><ele>36.0</ele><time>2026-03-30T17:18:25.999Z</time></trkpt><trkpt lat="49.331154015729034" lon="0.9734524382877779"><ele>36.0</ele><time>2026-03-30T17:18:27.999Z</time></trkpt><trkpt lat="49.331115233466036" lon="0.9735590370801426"><ele>36.0</ele><time>2026-03-30T17:18:28.999Z</time></trkpt><trkpt lat="49.33106454233016" lon="0.9736320888475326"><ele>36.0</ele><time>2026-03-30T17:18:29.999Z</time></trkpt><trkpt lat="49.33095727693283" lon="0.9737369117289719"><ele>36.0</ele><time>2026-03-30T17:18:31.999Z</time></trkpt><trkpt lat="49.330882165857595" lon="0.9737887731168203"><ele>36.0</ele><time>2026-03-30T17:18:32.999Z</time></trkpt><trkpt lat="49.33080931998327" lon="0.9738790900992172"><ele>36.0</ele><time>2026-03-30T17:18:34.999Z</time></trkpt><trkpt lat="49.33074208281456" lon="0.9740176420789428"><ele>36.0</ele><time>2026-03-30T17:18:36.999Z</time></trkpt><trkpt lat="49.33068324742773" lon="0.9740914156228506"><ele>36.0</ele><time>2026-03-30T17:18:37.999Z</time></trkpt><trkpt lat="49.33062088758381" lon="0.9742010608794935"><ele>36.0</ele><time>2026-03-30T17:18:38.999Z</time></trkpt><trkpt lat="49.33055631716262" lon="0.9742861742318593"><ele>36.0</ele><time>2026-03-30T17:18:39.999Z</time></trkpt><trkpt lat="49.330489871413725" lon="0.9743404206955207"><ele>36.0</ele><time>2026-03-30T17:18:41.999Z</time></trkpt><trkpt lat="49.330494593204094" lon="0.9744462780852202"><ele>36.0</ele><time>2026-03-30T17:18:43.999Z</time></trkpt><trkpt lat="49.33051619768912" lon="0.9745556652433344"><ele>36.0</ele><time>2026-03-30T17:18:45.999Z</time></trkpt><trkpt lat="49.33054927428024" lon="0.9746648542245351"><ele>36.0</ele><time>2026-03-30T17:18:48.999Z</time></trkpt><trkpt lat="49.33077157432066" lon="0.9748801060785907"><ele>36.0</ele><time>2026-03-30T17:18:51.999Z</time></trkpt><trkpt lat="49.33083646726675" lon="0.9749301438943558"><ele>36.0</ele><time>2026-03-30T17:18:52.999Z</time></trkpt><trkpt lat="49.33088479944717" lon="0.9749928513743871"><ele>36.0</ele><time>2026-03-30T17:18:53.999Z</time></trkpt><trkpt lat="49.33096354542979" lon="0.975109180503206"><ele>36.0</ele><time>2026-03-30T17:18:55.999Z</time></trkpt><trkpt lat="49.33103392720852" lon="0.9751562527663954"><ele>36.0</ele><time>2026-03-30T17:18:56.999Z</time></trkpt><trkpt lat="49.3310972727184" lon="0.9752056479422088"><ele>36.0</ele><time>2026-03-30T17:18:57.999Z</time></trkpt><trkpt lat="49.33117228649797" lon="0.9752669574422581"><ele>37.4</ele><time>2026-03-30T17:18:58.999Z</time></trkpt><trkpt lat="49.331255299690945" lon="0.9753269535553006"><ele>38.8</ele><time>2026-03-30T17:18:59.999Z</time></trkpt><trkpt lat="49.331363572509744" lon="0.9754200101510977"><ele>40.199999999999996</ele><time>2026-03-30T17:19:00.999Z</time></trkpt><trkpt lat="49.33145998869394" lon="0.9755007672200773"><ele>41.6</ele><time>2026-03-30T17:19:01.999Z</time></trkpt><trkpt lat="49.331545501396775" lon="0.9755723258544076"><ele>43.0</ele><time>2026-03-30T17:19:02.999Z</time></trkpt><trkpt lat="49.33162212892986" lon="0.9756495090621149"><ele>43.4</ele><time>2026-03-30T17:19:03.999Z</time></trkpt><trkpt lat="49.331698887925995" lon="0.975730967486982"><ele>43.8</ele><time>2026-03-30T17:19:04.999Z</time></trkpt><trkpt lat="49.33178197544482" lon="0.9758233322157874"><ele>44.2</ele><time>2026-03-30T17:19:05.999Z</time></trkpt><trkpt lat="49.331870025950195" lon="0.9759429308979968"><ele>44.6</ele><time>2026-03-30T17:19:06.999Z</time></trkpt><trkpt lat="49.331963747463945" lon="0.9760790872278168"><ele>45.0</ele><time>2026-03-30T17:19:07.999Z</time></trkpt><trkpt lat="49.33206689545629" lon="0.9762275438960949"><ele>46.0</ele><time>2026-03-30T17:19:08.999Z</time></trkpt><trkpt lat="49.33216294985513" lon="0.9763997431444552"><ele>47.0</ele><time>2026-03-30T17:19:09.999Z</time></trkpt><trkpt lat="49.33227688796967" lon="0.9765376392064956"><ele>48.0</ele><time>2026-03-30T17:19:10.999Z</time></trkpt><trkpt lat="49.33236671342346" lon="0.9766670108647804"><ele>49.0</ele><time>2026-03-30T17:19:11.999Z</time></trkpt><trkpt lat="49.33243536542092" lon="0.976772338547966"><ele>49.33333333333333</ele><time>2026-03-30T17:19:12.999Z</time></trkpt><trkpt lat="49.33248689658886" lon="0.9768340848146037"><ele>49.666666666666664</ele><time>2026-03-30T17:19:13.999Z</time></trkpt><trkpt lat="49.3325452976358" lon="0.9769345392130042"><ele>50.0</ele><time>2026-03-30T17:19:14.999Z</time></trkpt><trkpt lat="49.33259987140711" lon="0.9770196880355462"><ele>50.33333333333333</ele><time>2026-03-30T17:19:15.999Z</time></trkpt><trkpt lat="49.332648017644686" lon="0.9771001374792657"><ele>50.666666666666664</ele><time>2026-03-30T17:19:16.999Z</time></trkpt><trkpt lat="49.332702952194175" lon="0.9772078892343415"><ele>51.0</ele><time>2026-03-30T17:19:18.999Z</time></trkpt><trkpt lat="49.332777742116576" lon="0.9773672153267714"><ele>51.0</ele><time>2026-03-30T17:19:20.999Z</time></trkpt><trkpt lat="49.33282213011169" lon="0.9774956504664988"><ele>51.0</ele><time>2026-03-30T17:19:21.999Z</time></trkpt><trkpt lat="49.33285313202666" lon="0.977589023802118"><ele>51.0</ele><time>2026-03-30T17:19:22.999Z</time></trkpt><trkpt lat="49.332899179379616" lon="0.977703277762984"><ele>51.0</ele><time>2026-03-30T17:19:24.999Z</time></trkpt><trkpt lat="49.332894884027866" lon="0.977841741745573"><ele>51.0</ele><time>2026-03-30T17:19:27.999Z</time></trkpt><trkpt lat="49.33287850791827" lon="0.9779622904341475"><ele>51.0</ele><time>2026-03-30T17:19:29.999Z</time></trkpt><trkpt lat="49.332885093502064" lon="0.9780593105683025"><ele>51.599999999999994</ele><time>2026-03-30T17:19:32.999Z</time></trkpt><trkpt lat="49.33290813222695" lon="0.9781707628983787"><ele>52.2</ele><time>2026-03-30T17:20:17Z</time></trkpt><trkpt lat="49.332984602456555" lon="0.9782439164979589"><ele>52.800000000000004</ele><time>2026-03-30T17:20:19Z</time></trkpt><trkpt lat="49.3330339313991" lon="0.9783661276305691"><ele>53.400000000000006</ele><time>2026-03-30T17:20:21Z</time></trkpt><trkpt lat="49.3330703060687" lon="0.978509214946402"><ele>54.0</ele><time>2026-03-30T17:20:23Z</time></trkpt><trkpt lat="49.333120567012166" lon="0.9786449043951976"><ele>55.800000000000004</ele><time>2026-03-30T17:20:25Z</time></trkpt><trkpt lat="49.33318026748228" lon="0.9787680191716399"><ele>57.60000000000001</ele><time>2026-03-30T17:20:27Z</time></trkpt><trkpt lat="49.33318894814821" lon="0.9789180503263838"><ele>59.4</ele><time>2026-03-30T17:20:29Z</time></trkpt><trkpt lat="49.33317873100021" lon="0.9790759053492244"><ele>61.2</ele><time>2026-03-30T17:20:31Z</time></trkpt><trkpt lat="49.33319145501652" lon="0.9792745691778441"><ele>63.0</ele><time>2026-03-30T17:20:33Z</time></trkpt><trkpt lat="49.33319098031514" lon="0.9793830611303546"><ele>64.0</ele><time>2026-03-30T17:20:34Z</time></trkpt><trkpt lat="49.33321179476136" lon="0.9795960346776991"><ele>65.0</ele><time>2026-03-30T17:20:36Z</time></trkpt><trkpt lat="49.33320907746686" lon="0.979705373238148"><ele>66.0</ele><time>2026-03-30T17:20:37Z</time></trkpt><trkpt lat="49.333212603444935" lon="0.9798388750692932"><ele>67.0</ele><time>2026-03-30T17:20:39Z</time></trkpt><trkpt lat="49.33324368321729" lon="0.9799979291082616"><ele>68.0</ele><time>2026-03-30T17:20:41Z</time></trkpt><trkpt lat="49.333275055910136" lon="0.980104231693952"><ele>69.2</ele><time>2026-03-30T17:20:42Z</time></trkpt><trkpt lat="49.33326985115489" lon="0.9802748732654226"><ele>70.4</ele><time>2026-03-30T17:20:44Z</time></trkpt><trkpt lat="49.3332683798474" lon="0.9804526064299469"><ele>71.60000000000001</ele><time>2026-03-30T17:20:46Z</time></trkpt><trkpt lat="49.33327876446221" lon="0.9806302032815299"><ele>72.8</ele><time>2026-03-30T17:20:48Z</time></trkpt><trkpt lat="49.3332981465408" lon="0.9807802935882164"><ele>74.0</ele><time>2026-03-30T17:20:50Z</time></trkpt><trkpt lat="49.33331409383915" lon="0.9809025990389123"><ele>75.16666666666667</ele><time>2026-03-30T17:20:51.999Z</time></trkpt><trkpt lat="49.33330703481442" lon="0.9810075603149618"><ele>76.33333333333334</ele><time>2026-03-30T17:20:53.999Z</time></trkpt><trkpt lat="49.33331665365991" lon="0.9811356023991253"><ele>77.5</ele><time>2026-03-30T17:20:56.999Z</time></trkpt><trkpt lat="49.333350310554046" lon="0.9812863338441081"><ele>78.66666666666667</ele><time>2026-03-30T17:20:59.999Z</time></trkpt><trkpt lat="49.33335829965542" lon="0.9814345236028384"><ele>79.83333333333333</ele><time>2026-03-30T17:21:01.999Z</time></trkpt><trkpt lat="49.33336596200816" lon="0.9815476178563685"><ele>81.0</ele><time>2026-03-30T17:21:03.999Z</time></trkpt><trkpt lat="49.333390127928304" lon="0.9816454116908556"><ele>81.71428571428572</ele><time>2026-03-30T17:21:05.999Z</time></trkpt><trkpt lat="49.333417600606644" lon="0.9817531193284801"><ele>82.42857142857143</ele><time>2026-03-30T17:21:07.999Z</time></trkpt><trkpt lat="49.33344105973817" lon="0.9818728028155017"><ele>83.14285714285714</ele><time>2026-03-30T17:21:09.999Z</time></trkpt><trkpt lat="49.33347190653397" lon="0.9819718889738467"><ele>83.85714285714286</ele><time>2026-03-30T17:21:11.999Z</time></trkpt><trkpt lat="49.333495296908175" lon="0.9820760894521867"><ele>84.57142857142857</ele><time>2026-03-30T17:21:13.999Z</time></trkpt><trkpt lat="49.33351236362202" lon="0.9821727460032514"><ele>85.28571428571429</ele><time>2026-03-30T17:21:15.999Z</time></trkpt><trkpt lat="49.33353674846736" lon="0.9822807870980845"><ele>86.0</ele><time>2026-03-30T17:21:17.999Z</time></trkpt><trkpt lat="49.33354317281707" lon="0.9824153831944853"><ele>88.0</ele><time>2026-03-30T17:21:19.999Z</time></trkpt><trkpt lat="49.333523742917556" lon="0.9825456615872865"><ele>90.0</ele><time>2026-03-30T17:21:22.999Z</time></trkpt><trkpt lat="49.33356638816915" lon="0.9826640310769298"><ele>92.0</ele><time>2026-03-30T17:21:24.999Z</time></trkpt><trkpt lat="49.33361483751444" lon="0.982761719030436"><ele>94.0</ele><time>2026-03-30T17:21:26.999Z</time></trkpt><trkpt lat="49.33361376731447" lon="0.9828675568691616"><ele>95.99999999999999</ele><time>2026-03-30T17:21:28.999Z</time></trkpt><trkpt lat="49.3335700634028" lon="0.9829750781319706"><ele>98.0</ele><time>2026-03-30T17:21:30.999Z</time></trkpt><trkpt lat="49.33346632926318" lon="0.9830191765207953"><ele>98.0</ele><time>2026-03-30T17:21:32.999Z</time></trkpt><trkpt lat="49.33334724304918" lon="0.9829353826513848"><ele>98.0</ele><time>2026-03-30T17:21:34.999Z</time></trkpt><trkpt lat="49.33327918832981" lon="0.9828990623816538"><ele>98.0</ele><time>2026-03-30T17:21:35.999Z</time></trkpt><trkpt lat="49.33328915214033" lon="0.9826210884082633"><ele>98.0</ele><time>2026-03-30T17:21:36.999Z</time></trkpt><trkpt lat="49.33320814559912" lon="0.9825363629299918"><ele>99.2</ele><time>2026-03-30T17:21:38.999Z</time></trkpt><trkpt lat="49.33314024784975" lon="0.9824150618512049"><ele>100.4</ele><time>2026-03-30T17:21:40.999Z</time></trkpt><trkpt lat="49.333107698572775" lon="0.9823173149851026"><ele>101.60000000000001</ele><time>2026-03-30T17:21:42.999Z</time></trkpt><trkpt lat="49.33307134436266" lon="0.9821917688683336"><ele>102.80000000000001</ele><time>2026-03-30T17:21:44.999Z</time></trkpt><trkpt lat="49.333045566870645" lon="0.9821001873893812"><ele>104.0</ele><time>2026-03-30T17:21:47Z</time></trkpt><trkpt lat="49.332856889899084" lon="0.9821137064697301"><ele>103.99999999999999</ele><time>2026-03-30T17:22:10Z</time></trkpt><trkpt lat="49.33283254177756" lon="0.9822488824831507"><ele>104.0</ele><time>2026-03-30T17:23:25.999Z</time></trkpt><trkpt lat="49.3327685689299" lon="0.9823111484839795"><ele>104.0</ele><time>2026-03-30T17:23:27.999Z</time></trkpt><trkpt lat="49.332668800243106" lon="0.9823351691832223"><ele>104.0</ele><time>2026-03-30T17:23:29.999Z</time></trkpt><trkpt lat="49.33259784170377" lon="0.9823530139800248"><ele>103.99999999999999</ele><time>2026-03-30T17:23:31.999Z</time></trkpt><trkpt lat="49.332539953486624" lon="0.9824014385370632"><ele>104.0</ele><time>2026-03-30T17:23:34.999Z</time></trkpt><trkpt lat="49.332487614439046" lon="0.9824661650342421"><ele>105.83333333333333</ele><time>2026-03-30T17:23:37.999Z</time></trkpt><trkpt lat="49.33245004140129" lon="0.9825762892927433"><ele>107.66666666666666</ele><time>2026-03-30T17:23:38.999Z</time></trkpt><trkpt lat="49.33245524076577" lon="0.9826881393738761"><ele>109.5</ele><time>2026-03-30T17:23:40.999Z</time></trkpt><trkpt lat="49.3324698606217" lon="0.982811330815936"><ele>111.33333333333334</ele><time>2026-03-30T17:23:41.999Z</time></trkpt><trkpt lat="49.33248428184133" lon="0.9829149818778063"><ele>113.16666666666667</ele><time>2026-03-30T17:23:42.999Z</time></trkpt><trkpt lat="49.33250617193625" lon="0.9830193566092695"><ele>115.0</ele><time>2026-03-30T17:23:43.999Z</time></trkpt><trkpt lat="49.33254287329437" lon="0.9831977867637635"><ele>115.0</ele><time>2026-03-30T17:23:45.999Z</time></trkpt><trkpt lat="49.332573259525994" lon="0.9832993994410301"><ele>115.0</ele><time>2026-03-30T17:23:46.999Z</time></trkpt><trkpt lat="49.33258748821125" lon="0.9834078533191528"><ele>115.0</ele><time>2026-03-30T17:23:47.999Z</time></trkpt><trkpt lat="49.332651742832816" lon="0.9835522756741679"><ele>115.0</ele><time>2026-03-30T17:23:48.999Z</time></trkpt><trkpt lat="49.33271842998982" lon="0.9837172811274912"><ele>115.0</ele><time>2026-03-30T17:23:49.999Z</time></trkpt><trkpt lat="49.33279533397036" lon="0.9839034843035424"><ele>117.66666666666667</ele><time>2026-03-30T17:23:50.999Z</time></trkpt><trkpt lat="49.33286900557629" lon="0.9841081892347995"><ele>120.33333333333334</ele><time>2026-03-30T17:23:52Z</time></trkpt><trkpt lat="49.332964498944925" lon="0.9843842054756867"><ele>123.0</ele><time>2026-03-30T17:23:53Z</time></trkpt><trkpt lat="49.33304846169241" lon="0.984639359797978"><ele>122.4</ele><time>2026-03-30T17:23:54Z</time></trkpt><trkpt lat="49.33306830169845" lon="0.9848307260917772"><ele>121.80000000000001</ele><time>2026-03-30T17:23:55Z</time></trkpt><trkpt lat="49.33309075188828" lon="0.9849809503334417"><ele>121.2</ele><time>2026-03-30T17:23:56Z</time></trkpt><trkpt lat="49.333134110467654" lon="0.9851097828077274"><ele>120.6</ele><time>2026-03-30T17:23:57Z</time></trkpt><trkpt lat="49.33318374717698" lon="0.9852289279351317"><ele>120.0</ele><time>2026-03-30T17:23:58Z</time></trkpt><trkpt lat="49.333213760300225" lon="0.985368417706302"><ele>121.8</ele><time>2026-03-30T17:24:00Z</time></trkpt><trkpt lat="49.33325366664851" lon="0.9854511057212263"><ele>123.6</ele><time>2026-03-30T17:24:01Z</time></trkpt><trkpt lat="49.33329580802213" lon="0.9855994087621094"><ele>125.4</ele><time>2026-03-30T17:24:03Z</time></trkpt><trkpt lat="49.33336810707094" lon="0.9856646312205948"><ele>127.2</ele><time>2026-03-30T17:24:06Z</time></trkpt><trkpt lat="49.33346991940948" lon="0.9855819802836233"><ele>129.0</ele><time>2026-03-30T17:24:08Z</time></trkpt><trkpt lat="49.33354681344922" lon="0.9854693859458038"><ele>129.0</ele><time>2026-03-30T17:24:09Z</time></trkpt><trkpt lat="49.333661298888565" lon="0.9853453472415868"><ele>129.0</ele><time>2026-03-30T17:24:10Z</time></trkpt><trkpt lat="49.333753666312845" lon="0.9852570715007183"><ele>129.0</ele><time>2026-03-30T17:24:11Z</time></trkpt><trkpt lat="49.33384825807789" lon="0.9851891446156654"><ele>129.0</ele><time>2026-03-30T17:24:12Z</time></trkpt><trkpt lat="49.33394556933092" lon="0.9851411054495474"><ele>129.16666666666666</ele><time>2026-03-30T17:24:13Z</time></trkpt><trkpt lat="49.33404618438946" lon="0.9850954609141618"><ele>129.33333333333334</ele><time>2026-03-30T17:24:14Z</time></trkpt><trkpt lat="49.33413570672175" lon="0.9850481017291844"><ele>129.5</ele><time>2026-03-30T17:24:15Z</time></trkpt><trkpt lat="49.33421122462285" lon="0.9850077101718345"><ele>129.66666666666669</ele><time>2026-03-30T17:24:16Z</time></trkpt><trkpt lat="49.33427470960879" lon="0.9849558533338397"><ele>129.83333333333334</ele><time>2026-03-30T17:24:17Z</time></trkpt><trkpt lat="49.33434209143215" lon="0.9849222261883603"><ele>130.0</ele><time>2026-03-30T17:24:18Z</time></trkpt><trkpt lat="49.334405117258235" lon="0.9848741434448465"><ele>128.66666666666669</ele><time>2026-03-30T17:24:19Z</time></trkpt><trkpt lat="49.33446489576865" lon="0.9848319886292817"><ele>127.33333333333334</ele><time>2026-03-30T17:24:20Z</time></trkpt><trkpt lat="49.33452419890813" lon="0.9847929656731804"><ele>126.0</ele><time>2026-03-30T17:24:21Z</time></trkpt><trkpt lat="49.33461657594624" lon="0.9847313516512789"><ele>124.66666666666666</ele><time>2026-03-30T17:24:23Z</time></trkpt><trkpt lat="49.33468466627927" lon="0.9846444822050618"><ele>123.33333333333333</ele><time>2026-03-30T17:24:26Z</time></trkpt><trkpt lat="49.334735039943176" lon="0.9845777788257334"><ele>122.0</ele><time>2026-03-30T17:24:28Z</time></trkpt><trkpt lat="49.33485042721476" lon="0.9845079518825448"><ele>121.6</ele><time>2026-03-30T17:24:30Z</time></trkpt><trkpt lat="49.33493562629579" lon="0.9844650084448462"><ele>121.19999999999999</ele><time>2026-03-30T17:24:32Z</time></trkpt><trkpt lat="49.334990172070846" lon="0.9844144887202398"><ele>120.8</ele><time>2026-03-30T17:24:33Z</time></trkpt><trkpt lat="49.33509591625941" lon="0.9843506051386804"><ele>120.4</ele><time>2026-03-30T17:24:35Z</time></trkpt><trkpt lat="49.33519158623399" lon="0.984290640477432"><ele>120.0</ele><time>2026-03-30T17:24:37Z</time></trkpt><trkpt lat="49.33527722800483" lon="0.9841956626800281"><ele>118.75</ele><time>2026-03-30T17:24:39Z</time></trkpt><trkpt lat="49.33532854391965" lon="0.9841351355972404"><ele>117.5</ele><time>2026-03-30T17:24:42Z</time></trkpt><trkpt lat="49.335534092077054" lon="0.984006239666102"><ele>116.25</ele><time>2026-03-30T17:24:44Z</time></trkpt><trkpt lat="49.33561357343433" lon="0.9839490235151787"><ele>115.0</ele><time>2026-03-30T17:24:45Z</time></trkpt><trkpt lat="49.33569721059271" lon="0.9838807114903604"><ele>115.0</ele><time>2026-03-30T17:24:46Z</time></trkpt><trkpt lat="49.33578325230936" lon="0.9838135931498695"><ele>115.0</ele><time>2026-03-30T17:24:47Z</time></trkpt><trkpt lat="49.335881936782634" lon="0.9837340535506899"><ele>115.0</ele><time>2026-03-30T17:24:48Z</time></trkpt><trkpt lat="49.335998034347504" lon="0.983641327705117"><ele>115.0</ele><time>2026-03-30T17:24:49Z</time></trkpt><trkpt lat="49.33610479877541" lon="0.9835527926682516"><ele>115.0</ele><time>2026-03-30T17:24:50Z</time></trkpt><trkpt lat="49.33620474998799" lon="0.9834883816201602"><ele>115.0</ele><time>2026-03-30T17:24:51Z</time></trkpt><trkpt lat="49.33630893360882" lon="0.9834329114837638"><ele>115.0</ele><time>2026-03-30T17:24:51.999Z</time></trkpt><trkpt lat="49.33641074361139" lon="0.9833726658415848"><ele>115.0</ele><time>2026-03-30T17:24:52.999Z</time></trkpt><trkpt lat="49.336514372927404" lon="0.9833156014802475"><ele>115.0</ele><time>2026-03-30T17:24:53.999Z</time></trkpt><trkpt lat="49.33660585527043" lon="0.9832609073933157"><ele>117.4</ele><time>2026-03-30T17:24:54.999Z</time></trkpt><trkpt lat="49.33668922344758" lon="0.9832119817590738"><ele>119.8</ele><time>2026-03-30T17:24:55.999Z</time></trkpt><trkpt lat="49.33676635348267" lon="0.9831588687100536"><ele>122.19999999999999</ele><time>2026-03-30T17:24:56.999Z</time></trkpt><trkpt lat="49.336852767534296" lon="0.9830945000544298"><ele>124.6</ele><time>2026-03-30T17:24:57.999Z</time></trkpt><trkpt lat="49.33694858413656" lon="0.9830177787866673"><ele>127.0</ele><time>2026-03-30T17:24:58.999Z</time></trkpt><trkpt lat="49.33705640083622" lon="0.9829324905155391"><ele>127.0</ele><time>2026-03-30T17:24:59.999Z</time></trkpt><trkpt lat="49.33713460664586" lon="0.9828747126878725"><ele>126.99999999999999</ele><time>2026-03-30T17:25:00.999Z</time></trkpt><trkpt lat="49.33719480581218" lon="0.9828351420254194"><ele>126.99999999999999</ele><time>2026-03-30T17:25:01.999Z</time></trkpt><trkpt lat="49.3372537346716" lon="0.9827339596140942"><ele>127.0</ele><time>2026-03-30T17:25:03.999Z</time></trkpt><trkpt lat="49.33716167448293" lon="0.9825456235423492"><ele>127.0</ele><time>2026-03-30T17:25:05.999Z</time></trkpt><trkpt lat="49.33711877785985" lon="0.9823979350098033"><ele>127.66666666666667</ele><time>2026-03-30T17:25:06.999Z</time></trkpt><trkpt lat="49.337040410372175" lon="0.982167498482273"><ele>128.33333333333334</ele><time>2026-03-30T17:25:07.999Z</time></trkpt><trkpt lat="49.33694624780284" lon="0.9819065714475539"><ele>129.0</ele><time>2026-03-30T17:25:08.999Z</time></trkpt><trkpt lat="49.3368353905872" lon="0.9816318002055898"><ele>130.0</ele><time>2026-03-30T17:25:09.999Z</time></trkpt><trkpt lat="49.33676456380953" lon="0.9813741355534653"><ele>131.0</ele><time>2026-03-30T17:25:10.999Z</time></trkpt><trkpt lat="49.33670784927816" lon="0.9812159755072815"><ele>132.0</ele><time>2026-03-30T17:25:11.999Z</time></trkpt><trkpt lat="49.33665166154978" lon="0.9810571411542975"><ele>133.0</ele><time>2026-03-30T17:25:12.999Z</time></trkpt><trkpt lat="49.336592356530524" lon="0.9809264265264356"><ele>133.16666666666669</ele><time>2026-03-30T17:25:13.999Z</time></trkpt><trkpt lat="49.33655426836457" lon="0.9807973136951508"><ele>133.33333333333334</ele><time>2026-03-30T17:25:14.999Z</time></trkpt><trkpt lat="49.33651861961493" lon="0.980695125432498"><ele>133.5</ele><time>2026-03-30T17:25:15.999Z</time></trkpt><trkpt lat="49.33647138298071" lon="0.9805429402133546"><ele>133.66666666666666</ele><time>2026-03-30T17:25:17.999Z</time></trkpt><trkpt lat="49.33642938027209" lon="0.9804475303981489"><ele>133.83333333333331</ele><time>2026-03-30T17:25:19.999Z</time></trkpt><trkpt lat="49.33639827742085" lon="0.9803444386496836"><ele>134.0</ele><time>2026-03-30T17:25:21.999Z</time></trkpt><trkpt lat="49.33636344042243" lon="0.9802427418289396"><ele>132.83333333333331</ele><time>2026-03-30T17:25:23.999Z</time></trkpt><trkpt lat="49.336322240072334" lon="0.9801275491256931"><ele>131.66666666666666</ele><time>2026-03-30T17:25:25.999Z</time></trkpt><trkpt lat="49.336275535205566" lon="0.9800097051434016"><ele>130.5</ele><time>2026-03-30T17:25:27.999Z</time></trkpt><trkpt lat="49.33623866899365" lon="0.9798995094994611"><ele>129.33333333333334</ele><time>2026-03-30T17:25:30.999Z</time></trkpt><trkpt lat="49.336175212571014" lon="0.9797919078699323"><ele>128.16666666666669</ele><time>2026-03-30T17:27:16.999Z</time></trkpt><trkpt lat="49.33618271764611" lon="0.9796958033678963"><ele>127.0</ele><time>2026-03-30T17:27:20.999Z</time></trkpt><trkpt lat="49.33615104936203" lon="0.9795799044710065"><ele>127.00000000000001</ele><time>2026-03-30T17:27:22.999Z</time></trkpt><trkpt lat="49.33611254168179" lon="0.9794780360206659"><ele>127.0</ele><time>2026-03-30T17:27:23.999Z</time></trkpt><trkpt lat="49.336083237341676" lon="0.9793820111721251"><ele>127.0</ele><time>2026-03-30T17:27:24.999Z</time></trkpt><trkpt lat="49.33605221537411" lon="0.979294137649029"><ele>127.0</ele><time>2026-03-30T17:27:25.999Z</time></trkpt><trkpt lat="49.336005636011194" lon="0.9791522902458893"><ele>127.00000000000001</ele><time>2026-03-30T17:27:27.999Z</time></trkpt><trkpt lat="49.335964023827216" lon="0.979010994429051"><ele>127.0</ele><time>2026-03-30T17:27:29.999Z</time></trkpt><trkpt lat="49.335926809990106" lon="0.9788753992157873"><ele>126.33333333333334</ele><time>2026-03-30T17:27:31.999Z</time></trkpt><trkpt lat="49.335907634204546" lon="0.9787669594642753"><ele>125.66666666666667</ele><time>2026-03-30T17:27:33.999Z</time></trkpt><trkpt lat="49.33586454805246" lon="0.9786427300570444"><ele>125.0</ele><time>2026-03-30T17:27:36.999Z</time></trkpt><trkpt lat="49.33582223936193" lon="0.9785373917384677"><ele>124.33333333333334</ele><time>2026-03-30T17:27:39.999Z</time></trkpt><trkpt lat="49.33579679874602" lon="0.9784256037391013"><ele>123.66666666666667</ele><time>2026-03-30T17:27:42.999Z</time></trkpt><trkpt lat="49.335763514684814" lon="0.9783201590162913"><ele>123.0</ele><time>2026-03-30T17:27:44.999Z</time></trkpt><trkpt lat="49.335724964437105" lon="0.9781957831667708"><ele>121.2</ele><time>2026-03-30T17:27:46.999Z</time></trkpt><trkpt lat="49.335671199467534" lon="0.9780311465189322"><ele>119.4</ele><time>2026-03-30T17:27:48.999Z</time></trkpt><trkpt lat="49.335618168314134" lon="0.9778724497729897"><ele>117.60000000000001</ele><time>2026-03-30T17:27:50.999Z</time></trkpt><trkpt lat="49.33557642910602" lon="0.9777477333833678"><ele>115.80000000000001</ele><time>2026-03-30T17:27:52.999Z</time></trkpt><trkpt lat="49.33554004305681" lon="0.9776266022063994"><ele>114.0</ele><time>2026-03-30T17:27:54.999Z</time></trkpt><trkpt lat="49.335497139796416" lon="0.977488517331454"><ele>110.0</ele><time>2026-03-30T17:27:58.999Z</time></trkpt><trkpt lat="49.3354352874435" lon="0.9773469576766525"><ele>106.0</ele><time>2026-03-30T17:28:00.998Z</time></trkpt><trkpt lat="49.33539996723511" lon="0.9772418992336517"><ele>102.0</ele><time>2026-03-30T17:28:02.998Z</time></trkpt><trkpt lat="49.33537649725945" lon="0.9771486495918313"><ele>98.0</ele><time>2026-03-30T17:28:05Z</time></trkpt><trkpt lat="49.335335140844066" lon="0.9770014834158481"><ele>94.0</ele><time>2026-03-30T17:28:07Z</time></trkpt><trkpt lat="49.335284987099996" lon="0.9768541228870605"><ele>94.0</ele><time>2026-03-30T17:28:09Z</time></trkpt><trkpt lat="49.33524934912919" lon="0.9767742549931013"><ele>94.0</ele><time>2026-03-30T17:28:10Z</time></trkpt><trkpt lat="49.3352160052214" lon="0.9766866678263857"><ele>94.0</ele><time>2026-03-30T17:28:12Z</time></trkpt><trkpt lat="49.33518573664706" lon="0.976579821989824"><ele>94.0</ele><time>2026-03-30T17:28:16Z</time></trkpt><trkpt lat="49.335141943149516" lon="0.9764913966893759"><ele>94.0</ele><time>2026-03-30T17:28:19Z</time></trkpt><trkpt lat="49.335114105111906" lon="0.9763838787460198"><ele>94.0</ele><time>2026-03-30T17:29:59.999Z</time></trkpt><trkpt lat="49.335062419130516" lon="0.976315727147437"><ele>94.0</ele><time>2026-03-30T17:31:23.999Z</time></trkpt><trkpt lat="49.33511074127239" lon="0.9764605841233212"><ele>94.0</ele><time>2026-03-30T17:31:31.999Z</time></trkpt><trkpt lat="49.335177704186094" lon="0.9765693345452067"><ele>94.0</ele><time>2026-03-30T17:31:33.999Z</time></trkpt><trkpt lat="49.33525120455283" lon="0.9767399560122948"><ele>94.0</ele><time>2026-03-30T17:31:35.999Z</time></trkpt><trkpt lat="49.33530257915072" lon="0.976820527525971"><ele>94.0</ele><time>2026-03-30T17:31:37.999Z</time></trkpt><trkpt lat="49.33533110554591" lon="0.9769386177580308"><ele>94.0</ele><time>2026-03-30T17:31:39.999Z</time></trkpt><trkpt lat="49.33537341719755" lon="0.9770762701329494"><ele>94.0</ele><time>2026-03-30T17:31:41.999Z</time></trkpt><trkpt lat="49.335407005728065" lon="0.9771684462390211"><ele>94.0</ele><time>2026-03-30T17:31:42.999Z</time></trkpt><trkpt lat="49.33545231193361" lon="0.9773293051741568"><ele>94.0</ele><time>2026-03-30T17:31:44.999Z</time></trkpt><trkpt lat="49.335487901043535" lon="0.9774525684135146"><ele>94.0</ele><time>2026-03-30T17:31:46.999Z</time></trkpt><trkpt lat="49.3355243720272" lon="0.9775368083209486"><ele>94.0</ele><time>2026-03-30T17:31:47.999Z</time></trkpt><trkpt lat="49.335566004184216" lon="0.9776339171947428"><ele>94.0</ele><time>2026-03-30T17:31:48.999Z</time></trkpt><trkpt lat="49.3356095578055" lon="0.9777728201558513"><ele>96.85714285714286</ele><time>2026-03-30T17:31:50.999Z</time></trkpt><trkpt lat="49.3356409965051" lon="0.9778610832393403"><ele>99.71428571428571</ele><time>2026-03-30T17:31:51.999Z</time></trkpt><trkpt lat="49.33565723904277" lon="0.9779622863702054"><ele>102.57142857142857</ele><time>2026-03-30T17:31:52.999Z</time></trkpt><trkpt lat="49.33567955133369" lon="0.9780563935924341"><ele>105.42857142857142</ele><time>2026-03-30T17:31:53.999Z</time></trkpt><trkpt lat="49.33570842741042" lon="0.9781541393072365"><ele>108.28571428571428</ele><time>2026-03-30T17:31:54.999Z</time></trkpt><trkpt lat="49.33573323292388" lon="0.97826136057462"><ele>111.14285714285714</ele><time>2026-03-30T17:31:55.999Z</time></trkpt><trkpt lat="49.33576504740201" lon="0.9783645133331023"><ele>114.0</ele><time>2026-03-30T17:31:56.999Z</time></trkpt><trkpt lat="49.33580617392782" lon="0.9784787558353246"><ele>115.80000000000001</ele><time>2026-03-30T17:31:57.999Z</time></trkpt><trkpt lat="49.335846047431765" lon="0.978592215598251"><ele>117.60000000000001</ele><time>2026-03-30T17:31:58.999Z</time></trkpt><trkpt lat="49.33590741808222" lon="0.9787327011766576"><ele>119.4</ele><time>2026-03-30T17:32:00.999Z</time></trkpt><trkpt lat="49.33595392282726" lon="0.9789309439663"><ele>121.2</ele><time>2026-03-30T17:32:02.999Z</time></trkpt><trkpt lat="49.335973421511234" lon="0.9790516028521652"><ele>123.0</ele><time>2026-03-30T17:32:03.999Z</time></trkpt><trkpt lat="49.33600702133536" lon="0.9791356819864536"><ele>123.80000000000001</ele><time>2026-03-30T17:32:05.999Z</time></trkpt><trkpt lat="49.33605471985233" lon="0.9792273250412563"><ele>124.60000000000001</ele><time>2026-03-30T17:32:38Z</time></trkpt><trkpt lat="49.336083179676166" lon="0.9793278413038117"><ele>125.39999999999999</ele><time>2026-03-30T17:32:39Z</time></trkpt><trkpt lat="49.33612033825786" lon="0.9794792667548942"><ele>126.19999999999999</ele><time>2026-03-30T17:32:40Z</time></trkpt><trkpt lat="49.33617022385158" lon="0.9796756759411875"><ele>127.0</ele><time>2026-03-30T17:32:41Z</time></trkpt><trkpt lat="49.33625115987107" lon="0.9798552596610584"><ele>126.25</ele><time>2026-03-30T17:32:42Z</time></trkpt><trkpt lat="49.33632456152659" lon="0.9800440255462616"><ele>125.5</ele><time>2026-03-30T17:32:43Z</time></trkpt><trkpt lat="49.33640513372951" lon="0.9802524038525865"><ele>124.75</ele><time>2026-03-30T17:32:44Z</time></trkpt><trkpt lat="49.336480988672704" lon="0.9804432148823988"><ele>124.0</ele><time>2026-03-30T17:32:45Z</time></trkpt><trkpt lat="49.33652962833334" lon="0.9805941143233046"><ele>125.80000000000001</ele><time>2026-03-30T17:32:46Z</time></trkpt><trkpt lat="49.33658299927862" lon="0.9807376376133582"><ele>127.60000000000001</ele><time>2026-03-30T17:32:47Z</time></trkpt><trkpt lat="49.336635043927565" lon="0.9808497855223256"><ele>129.4</ele><time>2026-03-30T17:32:48Z</time></trkpt><trkpt lat="49.33666352109475" lon="0.9809681558421416"><ele>131.20000000000002</ele><time>2026-03-30T17:32:49Z</time></trkpt><trkpt lat="49.336701657202084" lon="0.9810848183972356"><ele>133.0</ele><time>2026-03-30T17:32:50Z</time></trkpt><trkpt lat="49.336741989006846" lon="0.9812117501205307"><ele>133.0</ele><time>2026-03-30T17:32:51Z</time></trkpt><trkpt lat="49.33678377635157" lon="0.9813258572946304"><ele>133.0</ele><time>2026-03-30T17:32:52Z</time></trkpt><trkpt lat="49.33682090127955" lon="0.9814466029374604"><ele>133.0</ele><time>2026-03-30T17:32:53Z</time></trkpt><trkpt lat="49.33684741297094" lon="0.981569695372627"><ele>133.0</ele><time>2026-03-30T17:32:54Z</time></trkpt><trkpt lat="49.33687428261075" lon="0.9816915839581243"><ele>133.0</ele><time>2026-03-30T17:32:55Z</time></trkpt><trkpt lat="49.33690481427241" lon="0.9817975130963251"><ele>133.0</ele><time>2026-03-30T17:32:56Z</time></trkpt><trkpt lat="49.33694010444028" lon="0.9819072602799926"><ele>132.33333333333334</ele><time>2026-03-30T17:32:57Z</time></trkpt><trkpt lat="49.336973923815314" lon="0.9820271528952224"><ele>131.66666666666669</ele><time>2026-03-30T17:32:58Z</time></trkpt><trkpt lat="49.33701675009644" lon="0.982176617567421"><ele>131.0</ele><time>2026-03-30T17:32:59Z</time></trkpt><trkpt lat="49.33705471567136" lon="0.9822917258577694"><ele>130.33333333333334</ele><time>2026-03-30T17:33:00Z</time></trkpt><trkpt lat="49.3370922919138" lon="0.9823853337685217"><ele>129.66666666666666</ele><time>2026-03-30T17:33:01Z</time></trkpt><trkpt lat="49.33713134091207" lon="0.9824723377037397"><ele>129.0</ele><time>2026-03-30T17:33:02Z</time></trkpt><trkpt lat="49.33716027143513" lon="0.9825908401647038"><ele>128.66666666666666</ele><time>2026-03-30T17:33:03Z</time></trkpt><trkpt lat="49.337189435630975" lon="0.9826806759540483"><ele>128.33333333333334</ele><time>2026-03-30T17:33:04Z</time></trkpt><trkpt lat="49.33720536473728" lon="0.9828138005164417"><ele>128.0</ele><time>2026-03-30T17:33:06Z</time></trkpt><trkpt lat="49.3371364482177" lon="0.9828915441833043"><ele>127.66666666666667</ele><time>2026-03-30T17:33:08Z</time></trkpt><trkpt lat="49.337071894046375" lon="0.9829566037467634"><ele>127.33333333333334</ele><time>2026-03-30T17:33:09Z</time></trkpt><trkpt lat="49.337018770633556" lon="0.9830127042143825"><ele>127.0</ele><time>2026-03-30T17:33:10Z</time></trkpt><trkpt lat="49.336906889466455" lon="0.9831017217402204"><ele>127.0</ele><time>2026-03-30T17:33:12Z</time></trkpt><trkpt lat="49.336829643736245" lon="0.9831402262579994"><ele>127.0</ele><time>2026-03-30T17:33:12.999Z</time></trkpt><trkpt lat="49.336762434392725" lon="0.9831826555848264"><ele>127.0</ele><time>2026-03-30T17:33:13.999Z</time></trkpt><trkpt lat="49.336703274451224" lon="0.9832270128170202"><ele>127.0</ele><time>2026-03-30T17:33:14.999Z</time></trkpt><trkpt lat="49.33662945421572" lon="0.9832892676411659"><ele>127.0</ele><time>2026-03-30T17:33:15.999Z</time></trkpt><trkpt lat="49.336557024040246" lon="0.9833098716444275"><ele>127.0</ele><time>2026-03-30T17:33:16.999Z</time></trkpt><trkpt lat="49.33650120711187" lon="0.9833589874293501"><ele>127.0</ele><time>2026-03-30T17:33:17.999Z</time></trkpt><trkpt lat="49.33639215728236" lon="0.983427071728734"><ele>124.6</ele><time>2026-03-30T17:33:19.999Z</time></trkpt><trkpt lat="49.336305733799364" lon="0.9834895108481799"><ele>122.19999999999999</ele><time>2026-03-30T17:33:21.999Z</time></trkpt><trkpt lat="49.336223190316005" lon="0.9835598128900473"><ele>119.8</ele><time>2026-03-30T17:33:23.999Z</time></trkpt><trkpt lat="49.336136247027085" lon="0.9836195576844583"><ele>117.4</ele><time>2026-03-30T17:33:25.999Z</time></trkpt><trkpt lat="49.336042306613486" lon="0.9837101741940567"><ele>115.0</ele><time>2026-03-30T17:33:27.999Z</time></trkpt><trkpt lat="49.33598060131828" lon="0.9837487276869431"><ele>115.0</ele><time>2026-03-30T17:33:28.999Z</time></trkpt><trkpt lat="49.335911352365166" lon="0.9837958234074734"><ele>115.0</ele><time>2026-03-30T17:33:29.999Z</time></trkpt><trkpt lat="49.33582080612829" lon="0.983856017378628"><ele>115.0</ele><time>2026-03-30T17:33:30.999Z</time></trkpt><trkpt lat="49.335697539148846" lon="0.9839423011576527"><ele>115.0</ele><time>2026-03-30T17:33:31.999Z</time></trkpt><trkpt lat="49.335585439730664" lon="0.9840216095957893"><ele>115.0</ele><time>2026-03-30T17:33:32.999Z</time></trkpt><trkpt lat="49.335493173746514" lon="0.9840764532131472"><ele>116.0</ele><time>2026-03-30T17:33:33.999Z</time></trkpt><trkpt lat="49.33540892806071" lon="0.9841378353780539"><ele>117.0</ele><time>2026-03-30T17:33:34.999Z</time></trkpt><trkpt lat="49.335343022958796" lon="0.9841717944017768"><ele>118.0</ele><time>2026-03-30T17:33:35.999Z</time></trkpt><trkpt lat="49.335228696316086" lon="0.9842577228002289"><ele>119.0</ele><time>2026-03-30T17:33:37.999Z</time></trkpt><trkpt lat="49.33513089576918" lon="0.9843729696967566"><ele>120.0</ele><time>2026-03-30T17:33:39.999Z</time></trkpt><trkpt lat="49.335062143866416" lon="0.9844219990970441"><ele>120.0</ele><time>2026-03-30T17:33:40.999Z</time></trkpt><trkpt lat="49.33500046830207" lon="0.9844561476594997"><ele>120.0</ele><time>2026-03-30T17:33:41.999Z</time></trkpt><trkpt lat="49.33493800390029" lon="0.9844891178909434"><ele>120.0</ele><time>2026-03-30T17:33:42.999Z</time></trkpt><trkpt lat="49.33484185308893" lon="0.9845599321050866"><ele>120.0</ele><time>2026-03-30T17:33:44.999Z</time></trkpt><trkpt lat="49.33475326290822" lon="0.9846196089529534"><ele>120.0</ele><time>2026-03-30T17:33:46.999Z</time></trkpt><trkpt lat="49.33464307309915" lon="0.9847059652921301"><ele>120.33333333333333</ele><time>2026-03-30T17:33:48.999Z</time></trkpt><trkpt lat="49.334570673127274" lon="0.9847470776456904"><ele>120.66666666666666</ele><time>2026-03-30T17:33:49.999Z</time></trkpt><trkpt lat="49.3344844372469" lon="0.9848057364425227"><ele>121.0</ele><time>2026-03-30T17:33:50.999Z</time></trkpt><trkpt lat="49.33440010091399" lon="0.9848484376009112"><ele>121.33333333333333</ele><time>2026-03-30T17:33:51.999Z</time></trkpt><trkpt lat="49.33431635560839" lon="0.9848930774175627"><ele>121.66666666666666</ele><time>2026-03-30T17:33:52.999Z</time></trkpt><trkpt lat="49.33422850787237" lon="0.9849678027382188"><ele>122.0</ele><time>2026-03-30T17:33:53.999Z</time></trkpt><trkpt lat="49.334125856840586" lon="0.9850554145826312"><ele>123.39999999999999</ele><time>2026-03-30T17:33:54.999Z</time></trkpt><trkpt lat="49.33401963227286" lon="0.9851291030969362"><ele>124.79999999999998</ele><time>2026-03-30T17:33:55.999Z</time></trkpt><trkpt lat="49.33391250768266" lon="0.985173340445805"><ele>126.2</ele><time>2026-03-30T17:33:56.999Z</time></trkpt><trkpt lat="49.333806228393996" lon="0.9852188310810104"><ele>127.6</ele><time>2026-03-30T17:33:57.999Z</time></trkpt><trkpt lat="49.3337035072917" lon="0.9852833641715818"><ele>129.0</ele><time>2026-03-30T17:33:58.999Z</time></trkpt><trkpt lat="49.33362806667997" lon="0.9853368908314217"><ele>129.0</ele><time>2026-03-30T17:33:59.999Z</time></trkpt><trkpt lat="49.33354348978429" lon="0.985378032518672"><ele>129.0</ele><time>2026-03-30T17:34:00.999Z</time></trkpt><trkpt lat="49.333460428587415" lon="0.9854362898089879"><ele>129.0</ele><time>2026-03-30T17:34:01.999Z</time></trkpt><trkpt lat="49.33337798114326" lon="0.9855521767723056"><ele>129.0</ele><time>2026-03-30T17:34:03.999Z</time></trkpt><trkpt lat="49.33332353472543" lon="0.9856254822489062"><ele>129.0</ele><time>2026-03-30T17:34:05.999Z</time></trkpt><trkpt lat="49.33336087808877" lon="0.9857613942048702"><ele>129.6</ele><time>2026-03-30T17:34:07.999Z</time></trkpt><trkpt lat="49.33339196296367" lon="0.9858753235034632"><ele>130.2</ele><time>2026-03-30T17:34:08.999Z</time></trkpt><trkpt lat="49.333450061035585" lon="0.9860130585750501"><ele>130.79999999999998</ele><time>2026-03-30T17:34:09.999Z</time></trkpt><trkpt lat="49.33351592059509" lon="0.9861788356852691"><ele>131.4</ele><time>2026-03-30T17:34:10.999Z</time></trkpt><trkpt lat="49.333575224685276" lon="0.9863610584710157"><ele>132.0</ele><time>2026-03-30T17:34:11.998Z</time></trkpt><trkpt lat="49.333621790562695" lon="0.986514726009978"><ele>132.0</ele><time>2026-03-30T17:34:12.998Z</time></trkpt><trkpt lat="49.33366683648781" lon="0.9866436082112735"><ele>132.0</ele><time>2026-03-30T17:34:13.998Z</time></trkpt><trkpt lat="49.33370257610702" lon="0.9867678390772427"><ele>132.0</ele><time>2026-03-30T17:34:14.998Z</time></trkpt><trkpt lat="49.33373162752698" lon="0.9868776580620096"><ele>132.0</ele><time>2026-03-30T17:34:15.998Z</time></trkpt><trkpt lat="49.333783979002625" lon="0.9870140457606903"><ele>132.0</ele><time>2026-03-30T17:34:16.998Z</time></trkpt><trkpt lat="49.33383512049734" lon="0.9871992474565927"><ele>132.4</ele><time>2026-03-30T17:34:17.998Z</time></trkpt><trkpt lat="49.333884518702625" lon="0.9873839853705189"><ele>132.79999999999998</ele><time>2026-03-30T17:34:18.998Z</time></trkpt><trkpt lat="49.33393307830172" lon="0.9875277200460248"><ele>133.2</ele><time>2026-03-30T17:34:19.998Z</time></trkpt><trkpt lat="49.333982955313566" lon="0.9876464648660477"><ele>133.6</ele><time>2026-03-30T17:34:21Z</time></trkpt><trkpt lat="49.334027365466106" lon="0.9877541708560327"><ele>134.0</ele><time>2026-03-30T17:34:22Z</time></trkpt><trkpt lat="49.33407162246959" lon="0.9878666642327051"><ele>134.16666666666666</ele><time>2026-03-30T17:34:23Z</time></trkpt><trkpt lat="49.3341092562934" lon="0.9879597032048263"><ele>134.33333333333331</ele><time>2026-03-30T17:34:24Z</time></trkpt><trkpt lat="49.33416117433421" lon="0.9880898067891771"><ele>134.5</ele><time>2026-03-30T17:34:26Z</time></trkpt><trkpt lat="49.334192820425386" lon="0.9881974813415377"><ele>134.66666666666666</ele><time>2026-03-30T17:34:28Z</time></trkpt><trkpt lat="49.33418464587009" lon="0.9883095445149858"><ele>134.83333333333334</ele><time>2026-03-30T17:34:30Z</time></trkpt><trkpt lat="49.33415902098991" lon="0.9884822308810666"><ele>135.0</ele><time>2026-03-30T17:34:32Z</time></trkpt><trkpt lat="49.33413799344957" lon="0.9886100585605568"><ele>135.4</ele><time>2026-03-30T17:34:33Z</time></trkpt><trkpt lat="49.33412569519754" lon="0.9887543859844776"><ele>135.8</ele><time>2026-03-30T17:34:34Z</time></trkpt><trkpt lat="49.33411717272244" lon="0.9888905462843544"><ele>136.2</ele><time>2026-03-30T17:34:35Z</time></trkpt><trkpt lat="49.33409296083667" lon="0.9890343653480518"><ele>136.6</ele><time>2026-03-30T17:34:36Z</time></trkpt><trkpt lat="49.33405835941478" lon="0.9892398916153082"><ele>137.0</ele><time>2026-03-30T17:34:37Z</time></trkpt><trkpt lat="49.33398776138594" lon="0.989507458049252"><ele>137.66666666666666</ele><time>2026-03-30T17:34:38Z</time></trkpt><trkpt lat="49.33393290171257" lon="0.9897905524338692"><ele>138.33333333333334</ele><time>2026-03-30T17:34:39Z</time></trkpt><trkpt lat="49.33387787687859" lon="0.9901099267754214"><ele>139.0</ele><time>2026-03-30T17:34:40Z</time></trkpt><trkpt lat="49.33383576145482" lon="0.990375998158513"><ele>138.33333333333334</ele><time>2026-03-30T17:34:41Z</time></trkpt><trkpt lat="49.33378775374878" lon="0.9906269885866705"><ele>137.66666666666666</ele><time>2026-03-30T17:34:42Z</time></trkpt><trkpt lat="49.33374870757486" lon="0.9908571718387256"><ele>137.0</ele><time>2026-03-30T17:34:43Z</time></trkpt><trkpt lat="49.33369954701874" lon="0.9910719187464206"><ele>137.0</ele><time>2026-03-30T17:34:44Z</time></trkpt><trkpt lat="49.333651397337825" lon="0.9912553348112598"><ele>137.0</ele><time>2026-03-30T17:34:45Z</time></trkpt><trkpt lat="49.3336067337537" lon="0.9914259415354638"><ele>137.0</ele><time>2026-03-30T17:34:46Z</time></trkpt><trkpt lat="49.33356897696697" lon="0.9915966553497796"><ele>137.0</ele><time>2026-03-30T17:34:47Z</time></trkpt><trkpt lat="49.33353301280912" lon="0.9917615857595702"><ele>137.4</ele><time>2026-03-30T17:34:48Z</time></trkpt><trkpt lat="49.33349818257643" lon="0.9919189839208783"><ele>137.79999999999998</ele><time>2026-03-30T17:34:49Z</time></trkpt><trkpt lat="49.33346755693509" lon="0.9920638132742582"><ele>138.2</ele><time>2026-03-30T17:34:50Z</time></trkpt><trkpt lat="49.33344939357844" lon="0.9922044767508239"><ele>138.6</ele><time>2026-03-30T17:34:51Z</time></trkpt><trkpt lat="49.33342599940996" lon="0.9923179099616108"><ele>139.0</ele><time>2026-03-30T17:34:52Z</time></trkpt><trkpt lat="49.333391378898824" lon="0.9924804782582018"><ele>139.0</ele><time>2026-03-30T17:34:53Z</time></trkpt><trkpt lat="49.33334982820495" lon="0.9926650919225567"><ele>139.0</ele><time>2026-03-30T17:34:54Z</time></trkpt><trkpt lat="49.333303882289165" lon="0.9928960473929593"><ele>139.0</ele><time>2026-03-30T17:34:55Z</time></trkpt><trkpt lat="49.333252488163836" lon="0.9931821459177002"><ele>139.33333333333334</ele><time>2026-03-30T17:34:56Z</time></trkpt><trkpt lat="49.33319258591886" lon="0.993480784779388"><ele>139.66666666666666</ele><time>2026-03-30T17:34:57Z</time></trkpt><trkpt lat="49.33314574197195" lon="0.9937420485594611"><ele>140.0</ele><time>2026-03-30T17:34:58Z</time></trkpt><trkpt lat="49.333099453846216" lon="0.9939700190451047"><ele>139.0</ele><time>2026-03-30T17:34:59Z</time></trkpt><trkpt lat="49.3330520754447" lon="0.9941810837503827"><ele>138.0</ele><time>2026-03-30T17:35:00Z</time></trkpt><trkpt lat="49.33300645468485" lon="0.9943893345517169"><ele>137.0</ele><time>2026-03-30T17:35:01Z</time></trkpt><trkpt lat="49.3329690334099" lon="0.9945739603924333"><ele>136.0</ele><time>2026-03-30T17:35:02Z</time></trkpt><trkpt lat="49.33293554903003" lon="0.9947389200541379"><ele>136.0</ele><time>2026-03-30T17:35:03Z</time></trkpt><trkpt lat="49.332899189628996" lon="0.9948999990836107"><ele>136.0</ele><time>2026-03-30T17:35:04Z</time></trkpt><trkpt lat="49.33286608455525" lon="0.9950461028933859"><ele>136.0</ele><time>2026-03-30T17:35:04.999Z</time></trkpt><trkpt lat="49.332842141863004" lon="0.995184083831914"><ele>136.0</ele><time>2026-03-30T17:35:05.999Z</time></trkpt><trkpt lat="49.33281651710743" lon="0.9953124162588447"><ele>136.0</ele><time>2026-03-30T17:35:06.999Z</time></trkpt><trkpt lat="49.332795377134666" lon="0.9954348571819672"><ele>136.2</ele><time>2026-03-30T17:35:07.999Z</time></trkpt><trkpt lat="49.332764781318446" lon="0.9955587996620479"><ele>136.39999999999998</ele><time>2026-03-30T17:35:08.999Z</time></trkpt><trkpt lat="49.33273925158457" lon="0.9956668251904065"><ele>136.6</ele><time>2026-03-30T17:35:09.999Z</time></trkpt><trkpt lat="49.332698445761935" lon="0.9958360684386615"><ele>136.79999999999998</ele><time>2026-03-30T17:35:11.999Z</time></trkpt><trkpt lat="49.33267251932237" lon="0.9959920212711612"><ele>137.0</ele><time>2026-03-30T17:35:13.999Z</time></trkpt><trkpt lat="49.33263381299352" lon="0.996172545823012"><ele>136.0</ele><time>2026-03-30T17:35:15.999Z</time></trkpt><trkpt lat="49.3326221160752" lon="0.9962771801976806"><ele>135.0</ele><time>2026-03-30T17:35:16.999Z</time></trkpt><trkpt lat="49.33258662835634" lon="0.9964189734155205"><ele>134.0</ele><time>2026-03-30T17:35:18.999Z</time></trkpt><trkpt lat="49.332528854912255" lon="0.9965193548988446"><ele>133.0</ele><time>2026-03-30T17:35:20.999Z</time></trkpt><trkpt lat="49.3324448544489" lon="0.9965692816595523"><ele>132.0</ele><time>2026-03-30T17:35:22.999Z</time></trkpt><trkpt lat="49.33235605591121" lon="0.996607375172717"><ele>131.0</ele><time>2026-03-30T17:35:24.999Z</time></trkpt><trkpt lat="49.33227822185117" lon="0.996640542029922"><ele>131.0</ele><time>2026-03-30T17:35:27.999Z</time></trkpt><trkpt lat="49.332206971434914" lon="0.9965584649088111"><ele>131.0</ele><time>2026-03-30T17:35:30.999Z</time></trkpt><trkpt lat="49.332171387586854" lon="0.9964542153274849"><ele>131.0</ele><time>2026-03-30T17:35:33.999Z</time></trkpt><trkpt lat="49.332178665994185" lon="0.9965642015133378"><ele>131.0</ele><time>2026-03-30T17:35:40.999Z</time></trkpt><trkpt lat="49.33221997450074" lon="0.9966598071993976"><ele>131.0</ele><time>2026-03-30T17:35:43.999Z</time></trkpt><trkpt lat="49.332300347375934" lon="0.9966195659930593"><ele>131.0</ele><time>2026-03-30T17:35:53.999Z</time></trkpt><trkpt lat="49.33235288380742" lon="0.9965590708187043"><ele>131.0</ele><time>2026-03-30T17:35:55.999Z</time></trkpt><trkpt lat="49.33243994912847" lon="0.9965061396467813"><ele>131.0</ele><time>2026-03-30T17:35:57.999Z</time></trkpt><trkpt lat="49.33253815314517" lon="0.996360855369775"><ele>131.0</ele><time>2026-03-30T17:35:59.999Z</time></trkpt><trkpt lat="49.33255238800873" lon="0.9962473505519098"><ele>131.0</ele><time>2026-03-30T17:36:00.999Z</time></trkpt><trkpt lat="49.33258276272047" lon="0.9961371363518116"><ele>131.0</ele><time>2026-03-30T17:36:01.999Z</time></trkpt><trkpt lat="49.332620369975665" lon="0.9960161272817057"><ele>131.0</ele><time>2026-03-30T17:36:02.999Z</time></trkpt><trkpt lat="49.33267091101301" lon="0.9958460506797296"><ele>131.0</ele><time>2026-03-30T17:36:04.999Z</time></trkpt><trkpt lat="49.33270801543826" lon="0.9957129573186124"><ele>131.0</ele><time>2026-03-30T17:36:06.998Z</time></trkpt><trkpt lat="49.33274363310753" lon="0.9955971706584757"><ele>131.0</ele><time>2026-03-30T17:36:08.998Z</time></trkpt><trkpt lat="49.33277501037538" lon="0.9954924101862002"><ele>131.0</ele><time>2026-03-30T17:36:10.998Z</time></trkpt><trkpt lat="49.332807428306545" lon="0.9953696012712467"><ele>131.83333333333331</ele><time>2026-03-30T17:36:12.998Z</time></trkpt><trkpt lat="49.33282532704539" lon="0.9952528502628116"><ele>132.66666666666666</ele><time>2026-03-30T17:36:14.998Z</time></trkpt><trkpt lat="49.3328554599147" lon="0.9951273001941348"><ele>133.5</ele><time>2026-03-30T17:36:16.998Z</time></trkpt><trkpt lat="49.33288403000013" lon="0.9949984583935441"><ele>134.33333333333334</ele><time>2026-03-30T17:36:19.998Z</time></trkpt><trkpt lat="49.332902475663786" lon="0.9948962180822869"><ele>135.16666666666669</ele><time>2026-03-30T17:36:21.998Z</time></trkpt><trkpt lat="49.33292489726997" lon="0.99479526594893"><ele>136.0</ele><time>2026-03-30T17:36:23.998Z</time></trkpt><trkpt lat="49.332943755791156" lon="0.9946976608093625"><ele>136.0</ele><time>2026-03-30T17:36:25.998Z</time></trkpt><trkpt lat="49.33297183939002" lon="0.994551905527418"><ele>136.0</ele><time>2026-03-30T17:36:28Z</time></trkpt><trkpt lat="49.33299923835092" lon="0.9943995610865412"><ele>136.0</ele><time>2026-03-30T17:36:30Z</time></trkpt><trkpt lat="49.333020080700116" lon="0.9942930316897615"><ele>136.0</ele><time>2026-03-30T17:36:31Z</time></trkpt><trkpt lat="49.333047141638374" lon="0.994143792353148"><ele>136.0</ele><time>2026-03-30T17:36:32Z</time></trkpt><trkpt lat="49.33308633652292" lon="0.9939571480567199"><ele>137.0</ele><time>2026-03-30T17:36:33Z</time></trkpt><trkpt lat="49.33313076426117" lon="0.9937560653447296"><ele>138.0</ele><time>2026-03-30T17:36:34Z</time></trkpt><trkpt lat="49.333184222493564" lon="0.9935018884703809"><ele>139.0</ele><time>2026-03-30T17:36:35Z</time></trkpt><trkpt lat="49.33322212229179" lon="0.9932646311028251"><ele>139.0</ele><time>2026-03-30T17:36:36Z</time></trkpt><trkpt lat="49.33325596918613" lon="0.9930667177973664"><ele>139.0</ele><time>2026-03-30T17:36:37Z</time></trkpt><trkpt lat="49.33329813996143" lon="0.9928849710763336"><ele>139.0</ele><time>2026-03-30T17:36:38Z</time></trkpt><trkpt lat="49.333338121060784" lon="0.9926826762393705"><ele>139.0</ele><time>2026-03-30T17:36:39Z</time></trkpt><trkpt lat="49.333386571960375" lon="0.9924730315728828"><ele>139.0</ele><time>2026-03-30T17:36:40Z</time></trkpt><trkpt lat="49.33341627978504" lon="0.9923002651953129"><ele>139.0</ele><time>2026-03-30T17:36:41Z</time></trkpt><trkpt lat="49.333445049649065" lon="0.9921419084726117"><ele>139.0</ele><time>2026-03-30T17:36:42Z</time></trkpt><trkpt lat="49.3334671806507" lon="0.9919944884260998"><ele>139.0</ele><time>2026-03-30T17:36:43Z</time></trkpt><trkpt lat="49.333489355170215" lon="0.9918628947250434"><ele>139.0</ele><time>2026-03-30T17:36:44Z</time></trkpt><trkpt lat="49.33352058154668" lon="0.9917184834732266"><ele>138.5</ele><time>2026-03-30T17:36:45Z</time></trkpt><trkpt lat="49.333547934789564" lon="0.9915471366970743"><ele>138.0</ele><time>2026-03-30T17:36:46Z</time></trkpt><trkpt lat="49.33357221246322" lon="0.9913672327285178"><ele>137.5</ele><time>2026-03-30T17:36:47Z</time></trkpt><trkpt lat="49.33359831710129" lon="0.9911694953233121"><ele>137.0</ele><time>2026-03-30T17:36:48Z</time></trkpt><trkpt lat="49.333642514085014" lon="0.9909671667720563"><ele>136.4</ele><time>2026-03-30T17:36:49Z</time></trkpt><trkpt lat="49.33367498418253" lon="0.9907961322577278"><ele>135.79999999999998</ele><time>2026-03-30T17:36:50Z</time></trkpt><trkpt lat="49.3337165423345" lon="0.9906569515705237"><ele>135.2</ele><time>2026-03-30T17:36:51Z</time></trkpt><trkpt lat="49.333758419013996" lon="0.9905184129523822"><ele>134.6</ele><time>2026-03-30T17:36:52Z</time></trkpt><trkpt lat="49.33378984206979" lon="0.9903660126067517"><ele>134.0</ele><time>2026-03-30T17:36:53Z</time></trkpt><trkpt lat="49.33382151318063" lon="0.9901797168291083"><ele>134.0</ele><time>2026-03-30T17:36:54Z</time></trkpt><trkpt lat="49.33384619659867" lon="0.9900224209357085"><ele>134.0</ele><time>2026-03-30T17:36:55Z</time></trkpt><trkpt lat="49.33388241921529" lon="0.9898525274162924"><ele>134.0</ele><time>2026-03-30T17:36:56Z</time></trkpt><trkpt lat="49.33392741721248" lon="0.9896455451492382"><ele>134.0</ele><time>2026-03-30T17:36:57Z</time></trkpt><trkpt lat="49.333969254561815" lon="0.9894773374793446"><ele>134.6</ele><time>2026-03-30T17:36:58Z</time></trkpt><trkpt lat="49.33399229185268" lon="0.9893339545155888"><ele>135.2</ele><time>2026-03-30T17:36:59Z</time></trkpt><trkpt lat="49.33401850272292" lon="0.989196360296685"><ele>135.79999999999998</ele><time>2026-03-30T17:37:00Z</time></trkpt><trkpt lat="49.33404847430437" lon="0.9890547163705316"><ele>136.4</ele><time>2026-03-30T17:37:01Z</time></trkpt><trkpt lat="49.33408092746267" lon="0.9889045960930632"><ele>137.0</ele><time>2026-03-30T17:37:02Z</time></trkpt><trkpt lat="49.33410968799408" lon="0.9887490384005708"><ele>137.0</ele><time>2026-03-30T17:37:03Z</time></trkpt><trkpt lat="49.33413482291749" lon="0.9886247476172826"><ele>137.0</ele><time>2026-03-30T17:37:04Z</time></trkpt><trkpt lat="49.33415413812462" lon="0.9885046012940698"><ele>137.0</ele><time>2026-03-30T17:37:05Z</time></trkpt><trkpt lat="49.33416205240403" lon="0.9883808552915191"><ele>137.0</ele><time>2026-03-30T17:37:06Z</time></trkpt><trkpt lat="49.33417263298159" lon="0.9882006593549332"><ele>137.0</ele><time>2026-03-30T17:37:08Z</time></trkpt><trkpt lat="49.33416980744379" lon="0.9880994151418607"><ele>137.0</ele><time>2026-03-30T17:37:09Z</time></trkpt><trkpt lat="49.33415886511044" lon="0.9879985492062558"><ele>136.66666666666666</ele><time>2026-03-30T17:37:10Z</time></trkpt><trkpt lat="49.3341113111401" lon="0.9879106957462861"><ele>136.33333333333331</ele><time>2026-03-30T17:37:11Z</time></trkpt><trkpt lat="49.33407648093166" lon="0.9878045422235303"><ele>136.0</ele><time>2026-03-30T17:37:12Z</time></trkpt><trkpt lat="49.33403353246861" lon="0.9876554601206332"><ele>135.66666666666666</ele><time>2026-03-30T17:37:13Z</time></trkpt><trkpt lat="49.333986735850935" lon="0.9875410593457293"><ele>135.33333333333334</ele><time>2026-03-30T17:37:13.999Z</time></trkpt><trkpt lat="49.333949023546204" lon="0.9874412654938186"><ele>135.0</ele><time>2026-03-30T17:37:14.999Z</time></trkpt><trkpt lat="49.33391160538114" lon="0.9873447441089712"><ele>134.75</ele><time>2026-03-30T17:37:15.999Z</time></trkpt><trkpt lat="49.33385923039356" lon="0.9872001698902051"><ele>134.5</ele><time>2026-03-30T17:37:16.999Z</time></trkpt><trkpt lat="49.33378420211023" lon="0.987026879713194"><ele>134.25</ele><time>2026-03-30T17:37:17.999Z</time></trkpt><trkpt lat="49.33372341852907" lon="0.9868714073576872"><ele>134.0</ele><time>2026-03-30T17:37:18.999Z</time></trkpt><trkpt lat="49.333671867036195" lon="0.9867008149094044"><ele>133.6</ele><time>2026-03-30T17:37:19.999Z</time></trkpt><trkpt lat="49.33362356335148" lon="0.9865459354170125"><ele>133.2</ele><time>2026-03-30T17:37:20.999Z</time></trkpt><trkpt lat="49.33358048398938" lon="0.9863925786798101"><ele>132.79999999999998</ele><time>2026-03-30T17:37:21.999Z</time></trkpt><trkpt lat="49.33354285714943" lon="0.9862770253005749"><ele>132.4</ele><time>2026-03-30T17:37:22.999Z</time></trkpt><trkpt lat="49.33350412508172" lon="0.9861569635512886"><ele>132.0</ele><time>2026-03-30T17:37:23.999Z</time></trkpt><trkpt lat="49.33347022589858" lon="0.986049002418198"><ele>132.0</ele><time>2026-03-30T17:37:24.999Z</time></trkpt><trkpt lat="49.33344050214559" lon="0.9859493744919539"><ele>132.0</ele><time>2026-03-30T17:37:25.999Z</time></trkpt><trkpt lat="49.33340953422985" lon="0.9858638577565604"><ele>132.0</ele><time>2026-03-30T17:37:26.999Z</time></trkpt><trkpt lat="49.333362659581766" lon="0.9856932478577402"><ele>132.0</ele><time>2026-03-30T17:37:28.999Z</time></trkpt><trkpt lat="49.33330678607983" lon="0.985519607219365"><ele>132.0</ele><time>2026-03-30T17:37:30.999Z</time></trkpt><trkpt lat="49.33323708331277" lon="0.9854304585056419"><ele>131.4</ele><time>2026-03-30T17:37:32.999Z</time></trkpt><trkpt lat="49.33312188372581" lon="0.985398897459682"><ele>130.79999999999998</ele><time>2026-03-30T17:37:34.999Z</time></trkpt><trkpt lat="49.333058051351166" lon="0.9854080978503469"><ele>130.2</ele><time>2026-03-30T17:37:35.999Z</time></trkpt><trkpt lat="49.332965730950185" lon="0.9854926315586354"><ele>129.6</ele><time>2026-03-30T17:37:37.999Z</time></trkpt><trkpt lat="49.33290129493282" lon="0.9855443172043059"><ele>129.0</ele><time>2026-03-30T17:37:38.999Z</time></trkpt><trkpt lat="49.3328238652104" lon="0.9856286955538417"><ele>128.8</ele><time>2026-03-30T17:37:39.999Z</time></trkpt><trkpt lat="49.332751423142554" lon="0.9857034546512397"><ele>128.60000000000002</ele><time>2026-03-30T17:37:40.999Z</time></trkpt><trkpt lat="49.332672841233126" lon="0.9857897553280488"><ele>128.4</ele><time>2026-03-30T17:37:41.999Z</time></trkpt><trkpt lat="49.33259852150143" lon="0.9858669384097223"><ele>128.20000000000002</ele><time>2026-03-30T17:37:42.999Z</time></trkpt><trkpt lat="49.33252599507575" lon="0.9859428013901522"><ele>128.0</ele><time>2026-03-30T17:37:43.999Z</time></trkpt><trkpt lat="49.3323949050121" lon="0.9860245566403913"><ele>127.75</ele><time>2026-03-30T17:37:44.999Z</time></trkpt><trkpt lat="49.332259061676794" lon="0.986142398081251"><ele>127.5</ele><time>2026-03-30T17:37:45.999Z</time></trkpt><trkpt lat="49.33215165241714" lon="0.9862346367737943"><ele>127.25</ele><time>2026-03-30T17:37:46.999Z</time></trkpt><trkpt lat="49.33207543629972" lon="0.9863120174130635"><ele>127.0</ele><time>2026-03-30T17:37:47.999Z</time></trkpt><trkpt lat="49.33199635647961" lon="0.9863867989577314"><ele>126.39999999999999</ele><time>2026-03-30T17:37:48.999Z</time></trkpt><trkpt lat="49.331914762714" lon="0.9864538628628919"><ele>125.79999999999998</ele><time>2026-03-30T17:37:49.999Z</time></trkpt><trkpt lat="49.33180053295995" lon="0.9865322697576093"><ele>125.2</ele><time>2026-03-30T17:37:51.999Z</time></trkpt><trkpt lat="49.331728653134476" lon="0.9865799205422054"><ele>124.6</ele><time>2026-03-30T17:37:52.999Z</time></trkpt><trkpt lat="49.3316544497483" lon="0.9866327245940406"><ele>124.0</ele><time>2026-03-30T17:37:53.999Z</time></trkpt><trkpt lat="49.33159012651085" lon="0.9866935573745851"><ele>124.00000000000001</ele><time>2026-03-30T17:37:54.999Z</time></trkpt><trkpt lat="49.33152227932419" lon="0.9867461159051766"><ele>124.0</ele><time>2026-03-30T17:37:55.999Z</time></trkpt><trkpt lat="49.33144969957784" lon="0.9868049317932183"><ele>124.0</ele><time>2026-03-30T17:37:56.999Z</time></trkpt><trkpt lat="49.33138804164183" lon="0.98685361825726"><ele>124.0</ele><time>2026-03-30T17:37:57.999Z</time></trkpt><trkpt lat="49.331326804114184" lon="0.9869047613688917"><ele>124.00000000000001</ele><time>2026-03-30T17:37:58.999Z</time></trkpt><trkpt lat="49.331266713684165" lon="0.9869511288883174"><ele>124.0</ele><time>2026-03-30T17:37:59.999Z</time></trkpt><trkpt lat="49.331175683382874" lon="0.9870191799769905"><ele>123.6</ele><time>2026-03-30T17:38:01.999Z</time></trkpt><trkpt lat="49.331098797353704" lon="0.9870739675256429"><ele>123.2</ele><time>2026-03-30T17:38:03.999Z</time></trkpt><trkpt lat="49.331023204271396" lon="0.9871273430829278"><ele>122.79999999999998</ele><time>2026-03-30T17:38:05.999Z</time></trkpt><trkpt lat="49.330936493923936" lon="0.9872134663911"><ele>122.39999999999999</ele><time>2026-03-30T17:38:07.999Z</time></trkpt><trkpt lat="49.33085049764516" lon="0.987261719465071"><ele>122.0</ele><time>2026-03-30T17:38:09.999Z</time></trkpt><trkpt lat="49.33076162332357" lon="0.9873028321400418"><ele>121.99999999999999</ele><time>2026-03-30T17:38:11.999Z</time></trkpt><trkpt lat="49.330669947994416" lon="0.9873957121028317"><ele>122.0</ele><time>2026-03-30T17:38:13.999Z</time></trkpt><trkpt lat="49.330584370615796" lon="0.987444854888837"><ele>122.0</ele><time>2026-03-30T17:38:15.998Z</time></trkpt><trkpt lat="49.330514875133225" lon="0.9875043208788009"><ele>122.0</ele><time>2026-03-30T17:38:16.998Z</time></trkpt><trkpt lat="49.33044641345529" lon="0.9875611881636355"><ele>121.99999999999999</ele><time>2026-03-30T17:38:17.998Z</time></trkpt><trkpt lat="49.330387501536926" lon="0.9876385477045267"><ele>122.0</ele><time>2026-03-30T17:38:18.998Z</time></trkpt><trkpt lat="49.33030782532584" lon="0.9877213961974161"><ele>122.99999999999999</ele><time>2026-03-30T17:38:19.998Z</time></trkpt><trkpt lat="49.330223244931425" lon="0.987783147972776"><ele>124.0</ele><time>2026-03-30T17:38:20.998Z</time></trkpt><trkpt lat="49.33015988401056" lon="0.9878410218402157"><ele>125.0</ele><time>2026-03-30T17:38:21.998Z</time></trkpt><trkpt lat="49.33008546121686" lon="0.9878921968769506"><ele>126.0</ele><time>2026-03-30T17:38:22.998Z</time></trkpt><trkpt lat="49.33002027847282" lon="0.9879232361022242"><ele>126.99999999999999</ele><time>2026-03-30T17:38:23.998Z</time></trkpt><trkpt lat="49.32995178508605" lon="0.9879731650264972"><ele>128.0</ele><time>2026-03-30T17:38:24.998Z</time></trkpt><trkpt lat="49.329865079318125" lon="0.9880628767131188"><ele>127.99999999999999</ele><time>2026-03-30T17:38:25.998Z</time></trkpt><trkpt lat="49.32978703738462" lon="0.9881472706967314"><ele>128.0</ele><time>2026-03-30T17:38:26.998Z</time></trkpt><trkpt lat="49.329714883565224" lon="0.9882005606259285"><ele>128.0</ele><time>2026-03-30T17:38:27.998Z</time></trkpt><trkpt lat="49.329654334983225" lon="0.988231938009823"><ele>128.0</ele><time>2026-03-30T17:38:28.998Z</time></trkpt><trkpt lat="49.32955876805046" lon="0.9882900009410146"><ele>127.99999999999999</ele><time>2026-03-30T17:38:30.998Z</time></trkpt><trkpt lat="49.32947292132822" lon="0.9882992096366299"><ele>128.0</ele><time>2026-03-30T17:38:34Z</time></trkpt><trkpt lat="49.32943110704522" lon="0.9881959011933936"><ele>128.25</ele><time>2026-03-30T17:38:38Z</time></trkpt><trkpt lat="49.32937531415327" lon="0.9880720080663589"><ele>128.5</ele><time>2026-03-30T17:38:41Z</time></trkpt><trkpt lat="49.32934695266721" lon="0.9879614448251467"><ele>128.75</ele><time>2026-03-30T17:38:44Z</time></trkpt><trkpt lat="49.32933054659194" lon="0.9878590031592612"><ele>129.0</ele><time>2026-03-30T17:38:46Z</time></trkpt><trkpt lat="49.32914880059805" lon="0.9872915581851816"><ele>129.0</ele><time>2026-03-30T17:38:48Z</time></trkpt><trkpt lat="49.32909793285226" lon="0.9871468483490986"><ele>129.0</ele><time>2026-03-30T17:38:50Z</time></trkpt><trkpt lat="49.32904272150232" lon="0.9869883672828459"><ele>129.0</ele><time>2026-03-30T17:38:52Z</time></trkpt><trkpt lat="49.32900929317153" lon="0.9869046065041626"><ele>129.0</ele><time>2026-03-30T17:38:53Z</time></trkpt><trkpt lat="49.32897846304228" lon="0.9868105524716514"><ele>129.0</ele><time>2026-03-30T17:38:54Z</time></trkpt><trkpt lat="49.328944762821955" lon="0.9867135014493024"><ele>129.0</ele><time>2026-03-30T17:38:55Z</time></trkpt><trkpt lat="49.32890290770034" lon="0.9865961856098782"><ele>128.4</ele><time>2026-03-30T17:38:56Z</time></trkpt><trkpt lat="49.3288521672191" lon="0.9864657592424774"><ele>127.80000000000001</ele><time>2026-03-30T17:38:57Z</time></trkpt><trkpt lat="49.32879729542475" lon="0.9863323840570057"><ele>127.19999999999999</ele><time>2026-03-30T17:38:58Z</time></trkpt><trkpt lat="49.32874027720587" lon="0.9861939597304462"><ele>126.6</ele><time>2026-03-30T17:38:59Z</time></trkpt><trkpt lat="49.328681572659114" lon="0.9860634146335334"><ele>126.0</ele><time>2026-03-30T17:39:00Z</time></trkpt><trkpt lat="49.328608105160754" lon="0.9859775772969388"><ele>126.0</ele><time>2026-03-30T17:39:01Z</time></trkpt><trkpt lat="49.32854213183664" lon="0.9859160348554994"><ele>126.0</ele><time>2026-03-30T17:39:02Z</time></trkpt><trkpt lat="49.32848369897514" lon="0.9858786377782741"><ele>126.0</ele><time>2026-03-30T17:39:03Z</time></trkpt><trkpt lat="49.32841866599429" lon="0.9858646098780217"><ele>126.0</ele><time>2026-03-30T17:39:04Z</time></trkpt><trkpt lat="49.32831632553716" lon="0.9859260794893421"><ele>126.0</ele><time>2026-03-30T17:39:06Z</time></trkpt><trkpt lat="49.32824784752096" lon="0.9859764115704146"><ele>126.0</ele><time>2026-03-30T17:39:07Z</time></trkpt><trkpt lat="49.32818563945486" lon="0.9860210884901262"><ele>126.0</ele><time>2026-03-30T17:39:08Z</time></trkpt><trkpt lat="49.328103844302795" lon="0.9861007786810998"><ele>126.0</ele><time>2026-03-30T17:39:09Z</time></trkpt><trkpt lat="49.32801829850092" lon="0.9862098285233498"><ele>126.0</ele><time>2026-03-30T17:39:10Z</time></trkpt><trkpt lat="49.327923876260186" lon="0.9862613845435504"><ele>126.0</ele><time>2026-03-30T17:39:11Z</time></trkpt><trkpt lat="49.32784399843416" lon="0.9863207795762466"><ele>126.0</ele><time>2026-03-30T17:39:12Z</time></trkpt><trkpt lat="49.327773224262046" lon="0.9863765936837005"><ele>125.8</ele><time>2026-03-30T17:39:13Z</time></trkpt><trkpt lat="49.327678334575076" lon="0.9864410938320188"><ele>125.6</ele><time>2026-03-30T17:39:14Z</time></trkpt><trkpt lat="49.32758665586993" lon="0.9865203142597335"><ele>125.4</ele><time>2026-03-30T17:39:15Z</time></trkpt><trkpt lat="49.3275000706212" lon="0.9865900146704649"><ele>125.2</ele><time>2026-03-30T17:39:16Z</time></trkpt><trkpt lat="49.32742228309619" lon="0.9866543707833271"><ele>125.0</ele><time>2026-03-30T17:39:17Z</time></trkpt><trkpt lat="49.327320163249325" lon="0.9867281762793054"><ele>125.0</ele><time>2026-03-30T17:39:18Z</time></trkpt><trkpt lat="49.32724143106173" lon="0.9867876683636826"><ele>125.0</ele><time>2026-03-30T17:39:19Z</time></trkpt><trkpt lat="49.32715568798204" lon="0.9868500604478185"><ele>125.0</ele><time>2026-03-30T17:39:19.999Z</time></trkpt><trkpt lat="49.32708464450182" lon="0.9869164174585263"><ele>125.0</ele><time>2026-03-30T17:39:20.999Z</time></trkpt><trkpt lat="49.32700181151625" lon="0.9869972660432076"><ele>125.0</ele><time>2026-03-30T17:39:21.999Z</time></trkpt><trkpt lat="49.32689885517207" lon="0.9870700082690432"><ele>124.49999999999999</ele><time>2026-03-30T17:39:22.999Z</time></trkpt><trkpt lat="49.32683732651642" lon="0.9871431146564361"><ele>124.0</ele><time>2026-03-30T17:39:23.999Z</time></trkpt><trkpt lat="49.326760777116355" lon="0.9872109934620183"><ele>123.5</ele><time>2026-03-30T17:39:24.999Z</time></trkpt><trkpt lat="49.32668353122575" lon="0.9872487702290075"><ele>123.0</ele><time>2026-03-30T17:39:25.999Z</time></trkpt><trkpt lat="49.326618235683135" lon="0.9872883598020249"><ele>122.49999999999999</ele><time>2026-03-30T17:39:26.999Z</time></trkpt><trkpt lat="49.3265592499189" lon="0.9873313026452435"><ele>122.0</ele><time>2026-03-30T17:39:27.999Z</time></trkpt><trkpt lat="49.32648929626808" lon="0.9873872069193121"><ele>121.99999999999999</ele><time>2026-03-30T17:39:28.999Z</time></trkpt><trkpt lat="49.326408923056924" lon="0.9874475308923077"><ele>122.0</ele><time>2026-03-30T17:39:29.999Z</time></trkpt><trkpt lat="49.32632760523711" lon="0.9874915700184982"><ele>122.0</ele><time>2026-03-30T17:39:30.999Z</time></trkpt><trkpt lat="49.32625317946686" lon="0.9875436327014593"><ele>122.0</ele><time>2026-03-30T17:39:31.999Z</time></trkpt><trkpt lat="49.3261842114556" lon="0.9875959986255963"><ele>121.99999999999999</ele><time>2026-03-30T17:39:32.999Z</time></trkpt><trkpt lat="49.32611316672932" lon="0.9876715731378087"><ele>122.0</ele><time>2026-03-30T17:39:33.999Z</time></trkpt><trkpt lat="49.32605046197549" lon="0.987718762604024"><ele>121.66666666666666</ele><time>2026-03-30T17:39:34.999Z</time></trkpt><trkpt lat="49.32598214806911" lon="0.9877560702282852"><ele>121.33333333333333</ele><time>2026-03-30T17:39:35.999Z</time></trkpt><trkpt lat="49.32589684846761" lon="0.9878093827303397"><ele>121.0</ele><time>2026-03-30T17:39:36.999Z</time></trkpt><trkpt lat="49.32583537146019" lon="0.9878701601721133"><ele>120.66666666666666</ele><time>2026-03-30T17:39:37.999Z</time></trkpt><trkpt lat="49.325721655882035" lon="0.9879691622135269"><ele>120.33333333333333</ele><time>2026-03-30T17:39:39.999Z</time></trkpt><trkpt lat="49.325655011805495" lon="0.9880168226174854"><ele>120.0</ele><time>2026-03-30T17:39:40.999Z</time></trkpt><trkpt lat="49.32558695406627" lon="0.9880694145975749"><ele>118.2</ele><time>2026-03-30T17:39:41.999Z</time></trkpt><trkpt lat="49.325509308265275" lon="0.9881141561886561"><ele>116.4</ele><time>2026-03-30T17:39:42.999Z</time></trkpt><trkpt lat="49.325438414135036" lon="0.9881694121437594"><ele>114.6</ele><time>2026-03-30T17:39:43.999Z</time></trkpt><trkpt lat="49.32537801805227" lon="0.9882148614152102"><ele>112.8</ele><time>2026-03-30T17:39:44.999Z</time></trkpt><trkpt lat="49.32526157559797" lon="0.9883156261413771"><ele>111.0</ele><time>2026-03-30T17:39:46.999Z</time></trkpt><trkpt lat="49.325146636813926" lon="0.9884109962193119"><ele>111.0</ele><time>2026-03-30T17:39:48.999Z</time></trkpt><trkpt lat="49.32507941607978" lon="0.9884597675704713"><ele>111.0</ele><time>2026-03-30T17:39:49.999Z</time></trkpt><trkpt lat="49.32500321936374" lon="0.9885223333824418"><ele>111.0</ele><time>2026-03-30T17:39:50.999Z</time></trkpt><trkpt lat="49.32493571100693" lon="0.9885652464649649"><ele>111.0</ele><time>2026-03-30T17:39:51.999Z</time></trkpt><trkpt lat="49.32482706383568" lon="0.9886613665334216"><ele>111.0</ele><time>2026-03-30T17:39:53.999Z</time></trkpt><trkpt lat="49.32474826948444" lon="0.9886747671699632"><ele>111.0</ele><time>2026-03-30T17:39:55.999Z</time></trkpt><trkpt lat="49.32468437390715" lon="0.9886688746752113"><ele>108.19999999999999</ele><time>2026-03-30T17:39:57.999Z</time></trkpt><trkpt lat="49.32461904161935" lon="0.9885241331178187"><ele>105.39999999999999</ele><time>2026-03-30T17:39:59.999Z</time></trkpt><trkpt lat="49.32458728928397" lon="0.9884095335966608"><ele>102.6</ele><time>2026-03-30T17:40:03.999Z</time></trkpt><trkpt lat="49.3245383371681" lon="0.9882775441080787"><ele>99.8</ele><time>2026-03-30T17:40:04.999Z</time></trkpt><trkpt lat="49.324499999023544" lon="0.988147545447294"><ele>97.0</ele><time>2026-03-30T17:40:05.999Z</time></trkpt><trkpt lat="49.32446333720036" lon="0.9880449234307015"><ele>96.66666666666667</ele><time>2026-03-30T17:40:06.999Z</time></trkpt><trkpt lat="49.32443583839497" lon="0.9879418026873032"><ele>96.33333333333334</ele><time>2026-03-30T17:40:07.999Z</time></trkpt><trkpt lat="49.32440763309225" lon="0.98784073216576"><ele>96.0</ele><time>2026-03-30T17:40:08.999Z</time></trkpt><trkpt lat="49.32437901204109" lon="0.987744096768841"><ele>95.66666666666667</ele><time>2026-03-30T17:40:09.999Z</time></trkpt><trkpt lat="49.32432670384416" lon="0.9876029389464714"><ele>95.33333333333334</ele><time>2026-03-30T17:40:10.999Z</time></trkpt><trkpt lat="49.32428842573138" lon="0.9874633954121343"><ele>95.0</ele><time>2026-03-30T17:40:11.999Z</time></trkpt><trkpt lat="49.324248447627696" lon="0.9873507281083511"><ele>94.57142857142857</ele><time>2026-03-30T17:40:12.999Z</time></trkpt><trkpt lat="49.32420980693548" lon="0.9872522090620721"><ele>94.14285714285714</ele><time>2026-03-30T17:40:13.999Z</time></trkpt><trkpt lat="49.32417323746092" lon="0.9871551795801293"><ele>93.71428571428572</ele><time>2026-03-30T17:40:14.999Z</time></trkpt><trkpt lat="49.32415029476716" lon="0.9870335147165368"><ele>93.28571428571428</ele><time>2026-03-30T17:40:15.999Z</time></trkpt><trkpt lat="49.32412528558099" lon="0.9869438317553029"><ele>92.85714285714285</ele><time>2026-03-30T17:40:16.999Z</time></trkpt><trkpt lat="49.324092841416345" lon="0.986852727855808"><ele>92.42857142857143</ele><time>2026-03-30T17:40:17.999Z</time></trkpt><trkpt lat="49.324054124870784" lon="0.9867555337486181"><ele>92.0</ele><time>2026-03-30T17:40:18.999Z</time></trkpt><trkpt lat="49.32402896550292" lon="0.9866624095583996"><ele>91.39999999999999</ele><time>2026-03-30T17:40:19.999Z</time></trkpt><trkpt lat="49.32396946931324" lon="0.9864786051674899"><ele>90.8</ele><time>2026-03-30T17:40:21.998Z</time></trkpt><trkpt lat="49.323918369043454" lon="0.9863621547552672"><ele>90.2</ele><time>2026-03-30T17:40:23.998Z</time></trkpt><trkpt lat="49.32388683679183" lon="0.986275959187884"><ele>89.6</ele><time>2026-03-30T17:40:24.998Z</time></trkpt><trkpt lat="49.32383402068898" lon="0.9860910474643371"><ele>89.0</ele><time>2026-03-30T17:40:26.998Z</time></trkpt><trkpt lat="49.323804717728024" lon="0.9859999863218908"><ele>86.4</ele><time>2026-03-30T17:40:27.998Z</time></trkpt><trkpt lat="49.32377933109842" lon="0.9859029279372677"><ele>83.80000000000001</ele><time>2026-03-30T17:40:28.998Z</time></trkpt><trkpt lat="49.323728239486634" lon="0.9857350169495023"><ele>81.19999999999999</ele><time>2026-03-30T17:40:30.998Z</time></trkpt><trkpt lat="49.32369396896527" lon="0.9856153160104683"><ele>78.6</ele><time>2026-03-30T17:40:31.998Z</time></trkpt><trkpt lat="49.32365218932937" lon="0.9854292846124917"><ele>76.0</ele><time>2026-03-30T17:40:33.998Z</time></trkpt><trkpt lat="49.32361786834796" lon="0.9853273999259332"><ele>75.16666666666666</ele><time>2026-03-30T17:40:34.998Z</time></trkpt><trkpt lat="49.32358071519888" lon="0.9852123001440907"><ele>74.33333333333333</ele><time>2026-03-30T17:40:35.998Z</time></trkpt><trkpt lat="49.32352921592905" lon="0.9850745690735606"><ele>73.5</ele><time>2026-03-30T17:40:36.998Z</time></trkpt><trkpt lat="49.32348715029976" lon="0.9849594451953393"><ele>72.66666666666667</ele><time>2026-03-30T17:40:37.998Z</time></trkpt><trkpt lat="49.32343160293583" lon="0.9848406776766324"><ele>71.83333333333334</ele><time>2026-03-30T17:40:39Z</time></trkpt><trkpt lat="49.32337496068537" lon="0.9847660400819457"><ele>71.0</ele><time>2026-03-30T17:40:40Z</time></trkpt><trkpt lat="49.323319006980874" lon="0.984717886348157"><ele>70.66666666666667</ele><time>2026-03-30T17:40:41Z</time></trkpt><trkpt lat="49.32324910086293" lon="0.9846465934178898"><ele>70.33333333333334</ele><time>2026-03-30T17:40:42Z</time></trkpt><trkpt lat="49.32317247935383" lon="0.9845646699532935"><ele>70.0</ele><time>2026-03-30T17:40:43Z</time></trkpt><trkpt lat="49.323088018864276" lon="0.984505348620301"><ele>69.66666666666667</ele><time>2026-03-30T17:40:44Z</time></trkpt><trkpt lat="49.323020720653425" lon="0.98444795603974"><ele>69.33333333333333</ele><time>2026-03-30T17:40:45Z</time></trkpt><trkpt lat="49.32295859689942" lon="0.9843738385974374"><ele>69.0</ele><time>2026-03-30T17:40:46Z</time></trkpt><trkpt lat="49.32289199586399" lon="0.9843086995576807"><ele>67.0</ele><time>2026-03-30T17:40:48Z</time></trkpt><trkpt lat="49.32283479195344" lon="0.9842298655923236"><ele>65.0</ele><time>2026-03-30T17:40:51Z</time></trkpt><trkpt lat="49.32275982856491" lon="0.9841726319724016"><ele>63.00000000000001</ele><time>2026-03-30T17:40:54Z</time></trkpt><trkpt lat="49.32263669686138" lon="0.9840585901814843"><ele>61.0</ele><time>2026-03-30T17:40:56Z</time></trkpt><trkpt lat="49.322559686417904" lon="0.9840059107727961"><ele>59.0</ele><time>2026-03-30T17:40:57Z</time></trkpt><trkpt lat="49.32249039849653" lon="0.9839608565860551"><ele>58.6</ele><time>2026-03-30T17:40:58Z</time></trkpt><trkpt lat="49.322426519347" lon="0.9839064253359322"><ele>58.2</ele><time>2026-03-30T17:40:59Z</time></trkpt><trkpt lat="49.322375666381575" lon="0.9838331258438967"><ele>57.800000000000004</ele><time>2026-03-30T17:41:00Z</time></trkpt><trkpt lat="49.32229751998175" lon="0.983752343211828"><ele>57.400000000000006</ele><time>2026-03-30T17:41:01Z</time></trkpt><trkpt lat="49.32219220903914" lon="0.9836787685985452"><ele>57.0</ele><time>2026-03-30T17:41:02Z</time></trkpt><trkpt lat="49.32208525078641" lon="0.9835912679885791"><ele>56.2</ele><time>2026-03-30T17:41:03Z</time></trkpt><trkpt lat="49.32199703166101" lon="0.9835053755598541"><ele>55.400000000000006</ele><time>2026-03-30T17:41:04Z</time></trkpt><trkpt lat="49.321915255178304" lon="0.9834347241413578"><ele>54.599999999999994</ele><time>2026-03-30T17:41:05Z</time></trkpt><trkpt lat="49.32181649136019" lon="0.9833421205036685"><ele>53.8</ele><time>2026-03-30T17:41:06Z</time></trkpt><trkpt lat="49.321732772379534" lon="0.9832807957409994"><ele>53.0</ele><time>2026-03-30T17:41:07Z</time></trkpt><trkpt lat="49.32165510008576" lon="0.9832077859615266"><ele>51.8</ele><time>2026-03-30T17:41:08Z</time></trkpt><trkpt lat="49.32156754971269" lon="0.9831269716854605"><ele>50.599999999999994</ele><time>2026-03-30T17:41:09Z</time></trkpt><trkpt lat="49.32149532119665" lon="0.983062360039014"><ele>49.400000000000006</ele><time>2026-03-30T17:41:10Z</time></trkpt><trkpt lat="49.321418400278105" lon="0.9830009516875199"><ele>48.2</ele><time>2026-03-30T17:41:11Z</time></trkpt><trkpt lat="49.321325407519865" lon="0.9829033636153117"><ele>47.0</ele><time>2026-03-30T17:41:12Z</time></trkpt><trkpt lat="49.32124192929368" lon="0.9828303882369764"><ele>46.5</ele><time>2026-03-30T17:41:13Z</time></trkpt><trkpt lat="49.321174997078494" lon="0.98276769588001"><ele>46.0</ele><time>2026-03-30T17:41:14Z</time></trkpt><trkpt lat="49.32109956117798" lon="0.9826953986166463"><ele>45.5</ele><time>2026-03-30T17:41:15Z</time></trkpt><trkpt lat="49.32100963993576" lon="0.9826123759421319"><ele>45.0</ele><time>2026-03-30T17:41:16Z</time></trkpt><trkpt lat="49.32093396313062" lon="0.9825524590194746"><ele>44.5</ele><time>2026-03-30T17:41:17Z</time></trkpt><trkpt lat="49.32085938458658" lon="0.9824821186569254"><ele>44.0</ele><time>2026-03-30T17:41:18Z</time></trkpt><trkpt lat="49.32078193709247" lon="0.9824049482858075"><ele>42.800000000000004</ele><time>2026-03-30T17:41:19Z</time></trkpt><trkpt lat="49.32069204583581" lon="0.9823257112805105"><ele>41.6</ele><time>2026-03-30T17:41:19.999Z</time></trkpt><trkpt lat="49.320600818083555" lon="0.9822451037768504"><ele>40.4</ele><time>2026-03-30T17:41:20.999Z</time></trkpt><trkpt lat="49.32047635782132" lon="0.9821595028759966"><ele>39.2</ele><time>2026-03-30T17:41:22.999Z</time></trkpt><trkpt lat="49.320385270501674" lon="0.9820921854015563"><ele>38.0</ele><time>2026-03-30T17:41:23.999Z</time></trkpt><trkpt lat="49.32028920348533" lon="0.9820192572513313"><ele>36.4</ele><time>2026-03-30T17:41:24.999Z</time></trkpt><trkpt lat="49.32019257104524" lon="0.9819373132894793"><ele>34.8</ele><time>2026-03-30T17:41:25.999Z</time></trkpt><trkpt lat="49.32010673082348" lon="0.9818498976273832"><ele>33.2</ele><time>2026-03-30T17:41:26.999Z</time></trkpt><trkpt lat="49.3200167012162" lon="0.9817642440817839"><ele>31.6</ele><time>2026-03-30T17:41:27.999Z</time></trkpt><trkpt lat="49.31992866078955" lon="0.9816663664369452"><ele>30.0</ele><time>2026-03-30T17:41:28.999Z</time></trkpt><trkpt lat="49.31981866666406" lon="0.9815699079785075"><ele>30.5</ele><time>2026-03-30T17:41:29.999Z</time></trkpt><trkpt lat="49.319697169080264" lon="0.9814681072156002"><ele>31.0</ele><time>2026-03-30T17:41:30.999Z</time></trkpt><trkpt lat="49.319583532895344" lon="0.9813693961316404"><ele>31.5</ele><time>2026-03-30T17:41:31.999Z</time></trkpt><trkpt lat="49.31947633892431" lon="0.9812639395862816"><ele>32.0</ele><time>2026-03-30T17:41:32.999Z</time></trkpt><trkpt lat="49.319370028032104" lon="0.9811724892766661"><ele>32.0</ele><time>2026-03-30T17:41:33.999Z</time></trkpt><trkpt lat="49.3192629374267" lon="0.9810611774673711"><ele>32.0</ele><time>2026-03-30T17:41:34.999Z</time></trkpt><trkpt lat="49.3191613842232" lon="0.9809648292605024"><ele>32.0</ele><time>2026-03-30T17:41:35.999Z</time></trkpt><trkpt lat="49.31907178893824" lon="0.9808648761258946"><ele>32.0</ele><time>2026-03-30T17:41:36.999Z</time></trkpt><trkpt lat="49.31896495078261" lon="0.9807560848306418"><ele>36.75</ele><time>2026-03-30T17:41:37.999Z</time></trkpt><trkpt lat="49.31884438529287" lon="0.9806618530359459"><ele>41.5</ele><time>2026-03-30T17:41:38.999Z</time></trkpt><trkpt lat="49.318730167731054" lon="0.9805623958215496"><ele>46.25</ele><time>2026-03-30T17:41:39.999Z</time></trkpt><trkpt lat="49.318637954543" lon="0.9804750853461254"><ele>51.0</ele><time>2026-03-30T17:41:40.999Z</time></trkpt><trkpt lat="49.31855008558748" lon="0.9803825285400657"><ele>51.0</ele><time>2026-03-30T17:41:41.999Z</time></trkpt><trkpt lat="49.31847489235548" lon="0.9803109876073345"><ele>51.0</ele><time>2026-03-30T17:41:42.999Z</time></trkpt><trkpt lat="49.31840819060122" lon="0.9802369691813454"><ele>51.0</ele><time>2026-03-30T17:41:43.999Z</time></trkpt><trkpt lat="49.31834616592523" lon="0.9801647820142122"><ele>51.0</ele><time>2026-03-30T17:41:44.999Z</time></trkpt><trkpt lat="49.31828211151609" lon="0.9800903281377353"><ele>51.0</ele><time>2026-03-30T17:41:45.999Z</time></trkpt><trkpt lat="49.31822155826539" lon="0.980022186965654"><ele>51.0</ele><time>2026-03-30T17:41:46.999Z</time></trkpt><trkpt lat="49.31815681759942" lon="0.9799432807360906"><ele>51.0</ele><time>2026-03-30T17:41:49.999Z</time></trkpt><trkpt lat="49.31810732857801" lon="0.9798523642340041"><ele>51.0</ele><time>2026-03-30T17:41:51.999Z</time></trkpt><trkpt lat="49.31818581788288" lon="0.9799929948475767"><ele>51.0</ele><time>2026-03-30T17:42:50Z</time></trkpt><trkpt lat="49.31817847712466" lon="0.9800928942290582"><ele>51.0</ele><time>2026-03-30T17:42:53Z</time></trkpt><trkpt lat="49.31823107704266" lon="0.9800328223438961"><ele>51.0</ele><time>2026-03-30T17:43:14Z</time></trkpt><trkpt lat="49.318287500973504" lon="0.9800819789321776"><ele>51.0</ele><time>2026-03-30T17:43:26.999Z</time></trkpt><trkpt lat="49.3183469523394" lon="0.9801850908126551"><ele>51.0</ele><time>2026-03-30T17:44:07.999Z</time></trkpt><trkpt lat="49.318306011038594" lon="0.9800865136690579"><ele>51.0</ele><time>2026-03-30T17:53:06.998Z</time></trkpt><trkpt lat="49.318241359212934" lon="0.9800653874007353"><ele>51.0</ele><time>2026-03-30T17:53:45.999Z</time></trkpt><trkpt lat="49.31817211652884" lon="0.9800681497125349"><ele>51.0</ele><time>2026-03-30T17:54:46.998Z</time></trkpt><trkpt lat="49.31822789424732" lon="0.9800185061683672"><ele>51.0</ele><time>2026-03-30T17:55:09.998Z</time></trkpt><trkpt lat="49.318177072981655" lon="0.9799523588485193"><ele>51.0</ele><time>2026-03-30T17:55:31Z</time></trkpt><trkpt lat="49.31811680002106" lon="0.9799136901503406"><ele>51.0</ele><time>2026-03-30T17:55:36Z</time></trkpt><trkpt lat="49.318074755239586" lon="0.9798103375827051"><ele>53.333333333333336</ele><time>2026-03-30T17:57:37Z</time></trkpt><trkpt lat="49.31799810278278" lon="0.9797978270864608"><ele>55.66666666666667</ele><time>2026-03-30T17:57:39Z</time></trkpt><trkpt lat="49.31788931733938" lon="0.9797456949633238"><ele>58.0</ele><time>2026-03-30T17:57:41Z</time></trkpt><trkpt lat="49.31783308228071" lon="0.9796949205860701"><ele>60.333333333333336</ele><time>2026-03-30T17:57:43Z</time></trkpt><trkpt lat="49.317739398126285" lon="0.9796011696056344"><ele>62.66666666666667</ele><time>2026-03-30T17:57:45Z</time></trkpt><trkpt lat="49.31768170275954" lon="0.9795431586820681"><ele>65.0</ele><time>2026-03-30T17:57:46Z</time></trkpt><trkpt lat="49.31760604790037" lon="0.9794413704562586"><ele>65.0</ele><time>2026-03-30T17:57:47Z</time></trkpt><trkpt lat="49.31752606835667" lon="0.9793641942916771"><ele>65.0</ele><time>2026-03-30T17:57:48Z</time></trkpt><trkpt lat="49.317439342716725" lon="0.9792705174425843"><ele>65.0</ele><time>2026-03-30T17:57:49Z</time></trkpt><trkpt lat="49.31734004659194" lon="0.9791833996780639"><ele>65.0</ele><time>2026-03-30T17:57:50Z</time></trkpt><trkpt lat="49.31724822928951" lon="0.9790954654518349"><ele>65.0</ele><time>2026-03-30T17:57:51Z</time></trkpt><trkpt lat="49.31715941455868" lon="0.979016150840472"><ele>69.66666666666667</ele><time>2026-03-30T17:57:52Z</time></trkpt><trkpt lat="49.31707325153014" lon="0.9789731403891602"><ele>74.33333333333334</ele><time>2026-03-30T17:57:53Z</time></trkpt><trkpt lat="49.31699575737281" lon="0.9789232701346996"><ele>79.0</ele><time>2026-03-30T17:57:54Z</time></trkpt><trkpt lat="49.316930141265" lon="0.9788784694025607"><ele>83.66666666666667</ele><time>2026-03-30T17:57:55Z</time></trkpt><trkpt lat="49.316845801034404" lon="0.9788804765348416"><ele>88.33333333333333</ele><time>2026-03-30T17:57:56Z</time></trkpt><trkpt lat="49.316786372475526" lon="0.9787933435926531"><ele>93.0</ele><time>2026-03-30T17:57:58Z</time></trkpt><trkpt lat="49.31673102180406" lon="0.97870998270865"><ele>93.0</ele><time>2026-03-30T17:58:00Z</time></trkpt><trkpt lat="49.31662168616917" lon="0.9786426407205362"><ele>93.0</ele><time>2026-03-30T17:58:02Z</time></trkpt><trkpt lat="49.316569153021554" lon="0.9785875247887473"><ele>93.0</ele><time>2026-03-30T17:58:03Z</time></trkpt><trkpt lat="49.316511696426424" lon="0.9785295269019325"><ele>93.0</ele><time>2026-03-30T17:58:04Z</time></trkpt><trkpt lat="49.31645139933408" lon="0.9784523138406703"><ele>93.0</ele><time>2026-03-30T17:58:05Z</time></trkpt><trkpt lat="49.316376932378" lon="0.9783699363716847"><ele>93.0</ele><time>2026-03-30T17:58:06Z</time></trkpt><trkpt lat="49.31630404396069" lon="0.978306671319015"><ele>96.0</ele><time>2026-03-30T17:58:07Z</time></trkpt><trkpt lat="49.31624106249958" lon="0.9782544607228569"><ele>99.0</ele><time>2026-03-30T17:58:07.999Z</time></trkpt><trkpt lat="49.316139164963836" lon="0.9781615910298822"><ele>102.0</ele><time>2026-03-30T17:58:09.999Z</time></trkpt><trkpt lat="49.31604528334258" lon="0.9781049612881574"><ele>105.0</ele><time>2026-03-30T17:58:11.999Z</time></trkpt><trkpt lat="49.31599182321104" lon="0.9780367990357198"><ele>108.0</ele><time>2026-03-30T17:58:13.999Z</time></trkpt><trkpt lat="49.31592463069999" lon="0.9779692951338419"><ele>111.0</ele><time>2026-03-30T17:58:15.999Z</time></trkpt><trkpt lat="49.315861772936074" lon="0.9779031089919553"><ele>111.0</ele><time>2026-03-30T17:58:17.999Z</time></trkpt><trkpt lat="49.31578325529827" lon="0.9778479833276162"><ele>111.0</ele><time>2026-03-30T17:58:19.999Z</time></trkpt><trkpt lat="49.315714248852274" lon="0.9777944812292508"><ele>111.0</ele><time>2026-03-30T17:58:20.999Z</time></trkpt><trkpt lat="49.31562326864195" lon="0.9777017859293843"><ele>111.0</ele><time>2026-03-30T17:58:21.999Z</time></trkpt><trkpt lat="49.31549967599721" lon="0.9775779077102952"><ele>111.0</ele><time>2026-03-30T17:58:22.999Z</time></trkpt><trkpt lat="49.315372031595615" lon="0.9774495851603902"><ele>114.0</ele><time>2026-03-30T17:58:23.999Z</time></trkpt><trkpt lat="49.315237143065886" lon="0.9773188116640059"><ele>117.0</ele><time>2026-03-30T17:58:24.999Z</time></trkpt><trkpt lat="49.31508696855778" lon="0.9771688596536234"><ele>120.0</ele><time>2026-03-30T17:58:25.999Z</time></trkpt><trkpt lat="49.31497106074002" lon="0.9770678706546572"><ele>120.0</ele><time>2026-03-30T17:58:26.999Z</time></trkpt><trkpt lat="49.314876313809926" lon="0.9769712687158021"><ele>120.0</ele><time>2026-03-30T17:58:27.999Z</time></trkpt><trkpt lat="49.3148028444831" lon="0.9768995706162481"><ele>120.0</ele><time>2026-03-30T17:58:28.999Z</time></trkpt><trkpt lat="49.31473143633332" lon="0.9768353731246522"><ele>120.0</ele><time>2026-03-30T17:58:29.999Z</time></trkpt><trkpt lat="49.31465912057398" lon="0.9767751508778227"><ele>120.0</ele><time>2026-03-30T17:58:30.999Z</time></trkpt><trkpt lat="49.314596650209765" lon="0.9767184896424937"><ele>120.0</ele><time>2026-03-30T17:58:31.999Z</time></trkpt><trkpt lat="49.314526240570466" lon="0.9766720264904792"><ele>120.6</ele><time>2026-03-30T17:58:32.999Z</time></trkpt><trkpt lat="49.314466639039686" lon="0.976611999815525"><ele>121.2</ele><time>2026-03-30T17:58:33.999Z</time></trkpt><trkpt lat="49.314389720164264" lon="0.9765487607817682"><ele>121.80000000000001</ele><time>2026-03-30T17:58:34.999Z</time></trkpt><trkpt lat="49.31429450413906" lon="0.976454473401767"><ele>122.4</ele><time>2026-03-30T17:58:35.999Z</time></trkpt><trkpt lat="49.31420130119152" lon="0.9763763460737432"><ele>123.0</ele><time>2026-03-30T17:58:36.999Z</time></trkpt><trkpt lat="49.31411988136185" lon="0.9762881493946156"><ele>123.0</ele><time>2026-03-30T17:58:37.999Z</time></trkpt><trkpt lat="49.314029719424525" lon="0.9761803110726578"><ele>123.0</ele><time>2026-03-30T17:58:38.999Z</time></trkpt><trkpt lat="49.31390103597625" lon="0.9760575596410757"><ele>123.0</ele><time>2026-03-30T17:58:39.999Z</time></trkpt><trkpt lat="49.313760906192456" lon="0.9759429685565106"><ele>123.0</ele><time>2026-03-30T17:58:40.999Z</time></trkpt><trkpt lat="49.313648925201555" lon="0.975843788871669"><ele>123.0</ele><time>2026-03-30T17:58:41.999Z</time></trkpt><trkpt lat="49.31354980207272" lon="0.9757533360508889"><ele>123.00000000000001</ele><time>2026-03-30T17:58:42.999Z</time></trkpt><trkpt lat="49.31346531285135" lon="0.9756786263839838"><ele>123.00000000000001</ele><time>2026-03-30T17:58:43.999Z</time></trkpt><trkpt lat="49.31337780209063" lon="0.9756068199104425"><ele>123.0</ele><time>2026-03-30T17:58:44.999Z</time></trkpt><trkpt lat="49.313292667541916" lon="0.9755316784633271"><ele>123.0</ele><time>2026-03-30T17:58:45.999Z</time></trkpt><trkpt lat="49.3132197207736" lon="0.975458239423981"><ele>123.0</ele><time>2026-03-30T17:58:46.999Z</time></trkpt><trkpt lat="49.31315195797901" lon="0.9753915734685955"><ele>123.0</ele><time>2026-03-30T17:58:47.999Z</time></trkpt><trkpt lat="49.31308412874236" lon="0.9753304922537896"><ele>123.0</ele><time>2026-03-30T17:58:48.999Z</time></trkpt><trkpt lat="49.31301890256882" lon="0.9752733107528574"><ele>123.0</ele><time>2026-03-30T17:58:49.999Z</time></trkpt><trkpt lat="49.31296331210064" lon="0.9752158063924626"><ele>123.0</ele><time>2026-03-30T17:58:50.999Z</time></trkpt><trkpt lat="49.3128747685032" lon="0.975135365039433"><ele>123.0</ele><time>2026-03-30T17:58:52.999Z</time></trkpt><trkpt lat="49.31279771612438" lon="0.9750582150138342"><ele>123.2</ele><time>2026-03-30T17:58:54.999Z</time></trkpt><trkpt lat="49.31269387081555" lon="0.974973082406736"><ele>123.4</ele><time>2026-03-30T17:58:56.999Z</time></trkpt><trkpt lat="49.31258785614048" lon="0.9748698160490765"><ele>123.60000000000001</ele><time>2026-03-30T17:58:58.999Z</time></trkpt><trkpt lat="49.3125294677009" lon="0.9748095525908731"><ele>123.80000000000001</ele><time>2026-03-30T17:58:59.999Z</time></trkpt><trkpt lat="49.31246769551194" lon="0.9747631944080758"><ele>124.0</ele><time>2026-03-30T17:59:00.999Z</time></trkpt><trkpt lat="49.31240108690773" lon="0.9747141926681503"><ele>124.00000000000001</ele><time>2026-03-30T17:59:01.999Z</time></trkpt><trkpt lat="49.31233935121908" lon="0.974651275135167"><ele>124.0</ele><time>2026-03-30T17:59:02.999Z</time></trkpt><trkpt lat="49.312280744273565" lon="0.9745886955459447"><ele>124.0</ele><time>2026-03-30T17:59:03.999Z</time></trkpt><trkpt lat="49.31221868172041" lon="0.9745315156117368"><ele>124.0</ele><time>2026-03-30T17:59:04.999Z</time></trkpt><trkpt lat="49.31214885976925" lon="0.9744787706748322"><ele>124.00000000000001</ele><time>2026-03-30T17:59:05.999Z</time></trkpt><trkpt lat="49.312070708093955" lon="0.9744134277031286"><ele>124.0</ele><time>2026-03-30T17:59:06.999Z</time></trkpt><trkpt lat="49.31199066379724" lon="0.9743378436672985"><ele>124.0</ele><time>2026-03-30T17:59:07.999Z</time></trkpt><trkpt lat="49.31190536826396" lon="0.9742588597492968"><ele>124.0</ele><time>2026-03-30T17:59:08.999Z</time></trkpt><trkpt lat="49.31183568463377" lon="0.9741881707181184"><ele>124.0</ele><time>2026-03-30T17:59:09.999Z</time></trkpt><trkpt lat="49.31176087860395" lon="0.9741169549532532"><ele>124.0</ele><time>2026-03-30T17:59:10.999Z</time></trkpt><trkpt lat="49.31169635387564" lon="0.9740628190514181"><ele>124.0</ele><time>2026-03-30T17:59:11.999Z</time></trkpt><trkpt lat="49.31159493882097" lon="0.9739717739756951"><ele>124.0</ele><time>2026-03-30T17:59:13.999Z</time></trkpt><trkpt lat="49.31152569682303" lon="0.973854608102311"><ele>124.0</ele><time>2026-03-30T17:59:15.998Z</time></trkpt><trkpt lat="49.31155954514363" lon="0.9737072752566662"><ele>124.0</ele><time>2026-03-30T17:59:17.998Z</time></trkpt><trkpt lat="49.31163860406109" lon="0.9735331723126671"><ele>124.0</ele><time>2026-03-30T17:59:19.998Z</time></trkpt><trkpt lat="49.311691091978105" lon="0.973420011783682"><ele>124.0</ele><time>2026-03-30T17:59:20.998Z</time></trkpt><trkpt lat="49.31173963417323" lon="0.9733143353818171"><ele>124.5</ele><time>2026-03-30T17:59:21.998Z</time></trkpt><trkpt lat="49.31178719171727" lon="0.9731966367750726"><ele>125.0</ele><time>2026-03-30T17:59:22.998Z</time></trkpt><trkpt lat="49.311841860657786" lon="0.9730593244871883"><ele>125.5</ele><time>2026-03-30T17:59:23.998Z</time></trkpt><trkpt lat="49.31190079755031" lon="0.9728867640243496"><ele>126.0</ele><time>2026-03-30T17:59:24.998Z</time></trkpt><trkpt lat="49.31198152712716" lon="0.972687043750514"><ele>126.4</ele><time>2026-03-30T17:59:25.998Z</time></trkpt><trkpt lat="49.312053922710824" lon="0.972512850921804"><ele>126.8</ele><time>2026-03-30T17:59:26.998Z</time></trkpt><trkpt lat="49.312118569459386" lon="0.9724029269807442"><ele>127.20000000000002</ele><time>2026-03-30T17:59:27.998Z</time></trkpt><trkpt lat="49.312181278114195" lon="0.9723175543155325"><ele>127.60000000000001</ele><time>2026-03-30T17:59:28.998Z</time></trkpt><trkpt lat="49.31226926677674" lon="0.9722201417054451"><ele>128.0</ele><time>2026-03-30T17:59:29.998Z</time></trkpt><trkpt lat="49.312350581275076" lon="0.9720961250264768"><ele>128.0</ele><time>2026-03-30T17:59:30.998Z</time></trkpt><trkpt lat="49.31243533687599" lon="0.97195234540332"><ele>128.0</ele><time>2026-03-30T17:59:32Z</time></trkpt><trkpt lat="49.312519721230565" lon="0.9718227916878197"><ele>128.0</ele><time>2026-03-30T17:59:33Z</time></trkpt><trkpt lat="49.31260203399327" lon="0.9716836987201009"><ele>128.0</ele><time>2026-03-30T17:59:34Z</time></trkpt><trkpt lat="49.31272390003828" lon="0.9715035942614685"><ele>127.66666666666666</ele><time>2026-03-30T17:59:35Z</time></trkpt><trkpt lat="49.31284408833041" lon="0.9713374565945889"><ele>127.33333333333334</ele><time>2026-03-30T17:59:36Z</time></trkpt><trkpt lat="49.31294620340282" lon="0.9711850521200486"><ele>127.0</ele><time>2026-03-30T17:59:37Z</time></trkpt><trkpt lat="49.313073593354794" lon="0.9710167159227722"><ele>126.75</ele><time>2026-03-30T17:59:38Z</time></trkpt><trkpt lat="49.31319078501977" lon="0.9708385181809935"><ele>126.5</ele><time>2026-03-30T17:59:39Z</time></trkpt><trkpt lat="49.313299119128324" lon="0.9706860519878128"><ele>126.25</ele><time>2026-03-30T17:59:40Z</time></trkpt><trkpt lat="49.313397277359705" lon="0.9705853444765573"><ele>126.0</ele><time>2026-03-30T17:59:41Z</time></trkpt><trkpt lat="49.31349357434741" lon="0.9704752798604418"><ele>126.0</ele><time>2026-03-30T17:59:42Z</time></trkpt><trkpt lat="49.31357393168599" lon="0.970377019828227"><ele>126.0</ele><time>2026-03-30T17:59:43Z</time></trkpt><trkpt lat="49.31363863258962" lon="0.9702822719175778"><ele>126.0</ele><time>2026-03-30T17:59:44Z</time></trkpt><trkpt lat="49.31370912741679" lon="0.9701846271194791"><ele>126.0</ele><time>2026-03-30T17:59:45Z</time></trkpt><trkpt lat="49.313786273444634" lon="0.9700863587520949"><ele>126.0</ele><time>2026-03-30T17:59:46Z</time></trkpt><trkpt lat="49.31385636801553" lon="0.9699820502679959"><ele>125.5</ele><time>2026-03-30T17:59:47Z</time></trkpt><trkpt lat="49.31391903200547" lon="0.9698968719072293"><ele>125.0</ele><time>2026-03-30T17:59:48Z</time></trkpt><trkpt lat="49.313973792545895" lon="0.96982418226682"><ele>124.5</ele><time>2026-03-30T17:59:49Z</time></trkpt><trkpt lat="49.31402966562422" lon="0.9697533040812089"><ele>124.0</ele><time>2026-03-30T17:59:50Z</time></trkpt><trkpt lat="49.31408470802717" lon="0.969687470824033"><ele>123.5</ele><time>2026-03-30T17:59:51Z</time></trkpt><trkpt lat="49.314154367824166" lon="0.9695904135691028"><ele>123.0</ele><time>2026-03-30T17:59:53Z</time></trkpt><trkpt lat="49.314168120031404" lon="0.9694946149463486"><ele>123.0</ele><time>2026-03-30T17:59:55Z</time></trkpt><trkpt lat="49.31411201178845" lon="0.9694338109790893"><ele>123.0</ele><time>2026-03-30T17:59:57Z</time></trkpt><trkpt lat="49.31397882999152" lon="0.9693263572632693"><ele>123.0</ele><time>2026-03-30T17:59:59Z</time></trkpt><trkpt lat="49.31385786124608" lon="0.9691867129585603"><ele>123.0</ele><time>2026-03-30T18:00:00Z</time></trkpt><trkpt lat="49.313762012299996" lon="0.969091410414898"><ele>123.80000000000001</ele><time>2026-03-30T18:00:01Z</time></trkpt><trkpt lat="49.313676670175745" lon="0.9690262230876948"><ele>124.60000000000001</ele><time>2026-03-30T18:00:02Z</time></trkpt><trkpt lat="49.313595655383885" lon="0.9689441563635209"><ele>125.39999999999999</ele><time>2026-03-30T18:00:02.999Z</time></trkpt><trkpt lat="49.31352065933999" lon="0.9688725325243471"><ele>126.19999999999999</ele><time>2026-03-30T18:00:03.999Z</time></trkpt><trkpt lat="49.31344005615118" lon="0.968781787093292"><ele>127.0</ele><time>2026-03-30T18:00:04.999Z</time></trkpt><trkpt lat="49.3133723246324" lon="0.9687094477656341"><ele>127.0</ele><time>2026-03-30T18:00:05.999Z</time></trkpt><trkpt lat="49.31330522261981" lon="0.9686389338222766"><ele>126.99999999999999</ele><time>2026-03-30T18:00:06.999Z</time></trkpt><trkpt lat="49.313225228255" lon="0.9685885286158478"><ele>126.99999999999999</ele><time>2026-03-30T18:00:07.999Z</time></trkpt><trkpt lat="49.31313679962524" lon="0.9685179822203618"><ele>127.0</ele><time>2026-03-30T18:00:08.999Z</time></trkpt><trkpt lat="49.31305682294912" lon="0.9684457669352461"><ele>127.0</ele><time>2026-03-30T18:00:09.999Z</time></trkpt><trkpt lat="49.3129658162695" lon="0.9683472843915731"><ele>127.33333333333334</ele><time>2026-03-30T18:00:10.999Z</time></trkpt><trkpt lat="49.31288314763056" lon="0.9682645585656232"><ele>127.66666666666667</ele><time>2026-03-30T18:00:11.999Z</time></trkpt><trkpt lat="49.312809238222776" lon="0.9681898900914122"><ele>128.0</ele><time>2026-03-30T18:00:12.999Z</time></trkpt><trkpt lat="49.312723267650945" lon="0.9681065203024528"><ele>128.33333333333334</ele><time>2026-03-30T18:00:13.999Z</time></trkpt><trkpt lat="49.31266289445025" lon="0.9680555038494278"><ele>128.66666666666666</ele><time>2026-03-30T18:00:14.999Z</time></trkpt><trkpt lat="49.312606183095966" lon="0.9680012226291824"><ele>129.0</ele><time>2026-03-30T18:00:15.999Z</time></trkpt><trkpt lat="49.31254553448281" lon="0.96794302207998"><ele>129.0</ele><time>2026-03-30T18:00:16.999Z</time></trkpt><trkpt lat="49.31247497683885" lon="0.9678844422873657"><ele>129.0</ele><time>2026-03-30T18:00:17.999Z</time></trkpt><trkpt lat="49.312414722920145" lon="0.9678360688366553"><ele>129.0</ele><time>2026-03-30T18:00:18.999Z</time></trkpt><trkpt lat="49.31231096708625" lon="0.9677215189070704"><ele>129.0</ele><time>2026-03-30T18:00:20.999Z</time></trkpt><trkpt lat="49.312254378627586" lon="0.9676545691044879"><ele>129.0</ele><time>2026-03-30T18:00:21.999Z</time></trkpt><trkpt lat="49.31220746775727" lon="0.9675801993125934"><ele>129.0</ele><time>2026-03-30T18:00:22.999Z</time></trkpt><trkpt lat="49.31214939986665" lon="0.9674351295780057"><ele>128.6</ele><time>2026-03-30T18:00:24.999Z</time></trkpt><trkpt lat="49.31209929285153" lon="0.9672845125376579"><ele>128.2</ele><time>2026-03-30T18:00:26.999Z</time></trkpt><trkpt lat="49.31204634171218" lon="0.9671776044822358"><ele>127.79999999999998</ele><time>2026-03-30T18:00:27.999Z</time></trkpt><trkpt lat="49.311979623271135" lon="0.9670286546258658"><ele>127.39999999999999</ele><time>2026-03-30T18:00:28.999Z</time></trkpt><trkpt lat="49.31192331136927" lon="0.9668616822591648"><ele>127.0</ele><time>2026-03-30T18:00:29.999Z</time></trkpt><trkpt lat="49.311860102318015" lon="0.9667290406055299"><ele>126.8</ele><time>2026-03-30T18:00:30.999Z</time></trkpt><trkpt lat="49.31180878977305" lon="0.9665981478753687"><ele>126.6</ele><time>2026-03-30T18:00:31.999Z</time></trkpt><trkpt lat="49.31175810360862" lon="0.9664618360261624"><ele>126.39999999999999</ele><time>2026-03-30T18:00:32.999Z</time></trkpt><trkpt lat="49.31170076108075" lon="0.9663315662514659"><ele>126.19999999999999</ele><time>2026-03-30T18:00:33.999Z</time></trkpt><trkpt lat="49.31164384793204" lon="0.9661998437231746"><ele>126.0</ele><time>2026-03-30T18:00:34.999Z</time></trkpt><trkpt lat="49.31159082793345" lon="0.9660794417223203"><ele>126.0</ele><time>2026-03-30T18:00:35.999Z</time></trkpt><trkpt lat="49.311557863333704" lon="0.9659813302720526"><ele>126.0</ele><time>2026-03-30T18:00:36.999Z</time></trkpt><trkpt lat="49.31153622557119" lon="0.965885047697365"><ele>126.0</ele><time>2026-03-30T18:00:37.999Z</time></trkpt><trkpt lat="49.31151533989622" lon="0.9657611918998614"><ele>126.0</ele><time>2026-03-30T18:00:38.999Z</time></trkpt><trkpt lat="49.31150765848159" lon="0.9656296099205172"><ele>126.0</ele><time>2026-03-30T18:00:39.999Z</time></trkpt><trkpt lat="49.311511271768616" lon="0.9655118878759873"><ele>126.0</ele><time>2026-03-30T18:00:40.999Z</time></trkpt><trkpt lat="49.31151474367314" lon="0.9653851379560212"><ele>125.83333333333333</ele><time>2026-03-30T18:00:41.999Z</time></trkpt><trkpt lat="49.31149868041786" lon="0.9652654622366038"><ele>125.66666666666666</ele><time>2026-03-30T18:00:42.999Z</time></trkpt><trkpt lat="49.31147282481543" lon="0.9651469959696825"><ele>125.5</ele><time>2026-03-30T18:00:43.999Z</time></trkpt><trkpt lat="49.31143444772515" lon="0.965056274499662"><ele>125.33333333333333</ele><time>2026-03-30T18:00:44.999Z</time></trkpt><trkpt lat="49.311394692624916" lon="0.964948717082468"><ele>125.16666666666666</ele><time>2026-03-30T18:00:45.999Z</time></trkpt><trkpt lat="49.31135704884451" lon="0.9648527587247396"><ele>125.0</ele><time>2026-03-30T18:00:46.999Z</time></trkpt><trkpt lat="49.31130700136434" lon="0.9647656597161031"><ele>124.8</ele><time>2026-03-30T18:00:47.999Z</time></trkpt><trkpt lat="49.31126580654443" lon="0.9646756502258047"><ele>124.6</ele><time>2026-03-30T18:00:48.999Z</time></trkpt><trkpt lat="49.31119895443715" lon="0.964516597315748"><ele>124.4</ele><time>2026-03-30T18:00:50.999Z</time></trkpt><trkpt lat="49.31117928458138" lon="0.9643892001949722"><ele>124.2</ele><time>2026-03-30T18:00:51.999Z</time></trkpt><trkpt lat="49.3111232267717" lon="0.9642756853558885"><ele>124.0</ele><time>2026-03-30T18:00:52.999Z</time></trkpt><trkpt lat="49.31110464314815" lon="0.964135220368001"><ele>123.75</ele><time>2026-03-30T18:00:53.999Z</time></trkpt><trkpt lat="49.311091688822465" lon="0.9639553606112431"><ele>123.5</ele><time>2026-03-30T18:00:54.999Z</time></trkpt><trkpt lat="49.31107276195221" lon="0.9637500535303839"><ele>123.25</ele><time>2026-03-30T18:00:55.999Z</time></trkpt><trkpt lat="49.3110589094145" lon="0.9635822465161978"><ele>123.0</ele><time>2026-03-30T18:00:56.999Z</time></trkpt><trkpt lat="49.3110681956383" lon="0.963446536710583"><ele>122.4</ele><time>2026-03-30T18:00:57.999Z</time></trkpt><trkpt lat="49.311062829851345" lon="0.9632950774290028"><ele>121.80000000000001</ele><time>2026-03-30T18:00:58.999Z</time></trkpt><trkpt lat="49.311044766985766" lon="0.963178748562208"><ele>121.2</ele><time>2026-03-30T18:00:59.999Z</time></trkpt><trkpt lat="49.311015198337365" lon="0.9630717609166134"><ele>120.6</ele><time>2026-03-30T18:01:00.999Z</time></trkpt><trkpt lat="49.311009712462905" lon="0.9629331248840145"><ele>120.0</ele><time>2026-03-30T18:01:01.999Z</time></trkpt><trkpt lat="49.31100563649978" lon="0.9627678431959308"><ele>120.0</ele><time>2026-03-30T18:01:02.999Z</time></trkpt><trkpt lat="49.31098295176695" lon="0.9626104752086387"><ele>120.0</ele><time>2026-03-30T18:01:03.999Z</time></trkpt><trkpt lat="49.31095253501341" lon="0.9624612573472503"><ele>120.0</ele><time>2026-03-30T18:01:04.999Z</time></trkpt><trkpt lat="49.310916893326585" lon="0.9623531839491595"><ele>120.0</ele><time>2026-03-30T18:01:05.998Z</time></trkpt><trkpt lat="49.31087389443378" lon="0.9622574172106002"><ele>120.0</ele><time>2026-03-30T18:01:07.998Z</time></trkpt><trkpt lat="49.31085908674818" lon="0.9621451980675709"><ele>120.0</ele><time>2026-03-30T18:01:08.998Z</time></trkpt><trkpt lat="49.310871502898706" lon="0.9620418668133957"><ele>119.0</ele><time>2026-03-30T18:01:09.998Z</time></trkpt><trkpt lat="49.310935865703584" lon="0.9618254277775428"><ele>118.0</ele><time>2026-03-30T18:01:11.998Z</time></trkpt><trkpt lat="49.31098532073724" lon="0.9616122291760216"><ele>117.0</ele><time>2026-03-30T18:01:12.998Z</time></trkpt><trkpt lat="49.31101667548302" lon="0.9614110742390247"><ele>116.0</ele><time>2026-03-30T18:01:13.998Z</time></trkpt><trkpt lat="49.311018316666974" lon="0.9612496907462575"><ele>115.19999999999999</ele><time>2026-03-30T18:01:14.998Z</time></trkpt><trkpt lat="49.31100037520888" lon="0.9611164809935397"><ele>114.39999999999999</ele><time>2026-03-30T18:01:15.998Z</time></trkpt><trkpt lat="49.31096435939985" lon="0.961003708605864"><ele>113.6</ele><time>2026-03-30T18:01:16.998Z</time></trkpt><trkpt lat="49.31085307460191" lon="0.96088260241461"><ele>112.8</ele><time>2026-03-30T18:01:18.998Z</time></trkpt><trkpt lat="49.310768782245205" lon="0.960842843915835"><ele>112.0</ele><time>2026-03-30T18:01:19.998Z</time></trkpt><trkpt lat="49.31069508223133" lon="0.9608203596006928"><ele>112.00000000000001</ele><time>2026-03-30T18:01:20.998Z</time></trkpt><trkpt lat="49.310588368693956" lon="0.9607582297685906"><ele>112.0</ele><time>2026-03-30T18:01:22.998Z</time></trkpt><trkpt lat="49.31054641344808" lon="0.9606847584197168"><ele>112.0</ele><time>2026-03-30T18:01:23.998Z</time></trkpt><trkpt lat="49.310506167083226" lon="0.9605586309975956"><ele>112.0</ele><time>2026-03-30T18:01:25.998Z</time></trkpt><trkpt lat="49.31050081166313" lon="0.9604347486867114"><ele>112.00000000000001</ele><time>2026-03-30T18:01:27.998Z</time></trkpt><trkpt lat="49.31053241449467" lon="0.9603133598414766"><ele>112.0</ele><time>2026-03-30T18:01:28.998Z</time></trkpt><trkpt lat="49.310560000936604" lon="0.9601358879631221"><ele>113.0</ele><time>2026-03-30T18:01:29.998Z</time></trkpt><trkpt lat="49.31058909434847" lon="0.9599057492255554"><ele>114.0</ele><time>2026-03-30T18:01:30.998Z</time></trkpt><trkpt lat="49.31061804554154" lon="0.9596646557162998"><ele>115.0</ele><time>2026-03-30T18:01:31.998Z</time></trkpt><trkpt lat="49.31063884902081" lon="0.9594732385832772"><ele>116.0</ele><time>2026-03-30T18:01:32.998Z</time></trkpt><trkpt lat="49.3106602020931" lon="0.9593294754013852"><ele>116.0</ele><time>2026-03-30T18:01:33.998Z</time></trkpt><trkpt lat="49.31066821498693" lon="0.9592176014090565"><ele>116.0</ele><time>2026-03-30T18:01:34.998Z</time></trkpt><trkpt lat="49.31064921919832" lon="0.9591238550670252"><ele>116.0</ele><time>2026-03-30T18:01:35.998Z</time></trkpt><trkpt lat="49.31055968592087" lon="0.958961861524273"><ele>116.0</ele><time>2026-03-30T18:01:38Z</time></trkpt><trkpt lat="49.310474983652824" lon="0.9588847973957636"><ele>116.0</ele><time>2026-03-30T18:01:39Z</time></trkpt><trkpt lat="49.31036667714624" lon="0.9587839844222111"><ele>116.19999999999999</ele><time>2026-03-30T18:01:40Z</time></trkpt><trkpt lat="49.31027187073211" lon="0.9586706672489353"><ele>116.39999999999999</ele><time>2026-03-30T18:01:41Z</time></trkpt><trkpt lat="49.31019030129763" lon="0.9585663468705287"><ele>116.6</ele><time>2026-03-30T18:01:42Z</time></trkpt><trkpt lat="49.31012167272264" lon="0.9584728387664749"><ele>116.8</ele><time>2026-03-30T18:01:43Z</time></trkpt><trkpt lat="49.31005814048746" lon="0.958391083774585"><ele>117.0</ele><time>2026-03-30T18:01:44Z</time></trkpt><trkpt lat="49.30999068689842" lon="0.9583198538831911"><ele>117.39999999999999</ele><time>2026-03-30T18:01:45Z</time></trkpt><trkpt lat="49.3099235022044" lon="0.9582751135402863"><ele>117.79999999999998</ele><time>2026-03-30T18:01:46Z</time></trkpt><trkpt lat="49.30985906957084" lon="0.9582436985830635"><ele>118.2</ele><time>2026-03-30T18:01:47Z</time></trkpt><trkpt lat="49.30974620699741" lon="0.9582397098409775"><ele>118.6</ele><time>2026-03-30T18:01:49Z</time></trkpt><trkpt lat="49.309656463369166" lon="0.9582274465815062"><ele>119.0</ele><time>2026-03-30T18:01:51Z</time></trkpt><trkpt lat="49.30953539070793" lon="0.9582468340294015"><ele>119.75</ele><time>2026-03-30T18:01:53Z</time></trkpt><trkpt lat="49.30943144072441" lon="0.9582659523257222"><ele>120.5</ele><time>2026-03-30T18:01:54Z</time></trkpt><trkpt lat="49.30933410313008" lon="0.9582709461250771"><ele>121.25</ele><time>2026-03-30T18:01:55Z</time></trkpt><trkpt lat="49.309201765487394" lon="0.9582363613575127"><ele>122.0</ele><time>2026-03-30T18:01:56Z</time></trkpt><trkpt lat="49.30902535402197" lon="0.9581957749152399"><ele>123.0</ele><time>2026-03-30T18:01:57Z</time></trkpt><trkpt lat="49.308828860348434" lon="0.9581348098716813"><ele>124.0</ele><time>2026-03-30T18:01:58Z</time></trkpt><trkpt lat="49.30861218771519" lon="0.9580576500434443"><ele>125.0</ele><time>2026-03-30T18:01:59Z</time></trkpt><trkpt lat="49.30839100252379" lon="0.957970704318018"><ele>125.0</ele><time>2026-03-30T18:02:00Z</time></trkpt><trkpt lat="49.308175747416385" lon="0.9578732232834838"><ele>125.0</ele><time>2026-03-30T18:02:01Z</time></trkpt><trkpt lat="49.30791452346885" lon="0.9577471124261804"><ele>125.66666666666666</ele><time>2026-03-30T18:02:01.999Z</time></trkpt><trkpt lat="49.3076987892481" lon="0.9576442484202763"><ele>126.33333333333334</ele><time>2026-03-30T18:02:02.999Z</time></trkpt><trkpt lat="49.30753000942116" lon="0.957565891230885"><ele>127.0</ele><time>2026-03-30T18:02:03.999Z</time></trkpt><trkpt lat="49.307391682394524" lon="0.9575028871864112"><ele>127.19999999999999</ele><time>2026-03-30T18:02:04.999Z</time></trkpt><trkpt lat="49.30727418047887" lon="0.9574477598806181"><ele>127.39999999999999</ele><time>2026-03-30T18:02:05.999Z</time></trkpt><trkpt lat="49.30717344036351" lon="0.9574000577407996"><ele>127.60000000000001</ele><time>2026-03-30T18:02:06.999Z</time></trkpt><trkpt lat="49.3070837344423" lon="0.9573518196509873"><ele>127.80000000000001</ele><time>2026-03-30T18:02:07.999Z</time></trkpt><trkpt lat="49.30700474577288" lon="0.9572936052696147"><ele>128.0</ele><time>2026-03-30T18:02:08.999Z</time></trkpt><trkpt lat="49.30693599843916" lon="0.9572269557145129"><ele>127.99999999999999</ele><time>2026-03-30T18:02:09.999Z</time></trkpt><trkpt lat="49.30686471085381" lon="0.9571614803205979"><ele>128.0</ele><time>2026-03-30T18:02:10.999Z</time></trkpt><trkpt lat="49.30682459421975" lon="0.9570627750676654"><ele>128.0</ele><time>2026-03-30T18:02:11.999Z</time></trkpt><trkpt lat="49.30681764031686" lon="0.9569598567089226"><ele>128.0</ele><time>2026-03-30T18:02:12.999Z</time></trkpt><trkpt lat="49.306834484095816" lon="0.9568205449087956"><ele>127.99999999999999</ele><time>2026-03-30T18:02:13.999Z</time></trkpt><trkpt lat="49.306846826237965" lon="0.9566600986022357"><ele>128.0</ele><time>2026-03-30T18:02:14.999Z</time></trkpt><trkpt lat="49.306854573472776" lon="0.9565273597612057"><ele>127.99999999999999</ele><time>2026-03-30T18:02:15.999Z</time></trkpt><trkpt lat="49.306857925260424" lon="0.9564189314365489"><ele>128.0</ele><time>2026-03-30T18:02:16.999Z</time></trkpt><trkpt lat="49.306858911507796" lon="0.9563197975128951"><ele>128.0</ele><time>2026-03-30T18:02:17.999Z</time></trkpt><trkpt lat="49.30685825387762" lon="0.9561863364804548"><ele>128.0</ele><time>2026-03-30T18:02:19.999Z</time></trkpt><trkpt lat="49.30673266035595" lon="0.9561621948657842"><ele>127.99999999999999</ele><time>2026-03-30T18:02:20.999Z</time></trkpt><trkpt lat="49.30664585132724" lon="0.956177611047887"><ele>128.0</ele><time>2026-03-30T18:02:21.999Z</time></trkpt><trkpt lat="49.3065762339909" lon="0.9561621452994984"><ele>128.0</ele><time>2026-03-30T18:02:22.999Z</time></trkpt><trkpt lat="49.3064780920187" lon="0.9563625826408854"><ele>128.0</ele><time>2026-03-30T18:02:24.999Z</time></trkpt><trkpt lat="49.306457485008025" lon="0.956458588069122"><ele>128.0</ele><time>2026-03-30T18:02:25.999Z</time></trkpt><trkpt lat="49.30641350381384" lon="0.956656926119416"><ele>128.0</ele><time>2026-03-30T18:02:27.999Z</time></trkpt><trkpt lat="49.30639273370738" lon="0.9568471948132642"><ele>128.33333333333331</ele><time>2026-03-30T18:02:28.999Z</time></trkpt><trkpt lat="49.306373193637874" lon="0.9571037886929411"><ele>128.66666666666666</ele><time>2026-03-30T18:02:29.999Z</time></trkpt><trkpt lat="49.30636191008493" lon="0.9573965013631034"><ele>129.0</ele><time>2026-03-30T18:02:30.999Z</time></trkpt><trkpt lat="49.30632514839667" lon="0.9577201862290299"><ele>129.0</ele><time>2026-03-30T18:02:31.999Z</time></trkpt><trkpt lat="49.30629652914102" lon="0.9580684866615857"><ele>129.0</ele><time>2026-03-30T18:02:32.999Z</time></trkpt><trkpt lat="49.306261579440125" lon="0.9584484680525078"><ele>129.0</ele><time>2026-03-30T18:02:33.999Z</time></trkpt><trkpt lat="49.30622715607701" lon="0.9588275075473742"><ele>129.0</ele><time>2026-03-30T18:02:34.999Z</time></trkpt><trkpt lat="49.30620882981221" lon="0.9591569875267641"><ele>128.33333333333334</ele><time>2026-03-30T18:02:35.999Z</time></trkpt><trkpt lat="49.30614939525601" lon="0.9594513335816115"><ele>127.66666666666667</ele><time>2026-03-30T18:02:36.999Z</time></trkpt><trkpt lat="49.306078228104916" lon="0.9597956422447173"><ele>127.0</ele><time>2026-03-30T18:02:37.999Z</time></trkpt><trkpt lat="49.305988465881775" lon="0.960167424102616"><ele>127.0</ele><time>2026-03-30T18:02:38.999Z</time></trkpt><trkpt lat="49.30588985948675" lon="0.960487315917774"><ele>127.0</ele><time>2026-03-30T18:02:39.999Z</time></trkpt><trkpt lat="49.30580587690544" lon="0.9607939696192158"><ele>127.0</ele><time>2026-03-30T18:02:40.999Z</time></trkpt><trkpt lat="49.305747371365875" lon="0.9611105889020438"><ele>127.33333333333334</ele><time>2026-03-30T18:02:41.999Z</time></trkpt><trkpt lat="49.30562118308137" lon="0.9613709884875598"><ele>127.66666666666666</ele><time>2026-03-30T18:02:42.999Z</time></trkpt><trkpt lat="49.30553042037218" lon="0.9616324454549422"><ele>128.0</ele><time>2026-03-30T18:02:43.999Z</time></trkpt><trkpt lat="49.30546910900279" lon="0.9618732655361427"><ele>127.75</ele><time>2026-03-30T18:02:44.999Z</time></trkpt><trkpt lat="49.305397688655226" lon="0.9620795079423539"><ele>127.5</ele><time>2026-03-30T18:02:45.999Z</time></trkpt><trkpt lat="49.305331872634184" lon="0.9622647368483118"><ele>127.25</ele><time>2026-03-30T18:02:46.999Z</time></trkpt><trkpt lat="49.30526439275039" lon="0.9624350250994457"><ele>127.0</ele><time>2026-03-30T18:02:47.999Z</time></trkpt><trkpt lat="49.30519998403431" lon="0.9625941793384769"><ele>127.0</ele><time>2026-03-30T18:02:48.999Z</time></trkpt><trkpt lat="49.30515304846184" lon="0.9627437121330034"><ele>126.99999999999999</ele><time>2026-03-30T18:02:49.999Z</time></trkpt><trkpt lat="49.305109067927" lon="0.9628776711014905"><ele>126.99999999999999</ele><time>2026-03-30T18:02:50.999Z</time></trkpt><trkpt lat="49.30506217759732" lon="0.9629923364794146"><ele>127.0</ele><time>2026-03-30T18:02:51.999Z</time></trkpt><trkpt lat="49.305019675158086" lon="0.9630900792397158"><ele>127.0</ele><time>2026-03-30T18:02:52.999Z</time></trkpt><trkpt lat="49.30496102654073" lon="0.9632418526161096"><ele>127.0</ele><time>2026-03-30T18:02:54.999Z</time></trkpt><trkpt lat="49.304911714096896" lon="0.9633763848930542"><ele>126.99999999999999</ele><time>2026-03-30T18:02:56.999Z</time></trkpt><trkpt lat="49.304853183122745" lon="0.9634825853769324"><ele>126.99999999999999</ele><time>2026-03-30T18:02:59Z</time></trkpt><trkpt lat="49.30477555808593" lon="0.9633511467605484"><ele>127.0</ele><time>2026-03-30T18:03:02Z</time></trkpt><trkpt lat="49.304742953808315" lon="0.9632466655101579"><ele>127.0</ele><time>2026-03-30T18:03:02.999Z</time></trkpt><trkpt lat="49.30468066705289" lon="0.9630779051785393"><ele>127.33333333333334</ele><time>2026-03-30T18:03:03.999Z</time></trkpt><trkpt lat="49.304595376756794" lon="0.9628468180625364"><ele>127.66666666666666</ele><time>2026-03-30T18:03:04.999Z</time></trkpt><trkpt lat="49.304488456752864" lon="0.962567326190342"><ele>128.0</ele><time>2026-03-30T18:03:05.999Z</time></trkpt><trkpt lat="49.304378012311695" lon="0.9622749957266229"><ele>127.33333333333333</ele><time>2026-03-30T18:03:06.999Z</time></trkpt><trkpt lat="49.30429412720864" lon="0.9619454055602448"><ele>126.66666666666666</ele><time>2026-03-30T18:03:07.999Z</time></trkpt><trkpt lat="49.30421131673065" lon="0.9616914707569847"><ele>126.0</ele><time>2026-03-30T18:03:08.999Z</time></trkpt><trkpt lat="49.30411544520801" lon="0.9615292018980771"><ele>125.8</ele><time>2026-03-30T18:03:09.999Z</time></trkpt><trkpt lat="49.30404265633259" lon="0.9613896010598841"><ele>125.6</ele><time>2026-03-30T18:03:10.999Z</time></trkpt><trkpt lat="49.30398335849562" lon="0.9612627058920832"><ele>125.4</ele><time>2026-03-30T18:03:11.999Z</time></trkpt><trkpt lat="49.303926537037974" lon="0.9611705669513438"><ele>125.2</ele><time>2026-03-30T18:03:12.999Z</time></trkpt><trkpt lat="49.30380710696917" lon="0.9611800257048998"><ele>125.0</ele><time>2026-03-30T18:03:13.999Z</time></trkpt><trkpt lat="49.30368669142806" lon="0.9611365764451579"><ele>125.0</ele><time>2026-03-30T18:03:14.999Z</time></trkpt><trkpt lat="49.3035336507867" lon="0.9611264735512819"><ele>125.0</ele><time>2026-03-30T18:03:15.999Z</time></trkpt><trkpt lat="49.303372085778996" lon="0.9611204884517549"><ele>125.0</ele><time>2026-03-30T18:03:16.999Z</time></trkpt><trkpt lat="49.30323713122296" lon="0.9610931610285193"><ele>125.0</ele><time>2026-03-30T18:03:17.999Z</time></trkpt><trkpt lat="49.30312770737985" lon="0.9610405796672318"><ele>125.0</ele><time>2026-03-30T18:03:18.999Z</time></trkpt><trkpt lat="49.303029959216545" lon="0.9609769073279798"><ele>125.0</ele><time>2026-03-30T18:03:19.999Z</time></trkpt><trkpt lat="49.302909838723885" lon="0.9608926182756733"><ele>125.0</ele><time>2026-03-30T18:03:20.999Z</time></trkpt><trkpt lat="49.30275100582574" lon="0.9607921821940577"><ele>124.0</ele><time>2026-03-30T18:03:21.999Z</time></trkpt><trkpt lat="49.302617944760726" lon="0.9606968234916493"><ele>123.0</ele><time>2026-03-30T18:03:22.999Z</time></trkpt><trkpt lat="49.302497341515256" lon="0.9606205408482608"><ele>122.0</ele><time>2026-03-30T18:03:23.999Z</time></trkpt><trkpt lat="49.30238357634618" lon="0.960546629718337"><ele>121.0</ele><time>2026-03-30T18:03:24.999Z</time></trkpt><trkpt lat="49.30227784927449" lon="0.960492030118649"><ele>120.19999999999999</ele><time>2026-03-30T18:03:25.999Z</time></trkpt><trkpt lat="49.302181663023674" lon="0.9604222590333719"><ele>119.39999999999999</ele><time>2026-03-30T18:03:26.999Z</time></trkpt><trkpt lat="49.30208827670338" lon="0.960392459590027"><ele>118.6</ele><time>2026-03-30T18:03:27.999Z</time></trkpt><trkpt lat="49.30200641447669" lon="0.9603724733705011"><ele>117.8</ele><time>2026-03-30T18:03:28.999Z</time></trkpt><trkpt lat="49.30192827192755" lon="0.9603551668187771"><ele>117.0</ele><time>2026-03-30T18:03:29.999Z</time></trkpt><trkpt lat="49.30182137135403" lon="0.9603313133379371"><ele>117.0</ele><time>2026-03-30T18:03:31.999Z</time></trkpt><trkpt lat="49.301703120785135" lon="0.9604180973085696"><ele>117.0</ele><time>2026-03-30T18:03:33.999Z</time></trkpt><trkpt lat="49.30164003454014" lon="0.9605153779710104"><ele>117.0</ele><time>2026-03-30T18:03:34.999Z</time></trkpt><trkpt lat="49.30155147045716" lon="0.9606546772807603"><ele>117.0</ele><time>2026-03-30T18:03:35.999Z</time></trkpt><trkpt lat="49.30144592357296" lon="0.9608337867288564"><ele>116.0</ele><time>2026-03-30T18:03:36.999Z</time></trkpt><trkpt lat="49.301326891754115" lon="0.9610426429492113"><ele>115.0</ele><time>2026-03-30T18:03:37.999Z</time></trkpt><trkpt lat="49.301193152119254" lon="0.9612781547637121"><ele>114.0</ele><time>2026-03-30T18:03:38.999Z</time></trkpt><trkpt lat="49.301081301534296" lon="0.9614826232010149"><ele>114.0</ele><time>2026-03-30T18:03:39.999Z</time></trkpt><trkpt lat="49.30099427259268" lon="0.9616567611129824"><ele>114.0</ele><time>2026-03-30T18:03:40.999Z</time></trkpt><trkpt lat="49.30093978136197" lon="0.9617917070802442"><ele>114.0</ele><time>2026-03-30T18:03:41.999Z</time></trkpt><trkpt lat="49.300912972657585" lon="0.9618933738389464"><ele>114.0</ele><time>2026-03-30T18:03:42.999Z</time></trkpt><trkpt lat="49.30080017922402" lon="0.961901792453702"><ele>114.0</ele><time>2026-03-30T18:03:45.001Z</time></trkpt><trkpt lat="49.300694473341025" lon="0.9618615782400203"><ele>115.33333333333334</ele><time>2026-03-30T18:03:46.001Z</time></trkpt><trkpt lat="49.300551836159656" lon="0.9617989380090831"><ele>116.66666666666667</ele><time>2026-03-30T18:03:47.001Z</time></trkpt><trkpt lat="49.3003837940084" lon="0.961720774556962"><ele>118.0</ele><time>2026-03-30T18:03:48.001Z</time></trkpt><trkpt lat="49.30019764504857" lon="0.9616353231908886"><ele>118.33333333333334</ele><time>2026-03-30T18:03:49.001Z</time></trkpt><trkpt lat="49.29998179942874" lon="0.9615606705592649"><ele>118.66666666666666</ele><time>2026-03-30T18:03:50.001Z</time></trkpt><trkpt lat="49.299776634089724" lon="0.9614657723702854"><ele>119.0</ele><time>2026-03-30T18:03:51.001Z</time></trkpt><trkpt lat="49.299600989001505" lon="0.9613898337901795"><ele>120.33333333333333</ele><time>2026-03-30T18:03:52.001Z</time></trkpt><trkpt lat="49.29944557399995" lon="0.9613178390879045"><ele>121.66666666666666</ele><time>2026-03-30T18:03:53.001Z</time></trkpt><trkpt lat="49.299301266441155" lon="0.9612537350936409"><ele>123.0</ele><time>2026-03-30T18:03:54.001Z</time></trkpt><trkpt lat="49.2991662747132" lon="0.9611983680004033"><ele>123.0</ele><time>2026-03-30T18:03:55.001Z</time></trkpt><trkpt lat="49.29900325227291" lon="0.9611320662062175"><ele>123.0</ele><time>2026-03-30T18:03:56.001Z</time></trkpt><trkpt lat="49.29884090935919" lon="0.9610370519366743"><ele>123.0</ele><time>2026-03-30T18:03:57.001Z</time></trkpt><trkpt lat="49.298707915292745" lon="0.9609757695068254"><ele>123.75</ele><time>2026-03-30T18:03:58.001Z</time></trkpt><trkpt lat="49.29858668197531" lon="0.9609459382107013"><ele>124.5</ele><time>2026-03-30T18:03:59.001Z</time></trkpt><trkpt lat="49.29849804414971" lon="0.9608911672476413"><ele>125.25</ele><time>2026-03-30T18:04:00.001Z</time></trkpt><trkpt lat="49.29840227541562" lon="0.9608392655254535"><ele>126.0</ele><time>2026-03-30T18:04:01.001Z</time></trkpt><trkpt lat="49.29828044789189" lon="0.9609752420960804"><ele>126.0</ele><time>2026-03-30T18:04:03.001Z</time></trkpt><trkpt lat="49.2982064094536" lon="0.9611344751772757"><ele>126.0</ele><time>2026-03-30T18:04:04.001Z</time></trkpt><trkpt lat="49.298108741354355" lon="0.9613297164691675"><ele>126.0</ele><time>2026-03-30T18:04:05.001Z</time></trkpt><trkpt lat="49.298010311766376" lon="0.9615826883427425"><ele>127.5</ele><time>2026-03-30T18:04:06.001Z</time></trkpt><trkpt lat="49.29789790973915" lon="0.9618736537170004"><ele>129.0</ele><time>2026-03-30T18:04:07.001Z</time></trkpt><trkpt lat="49.2977777468832" lon="0.9621798009116095"><ele>129.0</ele><time>2026-03-30T18:04:08.001Z</time></trkpt><trkpt lat="49.29765711555749" lon="0.9625209047707206"><ele>129.0</ele><time>2026-03-30T18:04:09.001Z</time></trkpt><trkpt lat="49.29753637828918" lon="0.9628844787156118"><ele>128.5</ele><time>2026-03-30T18:04:10Z</time></trkpt><trkpt lat="49.29741644784409" lon="0.963269236632771"><ele>128.0</ele><time>2026-03-30T18:04:11Z</time></trkpt><trkpt lat="49.29730577009448" lon="0.9636784161889458"><ele>128.5</ele><time>2026-03-30T18:04:12Z</time></trkpt><trkpt lat="49.29720826265239" lon="0.9640989509914587"><ele>129.0</ele><time>2026-03-30T18:04:13Z</time></trkpt><trkpt lat="49.29710789729641" lon="0.9645323382484896"><ele>129.0</ele><time>2026-03-30T18:04:14Z</time></trkpt><trkpt lat="49.29700598704489" lon="0.9649725683619168"><ele>129.0</ele><time>2026-03-30T18:04:15Z</time></trkpt><trkpt lat="49.296912800277966" lon="0.9654004038138576"><ele>129.0</ele><time>2026-03-30T18:04:16Z</time></trkpt><trkpt lat="49.29683495506686" lon="0.9657722548841949"><ele>129.0</ele><time>2026-03-30T18:04:17Z</time></trkpt><trkpt lat="49.29675536137017" lon="0.9660739248998549"><ele>129.0</ele><time>2026-03-30T18:04:18Z</time></trkpt><trkpt lat="49.296688962233695" lon="0.9663497842732255"><ele>129.0</ele><time>2026-03-30T18:04:19Z</time></trkpt><trkpt lat="49.296644084941406" lon="0.9666236860483709"><ele>129.0</ele><time>2026-03-30T18:04:20Z</time></trkpt><trkpt lat="49.29657815482841" lon="0.9669502996145358"><ele>129.0</ele><time>2026-03-30T18:04:21Z</time></trkpt><trkpt lat="49.29653838642876" lon="0.9673378570394664"><ele>129.0</ele><time>2026-03-30T18:04:22Z</time></trkpt><trkpt lat="49.296501657516465" lon="0.967757438302582"><ele>128.0</ele><time>2026-03-30T18:04:23Z</time></trkpt><trkpt lat="49.296461946549634" lon="0.9681684236364112"><ele>127.0</ele><time>2026-03-30T18:04:24Z</time></trkpt><trkpt lat="49.2964292281749" lon="0.9685657471917437"><ele>126.5</ele><time>2026-03-30T18:04:25Z</time></trkpt><trkpt lat="49.29639749772745" lon="0.9689455474670847"><ele>126.0</ele><time>2026-03-30T18:04:26Z</time></trkpt><trkpt lat="49.29635719053348" lon="0.969374705929253"><ele>126.0</ele><time>2026-03-30T18:04:27Z</time></trkpt><trkpt lat="49.29631730477214" lon="0.9698007804547695"><ele>126.0</ele><time>2026-03-30T18:04:28Z</time></trkpt><trkpt lat="49.29629935692705" lon="0.9701784026027437"><ele>125.0</ele><time>2026-03-30T18:04:29Z</time></trkpt><trkpt lat="49.29626796534383" lon="0.9704808117972203"><ele>124.0</ele><time>2026-03-30T18:04:30Z</time></trkpt><trkpt lat="49.29624159424259" lon="0.970722367213111"><ele>123.0</ele><time>2026-03-30T18:04:31Z</time></trkpt><trkpt lat="49.296213935033805" lon="0.9709013315168437"><ele>122.75</ele><time>2026-03-30T18:04:32Z</time></trkpt><trkpt lat="49.29618487063024" lon="0.9710297287582383"><ele>122.5</ele><time>2026-03-30T18:04:33Z</time></trkpt><trkpt lat="49.296091615004805" lon="0.9711717039098913"><ele>122.25</ele><time>2026-03-30T18:04:35Z</time></trkpt><trkpt lat="49.29596354020717" lon="0.9711335948167161"><ele>122.0</ele><time>2026-03-30T18:04:36Z</time></trkpt><trkpt lat="49.29586327222064" lon="0.9712157835530819"><ele>122.0</ele><time>2026-03-30T18:04:37Z</time></trkpt><trkpt lat="49.29573348670469" lon="0.9713207761280751"><ele>122.0</ele><time>2026-03-30T18:04:38Z</time></trkpt><trkpt lat="49.29559002378034" lon="0.9714319434432479"><ele>122.0</ele><time>2026-03-30T18:04:39Z</time></trkpt><trkpt lat="49.2954808877611" lon="0.971501604222062"><ele>122.0</ele><time>2026-03-30T18:04:40Z</time></trkpt><trkpt lat="49.29539058463772" lon="0.9714998832720695"><ele>121.75</ele><time>2026-03-30T18:04:41Z</time></trkpt><trkpt lat="49.295310944563454" lon="0.9714825317411669"><ele>121.5</ele><time>2026-03-30T18:04:42Z</time></trkpt><trkpt lat="49.29522056064808" lon="0.9714188024022543"><ele>121.25</ele><time>2026-03-30T18:04:43Z</time></trkpt><trkpt lat="49.295090784950155" lon="0.9713117607469375"><ele>121.0</ele><time>2026-03-30T18:04:44Z</time></trkpt><trkpt lat="49.29494255629093" lon="0.9711555590710959"><ele>121.0</ele><time>2026-03-30T18:04:45Z</time></trkpt><trkpt lat="49.294816997995554" lon="0.9710351216319946"><ele>121.0</ele><time>2026-03-30T18:04:46Z</time></trkpt><trkpt lat="49.29471062800124" lon="0.9709567323421041"><ele>121.0</ele><time>2026-03-30T18:04:47Z</time></trkpt><trkpt lat="49.29461395637287" lon="0.9709288822757913"><ele>121.0</ele><time>2026-03-30T18:04:48Z</time></trkpt><trkpt lat="49.2945151786968" lon="0.9709382096147742"><ele>120.4</ele><time>2026-03-30T18:04:49Z</time></trkpt><trkpt lat="49.29442023988194" lon="0.9709863353658431"><ele>119.8</ele><time>2026-03-30T18:04:50Z</time></trkpt><trkpt lat="49.29432747470072" lon="0.9710546967145454"><ele>119.20000000000002</ele><time>2026-03-30T18:04:51Z</time></trkpt><trkpt lat="49.294240566599875" lon="0.971105783695895"><ele>118.60000000000001</ele><time>2026-03-30T18:04:52Z</time></trkpt><trkpt lat="49.294155914883056" lon="0.9711467932227879"><ele>118.0</ele><time>2026-03-30T18:04:53Z</time></trkpt><trkpt lat="49.294075506610916" lon="0.9711865373756596"><ele>118.00000000000001</ele><time>2026-03-30T18:04:54Z</time></trkpt><trkpt lat="49.293999658458304" lon="0.9712283408192726"><ele>118.0</ele><time>2026-03-30T18:04:55Z</time></trkpt><trkpt lat="49.29392819267127" lon="0.9712693174091677"><ele>118.0</ele><time>2026-03-30T18:04:56Z</time></trkpt><trkpt lat="49.293859665325705" lon="0.9713059046697382"><ele>118.0</ele><time>2026-03-30T18:04:57Z</time></trkpt><trkpt lat="49.29379984001088" lon="0.97134811193729"><ele>118.00000000000001</ele><time>2026-03-30T18:04:58Z</time></trkpt><trkpt lat="49.29369333376079" lon="0.9714298907742106"><ele>118.0</ele><time>2026-03-30T18:05:00Z</time></trkpt><trkpt lat="49.29356745335034" lon="0.9715222980343647"><ele>118.00000000000001</ele><time>2026-03-30T18:05:02Z</time></trkpt><trkpt lat="49.293492193299464" lon="0.9715780364053209"><ele>118.0</ele><time>2026-03-30T18:05:03Z</time></trkpt><trkpt lat="49.29341548809291" lon="0.9716399109368506"><ele>118.0</ele><time>2026-03-30T18:05:04Z</time></trkpt><trkpt lat="49.293337463726296" lon="0.9717042290522185"><ele>118.0</ele><time>2026-03-30T18:05:05Z</time></trkpt><trkpt lat="49.29325616092368" lon="0.9717658037886424"><ele>118.00000000000001</ele><time>2026-03-30T18:05:06Z</time></trkpt><trkpt lat="49.293172405221775" lon="0.9718301795097436"><ele>118.0</ele><time>2026-03-30T18:05:06.999Z</time></trkpt><trkpt lat="49.293088040054144" lon="0.9718946653210646"><ele>118.0</ele><time>2026-03-30T18:05:07.999Z</time></trkpt><trkpt lat="49.293011266789705" lon="0.971951159473644"><ele>118.00000000000001</ele><time>2026-03-30T18:05:08.999Z</time></trkpt><trkpt lat="49.29294499317406" lon="0.9720000272980244"><ele>118.00000000000001</ele><time>2026-03-30T18:05:09.999Z</time></trkpt><trkpt lat="49.29288598920909" lon="0.9720384790197231"><ele>118.0</ele><time>2026-03-30T18:05:10.999Z</time></trkpt><trkpt lat="49.29279608882225" lon="0.9720805131147663"><ele>118.0</ele><time>2026-03-30T18:05:12.999Z</time></trkpt><trkpt lat="49.29276961654282" lon="0.9722931464792963"><ele>118.00000000000001</ele><time>2026-03-30T18:05:15.999Z</time></trkpt><trkpt lat="49.29280320753144" lon="0.9724343270652522"><ele>118.0</ele><time>2026-03-30T18:05:17.999Z</time></trkpt><trkpt lat="49.292819176660736" lon="0.972559943462362"><ele>118.0</ele><time>2026-03-30T18:05:19.999Z</time></trkpt><trkpt lat="49.29284624923366" lon="0.9726669812530501"><ele>118.0</ele><time>2026-03-30T18:05:21.999Z</time></trkpt><trkpt lat="49.29287331546264" lon="0.9727745609259204"><ele>118.00000000000001</ele><time>2026-03-30T18:05:23.999Z</time></trkpt><trkpt lat="49.29287075711687" lon="0.9728732782222355"><ele>118.0</ele><time>2026-03-30T18:05:25.999Z</time></trkpt><trkpt lat="49.29284659593301" lon="0.972782469171527"><ele>117.0</ele><time>2026-03-30T18:06:08.001Z</time></trkpt><trkpt lat="49.29277256248711" lon="0.9727911056837661"><ele>117.0</ele><time>2026-03-30T18:08:42Z</time></trkpt></trkseg></trk></gpx>